[[{"header":{"parameterUnit":"m.s-1","parameterCategory":1,"la1":31.0,"la2":29.5877,"lo1":-88.7671,"lo2":-86.6584,"dy":0.0162,"dx":0.0185,"nx":115,"ny":88,"refTime":"2023-04-07T00:00:00:Z","depth":0,"parameterNumber":2,"parameterNumberName":"U-component_of_WINDS"},"data":[0.0,0.0,0.0,0.0,0.0,0.0,0.0,0.0,0.0,0.0,0.0,0.0,0.0,0.0,0.0,0.0,0.0,0.0,0.0,0.0,0.0,0.0,0.0,0.0,0.0,0.0,0.0,0.0,0.0,0.0,0.0,0.0,0.0,0.0,0.0,0.0,0.0,0.0,0.0,0.0,0.0,0.0,0.0,0.0,0.0,0.0,0.0,0.0,0.0,0.0,0.0,0.0,0.0,0.0,0.0,0.0,0.0,0.0,0.0,0.0,0.0,0.0,0.0,0.0,0.0,0.0,0.0,0.0,0.0,0.0,0.0,0.0,0.0,0.0,0.0,0.0,0.0,0.0,0.0,0.0,0.0,0.0,0.0,0.0,0.0,0.0,0.0,0.0,0.0,0.0,0.0,0.0,0.0,0.0,0.0,0.0,0.0,0.0,0.0,0.0,0.0,0.0,0.0,0.0,0.0,0.0,0.0,0.0,0.0,0.0,0.0,0.0,0.0,0.0,0.0,0.0,0.0,0.0,0.0,0.0,0.0,0.0,0.0,0.0,0.0,0.0,0.0,0.0,0.0,0.0,0.0,0.0,0.0,0.0,0.0,0.0,0.0,0.0,0.0,0.0,0.0,0.0,0.0,0.0,0.0,0.0,0.0,0.0,0.0,0.0,0.0,0.0,0.0,0.0,0.0,0.0,0.0,0.0,0.0,0.0,0.0,0.0,0.0,0.0,0.0,0.0,0.0,0.0,0.0,0.0,0.0,0.0,0.0,0.0,0.0,0.0,0.0,0.0,0.0,0.0,0.0,0.0,0.0,0.0,0.0,0.0,0.0,0.0,0.0,0.0,0.0,0.0,0.0,0.0,0.0,0.0,0.0,0.0,0.0,0.0,0.0,0.0,0.0,0.0,0.0,0.0,0.0,0.0,0.0,0.0,0.0,0.0,0.0,0.0,0.0,0.0,0.0,0.0,0.0,0.0,0.0,0.0,0.0,0.0,0.0,0.0,0.0,0.0,0.0,0.0,0.0,0.0,0.0,0.0,0.0,0.0,0.0,0.0,0.0,0.0,0.0,0.0,0.0,0.0,0.0,0.0,0.0,0.0,0.0,0.0,0.0,0.0,0.0,0.0,0.0,0.0,0.0,0.0,0.0,0.0,0.0,0.0,0.0,0.0,0.0,0.0,0.0,0.0,0.0,0.0,0.0,0.0,0.0,0.0,0.0,0.0,0.0,0.0,0.0,0.0,0.0,0.0,0.0,0.0,0.0,0.0,0.0,0.0,0.0,0.0,0.0,0.0,0.0,0.0,0.0,0.0,0.0,0.0,0.0,0.0,0.0,0.0,0.0,0.0,0.0,0.0,0.0,0.0,0.0,0.0,0.0,0.0,0.0,0.0,0.0,0.0,0.0,0.0,0.0,0.0,0.0,0.0,0.0,0.0,0.0,0.0,0.0,0.0,0.0,0.0,0.0,0.0,0.0,0.0,0.0,0.0,0.0,0.0,0.0,0.0,0.0,0.0,0.0,0.0,0.0,0.0,0.0,0.0,0.0,0.0,0.0,0.0,0.0,0.0,0.0,0.0,0.0,0.0,0.0,0.0,0.0,0.0,0.0,0.0,0.0,0.0,0.0,0.0,0.0,0.0,0.0,0.0,0.0,0.0,0.0,0.0,0.0,0.0,0.0,0.0,0.0,0.0,0.0,0.0,0.0,0.0,0.0,0.0,0.0,0.0,0.0,0.0,0.0,0.0,0.0,0.0,0.0,0.0,0.0,0.0,0.0,0.0,0.0,0.0,0.0,0.0,0.0,0.0,0.0,0.0,0.0,0.0,0.0,0.0,0.0,0.0,0.0,0.0,0.0,0.0,0.0,0.0,0.0,0.0,0.0,0.0,0.0,0.0,0.0,0.0,0.0,0.0,0.0,0.0,0.0,0.0,0.0,0.0,0.0,0.0,0.0,0.0,0.0,0.0,0.0,0.0,0.0,0.0,0.0,0.0,0.0,0.0,0.0,0.0,0.0,0.0,0.0,0.0,0.0,0.0,0.0,0.0,0.0,0.0,0.0,0.0,0.0,0.0,0.0,0.0,0.0,0.0,0.0,0.0,0.0,0.0,0.0,0.0,0.0,0.0,0.0,0.0,0.0,0.0,0.0,0.0,0.0,0.0,0.0,0.0,0.0,0.0,0.0,0.0,0.0,0.0,0.0,0.0,0.0,0.0,0.0,0.0,0.0,0.0,0.0,0.0,0.0,0.0,0.0,0.0,0.0,0.0,0.0,0.0,0.0,0.0,0.0,0.0,0.0,0.0,0.0,0.0,0.0,0.0,0.0,0.0,0.0,0.0,0.0,0.0,0.0,0.0,0.0,0.0,0.0,0.0,0.0,0.0,0.0,0.0,0.0,0.0,0.0,0.0,0.0,0.0,0.0,0.0,0.0,0.0,0.0,0.0,0.0,0.0,0.0,0.0,0.0,0.0,0.0,0.0,0.0,0.0,0.0,0.0,0.0,0.0,0.0,0.0,0.0,0.0,0.0,0.0,0.0,0.0,0.0,0.0,0.0,0.0,0.0,0.0,0.0,0.0,0.0,0.0,0.0,0.0,0.0,0.0,0.0,0.0,0.0,0.0,0.0,0.0,0.0,0.0,0.0,0.0,0.0,0.0,0.0,0.0,0.0,0.0,0.0,0.0,0.0,0.0,0.0,0.0,0.0,0.0,0.0,0.0,0.0,0.0,0.0,0.0,0.0,0.0,0.0,0.0,0.0,0.0,0.0,0.0,0.0,0.0,0.0,0.0,0.0,0.0,0.0,0.0,0.0,0.0,0.0,0.0,0.0,0.0,0.0,0.0,0.0,0.0,0.0,0.0,0.0,0.0,0.0,0.0,0.0,0.0,0.0,0.0,0.0,0.0,0.0,0.0,0.0,0.0,0.0,0.0,0.0,0.0,0.0,0.0,0.0,0.0,0.0,0.0,0.0,0.0,0.0,0.0,0.0,0.0,0.0,0.0,0.0,0.0,0.0,0.0,0.0,0.0,0.0,0.0,0.0,0.0,0.0,0.0,0.0,0.0,0.0,0.0,0.0,0.0,0.0,0.0,0.0,0.0,0.0,0.0,0.0,0.0,0.0,0.0,0.0,0.0,0.0,0.0,0.0,0.0,0.0,0.0,0.0,0.0,0.0,0.0,0.0,0.0,0.0,0.0,0.0,0.0,0.0,0.0,0.0,0.0,0.0,0.0,0.0,0.0,0.0,0.0,0.0,0.0,0.0,0.0,0.0,0.0,0.0,0.0,0.0,0.0,0.0,0.0,0.0,0.0,0.0,0.0,0.0,0.0,0.0,0.0,0.0,0.0,0.0,0.0,0.0,0.0,0.0,0.0,0.0,0.0,0.0,0.0,0.0,0.0,0.0,0.0,0.0,0.0,0.0,0.0,0.0,0.0,0.0,0.0,0.0,0.0,0.0,0.0,0.0,0.0,0.0,0.0,0.0,0.0,0.0,0.0,0.0,0.0,0.0,0.0,0.0,0.0,0.0,0.0,0.0,0.0,0.0,0.0,0.0,0.0,0.0,0.0,0.0,0.0,0.0,0.0,0.0,0.0,0.0,0.0,0.0,0.0,0.0,0.0,0.0,0.0,0.0,0.0,0.0,0.0,0.0,0.0,0.0,0.0,0.0,0.0,0.0,0.0,0.0,0.0,0.0,0.0,0.0,0.0,0.0,0.0,0.0,0.0,0.0,0.0,0.0,0.0,0.0,0.0,0.0,0.0,0.0,0.0,0.0,0.0,0.0,0.0,0.0,0.0,0.0,0.0,0.0,0.0,0.0,0.0,0.0,0.0,0.0,0.0,0.0,0.0,0.0,0.0,0.0,0.0,0.0,0.0,0.0,0.0,0.0,0.0,0.0,0.0,0.0,0.0,0.0,0.0,0.0,0.0,0.0,0.0,0.0,0.0,0.0,0.0,0.0,0.0,0.0,0.0,0.0,0.0,0.0,0.0,0.0,0.0,0.0,0.0,0.0,0.0,0.0,0.0,0.0,0.0,0.0,0.0,0.0,0.0,0.0,0.0,0.0,0.0,0.0,0.0,0.0,0.0,0.0,0.0,0.0,0.0,0.0,0.0,0.0,0.0,0.0,0.0,0.0,0.0,0.0,0.0,0.0,0.0,0.0,0.0,0.0,0.0,0.0,0.0,0.0,0.0,0.0,0.0,0.0,0.0,0.0,0.0,0.0,0.0,0.0,0.0,0.0,0.0,0.0,0.0,0.0,0.0,0.0,0.0,3.1909,0.0,0.0,0.0,0.0,0.0,0.0,0.0,0.0,0.0,0.0,0.0,0.0,0.0,0.0,0.0,0.0,0.0,0.0,0.0,0.0,0.0,0.0,0.0,0.0,0.0,0.0,0.0,0.0,0.0,0.0,0.0,0.0,0.0,0.0,0.0,0.0,0.0,0.0,0.0,0.0,0.0,0.0,0.0,0.0,0.0,0.0,0.0,0.0,0.0,0.0,0.0,0.0,0.0,0.0,0.0,0.0,0.0,0.0,0.0,0.0,0.0,0.0,0.0,0.0,0.0,0.0,0.0,0.0,0.0,0.0,0.0,0.0,0.0,0.0,0.0,0.0,0.0,0.0,0.0,0.0,0.0,0.0,0.0,0.0,0.0,0.0,0.0,0.0,0.0,0.0,0.0,0.0,0.0,0.0,0.0,0.0,0.0,0.0,0.0,0.0,0.0,0.0,0.0,0.0,0.0,0.0,0.0,0.0,0.0,0.0,3.152,3.1708,3.1726,3.1909,3.2313,0.0,0.0,0.0,0.0,0.0,0.0,0.0,0.0,0.0,0.0,0.0,0.0,0.0,0.0,0.0,0.0,0.0,0.0,0.0,0.0,0.0,0.0,0.0,0.0,0.0,0.0,0.0,0.0,0.0,0.0,0.0,0.0,0.0,0.0,0.0,0.0,0.0,0.0,0.0,0.0,0.0,0.0,0.0,0.0,0.0,0.0,0.0,0.0,0.0,0.0,0.0,0.0,0.0,0.0,0.0,0.0,0.0,0.0,0.0,0.0,0.0,0.0,0.0,0.0,0.0,0.0,0.0,0.0,0.0,0.0,0.0,0.0,0.0,0.0,0.0,0.0,0.0,0.0,0.0,0.0,0.0,0.0,0.0,0.0,0.0,0.0,0.0,0.0,0.0,0.0,0.0,0.0,0.0,0.0,0.0,0.0,0.0,0.0,0.0,0.0,0.0,0.0,0.0,0.0,0.0,0.0,0.0,0.0,0.0,0.0,0.0,0.0,3.2093,3.2331,3.2716,0.0,0.0,0.0,0.0,0.0,0.0,0.0,0.0,0.0,0.0,0.0,0.0,0.0,0.0,0.0,0.0,0.0,0.0,0.0,0.0,0.0,0.0,0.0,0.0,0.0,0.0,0.0,0.0,0.0,0.0,0.0,0.0,0.0,0.0,0.0,0.0,0.0,0.0,0.0,0.0,0.0,0.0,0.0,0.0,0.0,0.0,0.0,0.0,0.0,0.0,0.0,0.0,0.0,0.0,0.0,0.0,0.0,0.0,0.0,0.0,0.0,0.0,0.0,0.0,0.0,0.0,0.0,0.0,0.0,0.0,0.0,0.0,0.0,0.0,0.0,0.0,0.0,0.0,0.0,0.0,0.0,0.0,0.0,0.0,0.0,0.0,0.0,0.0,0.0,0.0,0.0,0.0,0.0,0.0,0.0,0.0,0.0,0.0,0.0,0.0,0.0,0.0,0.0,0.0,0.0,0.0,0.0,0.0,0.0,0.0,3.1964,3.2019,3.2368,0.0,3.3122,0.0,0.0,0.0,0.0,0.0,0.0,0.0,0.0,0.0,0.0,0.0,0.0,0.0,0.0,0.0,0.0,0.0,0.0,0.0,0.0,0.0,0.0,0.0,0.0,0.0,0.0,0.0,0.0,0.0,0.0,0.0,0.0,0.0,0.0,0.0,0.0,0.0,0.0,0.0,0.0,0.0,0.0,0.0,0.0,0.0,0.0,0.0,0.0,0.0,0.0,0.0,0.0,0.0,0.0,0.0,0.0,0.0,0.0,0.0,0.0,0.0,0.0,0.0,0.0,0.0,0.0,0.0,0.0,0.0,0.0,0.0,0.0,0.0,0.0,0.0,0.0,0.0,0.0,0.0,0.0,0.0,0.0,0.0,0.0,0.0,0.0,0.0,0.0,0.0,0.0,0.0,0.0,0.0,0.0,0.0,0.0,0.0,0.0,0.0,0.0,0.0,0.0,0.0,0.0,0.0,0.0,0.0,0.0,0.0,0.0,3.2126,3.2362,3.2795,3.3086,0.0,0.0,0.0,0.0,0.0,0.0,0.0,0.0,0.0,0.0,0.0,0.0,0.0,0.0,0.0,0.0,0.0,0.0,0.0,0.0,0.0,0.0,0.0,0.0,0.0,0.0,0.0,0.0,0.0,0.0,0.0,0.0,0.0,0.0,0.0,0.0,0.0,0.0,0.0,0.0,0.0,0.0,0.0,0.0,0.0,0.0,0.0,0.0,0.0,0.0,0.0,0.0,0.0,0.0,0.0,0.0,0.0,0.0,0.0,0.0,0.0,0.0,0.0,0.0,0.0,0.0,0.0,0.0,0.0,0.0,0.0,0.0,0.0,0.0,0.0,0.0,0.0,0.0,0.0,0.0,0.0,0.0,0.0,0.0,0.0,0.0,0.0,0.0,0.0,0.0,0.0,0.0,0.0,0.0,0.0,0.0,0.0,0.0,0.0,0.0,0.0,0.0,0.0,0.0,0.0,0.0,0.0,0.0,0.0,0.0,3.2016,3.2243,3.2619,3.2959,3.3139,3.3121,0.0,0.0,0.0,0.0,0.0,0.0,0.0,0.0,0.0,0.0,0.0,0.0,0.0,0.0,0.0,0.0,0.0,0.0,0.0,0.0,0.0,0.0,0.0,0.0,0.0,0.0,0.0,0.0,0.0,0.0,0.0,0.0,0.0,0.0,0.0,0.0,0.0,0.0,0.0,0.0,0.0,0.0,0.0,0.0,0.0,0.0,0.0,0.0,0.0,0.0,0.0,0.0,0.0,0.0,0.0,0.0,0.0,0.0,0.0,0.0,0.0,0.0,0.0,0.0,0.0,0.0,0.0,0.0,0.0,0.0,0.0,0.0,0.0,0.0,0.0,0.0,0.0,0.0,0.0,0.0,0.0,0.0,0.0,0.0,0.0,0.0,0.0,0.0,0.0,0.0,0.0,0.0,0.0,0.0,0.0,0.0,0.0,0.0,0.0,0.0,0.0,0.0,0.0,0.0,0.0,0.0,0.0,0.0,3.2,3.209,3.2276,3.2648,3.2701,3.2701,0.0,0.0,0.0,0.0,0.0,0.0,0.0,0.0,0.0,0.0,0.0,0.0,0.0,0.0,0.0,0.0,0.0,0.0,0.0,0.0,0.0,0.0,0.0,0.0,0.0,0.0,0.0,0.0,0.0,0.0,0.0,0.0,0.0,0.0,0.0,0.0,0.0,0.0,0.0,0.0,0.0,0.0,0.0,0.0,0.0,0.0,0.0,0.0,0.0,0.0,0.0,0.0,0.0,0.0,0.0,0.0,0.0,0.0,0.0,0.0,0.0,0.0,0.0,0.0,0.0,0.0,0.0,0.0,0.0,0.0,0.0,0.0,0.0,0.0,0.0,0.0,0.0,0.0,0.0,0.0,0.0,0.0,0.0,0.0,0.0,0.0,0.0,0.0,0.0,0.0,0.0,0.0,0.0,0.0,0.0,0.0,0.0,0.0,0.0,0.0,0.0,0.0,0.0,0.0,0.0,0.0,0.0,0.0,0.0,3.2074,3.2068,3.2088,3.1982,3.2193,3.2333,0.0,0.0,0.0,0.0,0.0,0.0,0.0,0.0,0.0,0.0,0.0,0.0,0.0,0.0,0.0,0.0,0.0,0.0,0.0,0.0,0.0,0.0,0.0,0.0,0.0,0.0,0.0,0.0,0.0,0.0,0.0,0.0,0.0,0.0,0.0,0.0,0.0,0.0,0.0,0.0,0.0,0.0,0.0,0.0,0.0,0.0,0.0,0.0,0.0,0.0,0.0,0.0,0.0,0.0,0.0,0.0,0.0,0.0,0.0,0.0,0.0,0.0,0.0,0.0,0.0,0.0,0.0,0.0,0.0,0.0,0.0,0.0,0.0,0.0,0.0,0.0,0.0,0.0,0.0,0.0,0.0,0.0,0.0,0.0,0.0,0.0,0.0,0.0,0.0,0.0,0.0,0.0,0.0,0.0,0.0,0.0,0.0,0.0,0.0,0.0,0.0,0.0,0.0,0.0,0.0,0.0,0.0,0.0,0.0,3.1947,0.0,3.1841,3.163,3.1806,3.1947,0.0,0.0,0.0,0.0,0.0,0.0,0.0,0.0,0.0,0.0,0.0,0.0,0.0,0.0,0.0,0.0,0.0,0.0,0.0,0.0,0.0,0.0,0.0,0.0,0.0,0.0,0.0,0.0,0.0,0.0,0.0,0.0,0.0,0.0,0.0,0.0,0.0,0.0,0.0,0.0,0.0,0.0,0.0,0.0,0.0,0.0,0.0,0.0,0.0,0.0,0.0,0.0,0.0,0.0,0.0,0.0,0.0,0.0,0.0,0.0,0.0,0.0,0.0,0.0,0.0,0.0,0.0,0.0,0.0,0.0,0.0,0.0,0.0,0.0,0.0,0.0,0.0,0.0,0.0,0.0,0.0,0.0,0.0,0.0,0.0,0.0,0.0,0.0,0.0,0.0,0.0,0.0,0.0,0.0,0.0,0.0,0.0,0.0,0.0,0.0,0.0,0.0,0.0,0.0,0.0,0.0,0.0,0.0,3.1531,3.1613,3.1559,3.1559,3.1559,3.1559,3.1595,0.0,0.0,0.0,0.0,0.0,0.0,0.0,0.0,0.0,0.0,0.0,0.0,0.0,0.0,0.0,0.0,0.0,0.0,0.0,0.0,0.0,0.0,0.0,0.0,0.0,0.0,0.0,0.0,0.0,0.0,0.0,0.0,0.0,0.0,0.0,0.0,0.0,0.0,0.0,0.0,0.0,0.0,0.0,0.0,0.0,0.0,0.0,0.0,0.0,0.0,0.0,0.0,0.0,0.0,0.0,0.0,0.0,0.0,0.0,0.0,0.0,0.0,0.0,0.0,0.0,0.0,0.0,0.0,0.0,0.0,0.0,0.0,0.0,0.0,0.0,0.0,0.0,0.0,0.0,0.0,0.0,0.0,0.0,0.0,0.0,0.0,0.0,0.0,0.0,0.0,0.0,0.0,0.0,0.0,0.0,0.0,0.0,0.0,0.0,0.0,0.0,0.0,0.0,0.0,0.0,0.0,0.0,0.0,0.0,3.117,3.0904,3.0762,3.0762,3.0762,3.0904,0.0,0.0,0.0,0.0,0.0,0.0,0.0,0.0,0.0,0.0,0.0,0.0,0.0,0.0,0.0,0.0,0.0,0.0,0.0,0.0,0.0,0.0,0.0,0.0,0.0,0.0,0.0,0.0,0.0,0.0,0.0,0.0,0.0,0.0,0.0,0.0,0.0,0.0,0.0,0.0,0.0,0.0,0.0,0.0,0.0,0.0,0.0,0.0,0.0,0.0,0.0,0.0,0.0,0.0,0.0,0.0,0.0,0.0,0.0,0.0,0.0,0.0,0.0,0.0,0.0,0.0,0.0,0.0,0.0,0.0,0.0,0.0,0.0,0.0,0.0,0.0,0.0,0.0,0.0,0.0,0.0,0.0,0.0,0.0,0.0,0.0,0.0,0.0,0.0,0.0,0.0,0.0,0.0,0.0,0.0,0.0,0.0,0.0,0.0,0.0,0.0,0.0,0.0,0.0,0.0,0.0,0.0,0.0,0.0,3.037,3.0406,3.0406,3.0406,3.0406,3.0513,3.0762,0.0,0.0,0.0,0.0,0.0,0.0,0.0,0.0,0.0,0.0,0.0,0.0,0.0,0.0,0.0,0.0,0.0,0.0,0.0,0.0,0.0,0.0,0.0,0.0,0.0,0.0,0.0,0.0,0.0,0.0,0.0,0.0,0.0,0.0,0.0,0.0,0.0,0.0,0.0,0.0,0.0,0.0,0.0,0.0,0.0,0.0,0.0,0.0,0.0,0.0,0.0,0.0,0.0,0.0,0.0,0.0,0.0,0.0,0.0,0.0,0.0,0.0,0.0,0.0,0.0,0.0,0.0,0.0,0.0,0.0,0.0,0.0,0.0,0.0,0.0,0.0,0.0,0.0,0.0,0.0,0.0,0.0,0.0,0.0,0.0,0.0,0.0,0.0,0.0,0.0,0.0,0.0,0.0,0.0,0.0,0.0,0.0,0.0,0.0,0.0,0.0,0.0,0.0,0.0,0.0,0.0,0.0,0.0,2.9226,2.9907,3.0228,3.0264,3.0264,3.0335,0.0,0.0,0.0,0.0,0.0,0.0,0.0,0.0,0.0,0.0,0.0,0.0,0.0,0.0,0.0,0.0,0.0,0.0,0.0,0.0,0.0,0.0,0.0,0.0,0.0,0.0,0.0,0.0,0.0,0.0,0.0,0.0,0.0,0.0,0.0,0.0,0.0,0.0,0.0,0.0,0.0,0.0,0.0,0.0,0.0,0.0,0.0,0.0,0.0,0.0,0.0,0.0,0.0,0.0,0.0,0.0,0.0,0.0,0.0,0.0,0.0,0.0,0.0,0.0,0.0,0.0,0.0,0.0,0.0,0.0,0.0,0.0,0.0,0.0,0.0,0.0,0.0,0.0,0.0,0.0,0.0,0.0,0.0,0.0,0.0,0.0,0.0,0.0,0.0,0.0,0.0,0.0,0.0,0.0,0.0,0.0,0.0,0.0,0.0,0.0,0.0,0.0,0.0,0.0,0.0,0.0,0.0,0.0,0.0,2.8418,2.8599,2.8707,2.8707,2.8995,2.9282,0.0,0.0,0.0,0.0,0.0,0.0,0.0,0.0,0.0,0.0,0.0,0.0,0.0,0.0,0.0,0.0,0.0,0.0,0.0,0.0,0.0,0.0,0.0,0.0,0.0,0.0,0.0,0.0,0.0,0.0,0.0,0.0,0.0,0.0,0.0,0.0,0.0,0.0,0.0,0.0,0.0,0.0,0.0,0.0,0.0,0.0,0.0,0.0,0.0,0.0,0.0,0.0,0.0,0.0,0.0,0.0,0.0,0.0,0.0,0.0,0.0,0.0,0.0,0.0,0.0,0.0,0.0,0.0,0.0,0.0,0.0,0.0,0.0,0.0,0.0,0.0,0.0,0.0,0.0,0.0,0.0,0.0,0.0,0.0,0.0,0.0,0.0,0.0,0.0,0.0,0.0,0.0,0.0,0.0,0.0,0.0,0.0,0.0,0.0,0.0,0.0,0.0,0.0,0.0,0.0,0.0,0.0,0.0,2.813,2.7876,2.771,2.7638,2.7638,2.8166,2.8563,0.0,0.0,0.0,0.0,0.0,0.0,0.0,0.0,0.0,0.0,0.0,0.0,0.0,0.0,0.0,0.0,0.0,0.0,0.0,0.0,0.0,0.0,0.0,0.0,0.0,0.0,0.0,0.0,0.0,0.0,0.0,0.0,0.0,0.0,0.0,0.0,0.0,0.0,0.0,0.0,0.0,0.0,0.0,0.0,0.0,0.0,0.0,0.0,0.0,0.0,0.0,0.0,0.0,0.0,0.0,0.0,0.0,0.0,0.0,0.0,0.0,0.0,0.0,0.0,0.0,0.0,0.0,0.0,0.0,0.0,0.0,0.0,0.0,0.0,0.0,0.0,0.0,0.0,0.0,0.0,0.0,0.0,0.0,0.0,0.0,0.0,0.0,0.0,0.0,0.0,0.0,0.0,0.0,0.0,0.0,0.0,0.0,0.0,0.0,0.0,0.0,0.0,0.0,0.0,0.0,0.0,0.0,0.0,2.7514,2.7478,2.7093,2.6874,2.6874,2.7638,2.8057,0.0,0.0,0.0,0.0,0.0,0.0,0.0,0.0,0.0,0.0,0.0,0.0,0.0,0.0,0.0,0.0,0.0,0.0,0.0,0.0,0.0,0.0,0.0,0.0,0.0,0.0,0.0,0.0,0.0,0.0,0.0,0.0,0.0,0.0,0.0,0.0,0.0,0.0,0.0,0.0,0.0,0.0,0.0,0.0,0.0,0.0,0.0,0.0,0.0,0.0,0.0,0.0,0.0,0.0,0.0,0.0,0.0,0.0,0.0,0.0,0.0,0.0,0.0,0.0,0.0,0.0,0.0,0.0,0.0,0.0,0.0,0.0,0.0,0.0,0.0,0.0,0.0,0.0,0.0,0.0,0.0,0.0,0.0,0.0,0.0,0.0,0.0,0.0,0.0,0.0,0.0,0.0,0.0,0.0,0.0,0.0,0.0,0.0,0.0,0.0,0.0,0.0,0.0,0.0,0.0,0.0,0.0,0.0,2.6983,2.6655,2.6276,2.6056,2.6056,2.7114,2.7695,0.0,0.0,0.0,0.0,0.0,0.0,0.0,0.0,0.0,0.0,0.0,0.0,0.0,0.0,0.0,0.0,0.0,0.0,0.0,0.0,0.0,0.0,0.0,0.0,0.0,0.0,0.0,0.0,0.0,0.0,0.0,0.0,0.0,0.0,0.0,0.0,0.0,0.0,0.0,0.0,0.0,0.0,0.0,0.0,0.0,0.0,0.0,0.0,2.64,0.0,0.0,0.0,0.0,0.0,0.0,0.0,0.0,0.0,0.0,0.0,0.0,0.0,0.0,0.0,0.0,0.0,0.0,0.0,0.0,0.0,0.0,0.0,0.0,0.0,0.0,0.0,0.0,0.0,0.0,0.0,0.0,0.0,0.0,0.0,0.0,0.0,0.0,0.0,0.0,0.0,0.0,0.0,0.0,0.0,0.0,0.0,0.0,0.0,0.0,0.0,0.0,0.0,0.0,0.0,0.0,0.0,0.0,0.0,2.6509,2.6129,2.591,2.58,2.5836,2.6528,2.6983,0.0,0.0,0.0,0.0,0.0,0.0,0.0,0.0,0.0,0.0,0.0,0.0,0.0,0.0,0.0,0.0,0.0,0.0,0.0,0.0,0.0,0.0,0.0,0.0,0.0,0.0,0.0,0.0,0.0,0.0,0.0,0.0,0.0,0.0,0.0,0.0,0.0,0.0,0.0,0.0,0.0,0.0,0.0,0.0,0.0,0.0,0.0,0.0,0.0,0.0,0.0,0.0,0.0,0.0,0.0,0.0,0.0,0.0,0.0,0.0,0.0,0.0,0.0,0.0,0.0,0.0,0.0,0.0,0.0,0.0,0.0,0.0,0.0,0.0,0.0,0.0,0.0,0.0,0.0,0.0,0.0,0.0,0.0,0.0,0.0,0.0,0.0,0.0,0.0,0.0,0.0,0.0,0.0,0.0,0.0,0.0,0.0,0.0,0.0,0.0,0.0,0.0,0.0,0.0,0.0,0.0,0.0,2.6436,2.6084,2.5796,2.5723,2.5714,2.5755,2.5968,2.6168,2.6373,0.0,0.0,0.0,0.0,0.0,0.0,0.0,0.0,0.0,0.0,0.0,0.0,0.0,0.0,0.0,0.0,0.0,0.0,0.0,0.0,0.0,0.0,0.0,0.0,0.0,0.0,0.0,0.0,0.0,0.0,0.0,0.0,0.0,0.0,0.0,0.0,0.0,0.0,2.64,2.64,0.0,0.0,0.0,0.0,0.0,0.0,0.0,0.0,2.64,0.0,0.0,0.0,0.0,0.0,0.0,0.0,0.0,0.0,0.0,0.0,0.0,0.0,0.0,0.0,0.0,0.0,0.0,0.0,0.0,0.0,0.0,0.0,0.0,0.0,0.0,0.0,0.0,0.0,0.0,0.0,0.0,0.0,0.0,0.0,0.0,0.0,0.0,0.0,0.0,0.0,0.0,0.0,0.0,0.0,0.0,0.0,0.0,0.0,0.0,0.0,0.0,0.0,0.0,0.0,0.0,2.5983,2.5593,2.5497,2.5707,2.5385,2.5305,2.5547,2.5601,2.5791,2.6143,0.0,0.0,0.0,0.0,0.0,0.0,0.0,0.0,0.0,0.0,0.0,0.0,0.0,0.0,0.0,0.0,0.0,0.0,0.0,0.0,0.0,0.0,0.0,0.0,0.0,0.0,0.0,0.0,0.0,0.0,0.0,0.0,0.0,0.0,0.0,0.0,0.0,0.0,0.0,2.64,2.64,0.0,0.0,0.0,0.0,0.0,0.0,0.0,0.0,2.64,0.0,0.0,0.0,0.0,0.0,0.0,0.0,0.0,0.0,0.0,0.0,0.0,0.0,0.0,0.0,0.0,0.0,0.0,0.0,0.0,0.0,0.0,0.0,0.0,0.0,0.0,0.0,0.0,0.0,0.0,0.0,0.0,0.0,0.0,0.0,0.0,0.0,0.0,0.0,0.0,0.0,0.0,0.0,0.0,0.0,0.0,0.0,0.0,0.0,0.0,0.0,0.0,0.0,0.0,0.0,2.5755,2.5684,2.566,2.5607,2.5418,2.5371,2.5504,2.5665,2.5861,0.0,0.0,0.0,0.0,0.0,0.0,0.0,0.0,0.0,0.0,0.0,0.0,0.0,0.0,0.0,0.0,0.0,0.0,0.0,0.0,0.0,0.0,0.0,0.0,0.0,0.0,0.0,0.0,0.0,0.0,0.0,0.0,0.0,0.0,0.0,0.0,0.0,0.0,0.0,0.0,2.64,2.64,2.64,0.0,0.0,0.0,0.0,0.0,0.0,2.64,2.64,0.0,0.0,0.0,0.0,0.0,0.0,0.0,0.0,0.0,0.0,0.0,0.0,0.0,0.0,0.0,0.0,0.0,0.0,0.0,0.0,0.0,0.0,0.0,0.0,0.0,0.0,0.0,0.0,0.0,0.0,0.0,0.0,0.0,0.0,0.0,0.0,0.0,0.0,0.0,0.0,0.0,0.0,0.0,0.0,0.0,0.0,0.0,0.0,0.0,0.0,0.0,0.0,0.0,0.0,0.0,2.5674,2.5854,2.5851,2.5598,2.5598,2.5638,2.5692,2.5919,2.6078,0.0,0.0,0.0,0.0,0.0,0.0,0.0,0.0,0.0,0.0,0.0,0.0,0.0,0.0,0.0,0.0,0.0,0.0,0.0,0.0,0.0,0.0,0.0,0.0,0.0,0.0,0.0,0.0,0.0,0.0,0.0,0.0,0.0,0.0,0.0,0.0,0.0,0.0,0.0,0.0,0.0,2.64,2.64,2.64,0.0,0.0,0.0,0.0,2.64,2.644,0.0,0.0,0.0,0.0,0.0,0.0,0.0,0.0,0.0,0.0,0.0,0.0,0.0,0.0,0.0,0.0,0.0,0.0,0.0,0.0,0.0,0.0,0.0,0.0,0.0,0.0,0.0,0.0,0.0,0.0,0.0,0.0,0.0,0.0,0.0,0.0,0.0,0.0,0.0,0.0,0.0,0.0,0.0,0.0,0.0,0.0,0.0,0.0,0.0,0.0,0.0,0.0,0.0,0.0,0.0,0.0,2.5541,2.5568,2.5677,2.5931,2.5944,2.6065,2.6279,2.6319,2.6333,0.0,0.0,0.0,0.0,0.0,0.0,0.0,0.0,0.0,0.0,0.0,0.0,0.0,0.0,0.0,0.0,0.0,0.0,0.0,0.0,0.0,0.0,0.0,0.0,0.0,0.0,0.0,0.0,0.0,0.0,0.0,0.0,0.0,0.0,0.0,0.0,0.0,0.0,0.0,0.0,0.0,2.64,2.64,2.64,2.64,0.0,0.0,2.64,2.64,2.6613,0.0,0.0,0.0,0.0,0.0,0.0,0.0,0.0,0.0,0.0,0.0,0.0,0.0,0.0,0.0,0.0,0.0,0.0,0.0,0.0,0.0,0.0,0.0,0.0,0.0,0.0,0.0,0.0,0.0,0.0,0.0,0.0,0.0,0.0,0.0,0.0,0.0,0.0,0.0,0.0,0.0,0.0,0.0,0.0,0.0,0.0,0.0,0.0,0.0,0.0,0.0,0.0,0.0,0.0,0.0,2.5965,2.581,2.5932,2.6118,2.6199,2.6238,2.6305,2.6386,2.64,2.64,0.0,0.0,0.0,0.0,0.0,0.0,0.0,0.0,0.0,0.0,0.0,0.0,0.0,0.0,0.0,0.0,0.0,0.0,0.0,0.0,0.0,0.0,0.0,0.0,0.0,0.0,0.0,0.0,0.0,0.0,0.0,0.0,0.0,0.0,0.0,0.0,0.0,0.0,0.0,0.0,0.0,0.0,2.64,2.64,0.0,0.0,0.0,2.6694,2.6907,0.0,0.0,0.0,0.0,0.0,0.0,0.0,0.0,0.0,0.0,0.0,0.0,0.0,0.0,0.0,0.0,0.0,0.0,0.0,0.0,0.0,0.0,0.0,0.0,0.0,0.0,0.0,0.0,0.0,0.0,0.0,0.0,0.0,0.0,0.0,0.0,0.0,0.0,0.0,0.0,0.0,0.0,0.0,0.0,0.0,0.0,0.0,0.0,0.0,0.0,0.0,0.0,0.0,0.0,0.0,0.0,0.0,2.6105,2.6279,2.64,2.64,2.64,2.64,2.64,2.64,0.0,0.0,0.0,0.0,0.0,0.0,0.0,0.0,0.0,0.0,0.0,0.0,0.0,0.0,0.0,0.0,0.0,0.0,0.0,0.0,0.0,0.0,0.0,0.0,0.0,0.0,0.0,2.64,0.0,0.0,0.0,0.0,0.0,0.0,0.0,0.0,0.0,0.0,0.0,0.0,0.0,0.0,2.6493,2.6493,2.656,2.6694,0.0,0.0,2.7014,2.7269,2.7376,2.7375,0.0,0.0,0.0,0.0,0.0,0.0,0.0,0.0,0.0,0.0,0.0,0.0,0.0,0.0,0.0,0.0,0.0,0.0,0.0,0.0,0.0,0.0,0.0,0.0,0.0,0.0,0.0,0.0,0.0,0.0,0.0,0.0,0.0,0.0,0.0,0.0,0.0,0.0,0.0,0.0,0.0,0.0,0.0,0.0,0.0,0.0,0.0,0.0,0.0,0.0,0.0,0.0,0.0,0.0,2.6399,2.636,2.6386,2.64,2.64,2.64,2.64,2.64,2.64,2.64,0.0,0.0,0.0,0.0,0.0,0.0,0.0,0.0,0.0,0.0,0.0,0.0,0.0,0.0,0.0,0.0,0.0,0.0,0.0,0.0,0.0,0.0,0.0,0.0,0.0,0.0,0.0,0.0,0.0,0.0,0.0,0.0,0.0,0.0,0.0,0.0,0.0,0.0,0.0,0.0,0.0,2.6747,2.6747,2.7028,2.7255,0.0,2.7282,2.7282,2.7309,2.7495,2.7669,2.7669,0.0,0.0,0.0,0.0,0.0,0.0,0.0,0.0,0.0,0.0,0.0,0.0,0.0,0.0,0.0,0.0,0.0,0.0,0.0,0.0,0.0,0.0,0.0,0.0,0.0,2.64,0.0,0.0,0.0,0.0,0.0,0.0,0.0,0.0,0.0,0.0,0.0,0.0,0.0,0.0,0.0,0.0,0.0,0.0,0.0,0.0,0.0,0.0,0.0,0.0,0.0,0.0,0.0,2.64,2.64,2.64,2.64,2.64,2.64,2.64,2.64,2.64,2.64,0.0,0.0,0.0,0.0,0.0,0.0,0.0,0.0,0.0,0.0,0.0,0.0,0.0,0.0,0.0,0.0,0.0,0.0,0.0,0.0,0.0,0.0,0.0,0.0,0.0,0.0,0.0,0.0,2.6547,2.672,2.6907,0.0,0.0,0.0,0.0,0.0,0.0,0.0,0.0,0.0,0.0,2.7094,2.7094,2.7229,0.0,0.0,2.7535,2.7643,2.7817,2.7938,2.8018,2.8018,2.8112,0.0,0.0,0.0,0.0,0.0,0.0,0.0,0.0,0.0,0.0,0.0,0.0,0.0,0.0,0.0,0.0,0.0,0.0,0.0,0.0,0.0,0.0,0.0,0.0,0.0,0.0,2.64,2.64,0.0,0.0,0.0,0.0,0.0,0.0,0.0,0.0,0.0,0.0,0.0,0.0,0.0,0.0,0.0,0.0,0.0,0.0,0.0,0.0,0.0,0.0,0.0,0.0,2.64,2.64,2.64,2.64,2.64,2.64,2.64,2.64,2.64,2.64,0.0,0.0,0.0,0.0,0.0,0.0,0.0,0.0,0.0,0.0,0.0,0.0,0.0,0.0,0.0,0.0,0.0,0.0,0.0,0.0,0.0,0.0,0.0,0.0,0.0,0.0,0.0,0.0,2.6841,2.7028,2.7282,0.0,0.0,0.0,0.0,0.0,0.0,0.0,0.0,0.0,0.0,2.7429,2.7429,2.751,2.7643,2.7802,2.7829,2.7909,2.8152,2.8192,2.8192,2.8192,0.0,0.0,0.0,0.0,0.0,0.0,0.0,0.0,0.0,0.0,0.0,0.0,0.0,0.0,0.0,0.0,0.0,0.0,0.0,0.0,0.0,0.0,0.0,0.0,0.0,0.0,2.6426,2.64,0.0,2.6413,2.6413,0.0,0.0,0.0,0.0,0.0,0.0,0.0,0.0,0.0,0.0,0.0,0.0,0.0,0.0,0.0,0.0,0.0,0.0,0.0,0.0,0.0,0.0,2.64,2.64,2.64,2.64,2.64,2.64,2.6413,2.6413,2.64,2.64,2.6413,0.0,0.0,0.0,0.0,0.0,0.0,0.0,0.0,0.0,0.0,0.0,0.0,0.0,0.0,0.0,0.0,0.0,0.0,0.0,0.0,0.0,0.0,0.0,0.0,0.0,0.0,2.7282,2.7296,2.7309,0.0,0.0,0.0,0.0,0.0,0.0,0.0,0.0,0.0,2.7322,2.7509,2.7682,2.7696,2.7978,2.8152,2.8165,2.8165,2.8179,2.8179,2.8192,2.8192,0.0,0.0,0.0,0.0,0.0,0.0,0.0,0.0,0.0,0.0,0.0,0.0,0.0,0.0,0.0,0.0,0.0,0.0,0.0,0.0,0.0,0.0,0.0,0.0,0.0,0.0,0.0,2.6974,2.7015,0.0,0.0,0.0,0.0,0.0,0.0,0.0,0.0,0.0,2.7015,0.0,2.6974,2.7015,0.0,0.0,0.0,0.0,0.0,0.0,0.0,0.0,0.0,0.0,0.0,0.0,2.64,2.64,2.6573,2.668,2.668,2.6907,2.7015,2.6974,2.7015,2.7015,2.7015,0.0,0.0,0.0,0.0,0.0,0.0,0.0,0.0,0.0,0.0,0.0,0.0,0.0,0.0,0.0,0.0,0.0,0.0,0.0,0.0,0.0,0.0,0.0,0.0,0.0,2.7389,0.0,0.0,0.0,0.0,0.0,0.0,0.0,0.0,0.0,0.0,2.7764,2.7898,2.7884,2.7978,2.8045,2.8031,2.8112,2.8192,0.0,0.0,0.0,0.0,0.0,0.0,0.0,0.0,0.0,0.0,0.0,0.0,0.0,0.0,2.8192,2.8192,2.8529,2.895,2.9398,0.0,0.0,0.0,0.0,0.0,0.0,0.0,0.0,0.0,0.0,0.0,0.0,0.0,0.0,2.7309,2.7309,2.7309,2.7309,0.0,0.0,0.0,0.0,0.0,0.0,0.0,2.7309,2.7309,2.7309,2.7309,2.7309,2.7309,2.7309,2.7108,0.0,0.0,0.0,0.0,0.0,0.0,0.0,0.0,2.6734,2.6707,2.6881,2.6974,2.6987,2.7161,2.7309,2.7309,2.7309,2.7309,2.7309,2.7309,2.7309,0.0,0.0,0.0,0.0,0.0,0.0,0.0,0.0,0.0,0.0,0.0,0.0,0.0,0.0,0.0,0.0,0.0,0.0,0.0,0.0,0.0,0.0,0.0,2.7697,0.0,0.0,0.0,0.0,0.0,0.0,0.0,0.0,0.0,2.7883,2.8058,2.8192,2.8192,2.8192,2.8192,2.8192,0.0,0.0,0.0,0.0,0.0,0.0,0.0,2.8379,2.8486,2.85,2.85,2.85,2.85,2.85,2.85,0.0,0.0,2.8232,2.8529,2.895,2.9398,2.9872,3.0304,3.0734,3.1414,3.2009,0.0,0.0,0.0,0.0,2.7336,0.0,0.0,0.0,2.7349,2.7349,0.0,2.7349,0.0,0.0,0.0,0.0,2.7336,2.7349,0.0,0.0,2.7349,2.7336,2.7349,2.7349,2.7336,2.7336,2.7349,2.7336,2.7336,2.7336,2.7322,0.0,0.0,0.0,0.0,0.0,2.7309,2.7296,2.7309,2.7322,2.7322,2.7336,2.7336,2.7349,2.7349,2.7349,2.7336,2.7349,2.7336,2.7336,2.7575,0.0,0.0,0.0,0.0,0.0,0.0,0.0,0.0,0.0,0.0,0.0,0.0,0.0,0.0,0.0,0.0,0.0,0.0,0.0,0.0,2.8192,0.0,0.0,0.0,0.0,0.0,0.0,0.0,0.0,0.0,2.8205,2.8232,2.8205,2.8192,2.8192,0.0,0.0,0.0,0.0,2.8219,2.8219,2.8219,2.8326,2.8577,2.8617,2.8711,2.8935,0.0,0.0,2.8988,2.8988,2.8975,2.8988,2.8961,2.8858,2.8326,2.8583,2.9005,2.9453,2.9943,3.0333,3.0778,3.1295,3.1738,2.7938,0.0,0.0,0.0,0.0,2.7938,2.7938,2.7938,2.7938,2.7924,2.7938,2.7938,0.0,0.0,0.0,0.0,0.0,0.0,2.7938,2.7938,2.7938,2.7938,2.7938,2.7924,2.7938,2.7938,2.7938,2.7924,2.7938,2.7938,2.7724,2.7309,0.0,0.0,0.0,0.0,2.7309,2.7322,2.751,2.7575,2.7575,2.7831,2.7924,2.7938,2.7938,2.7938,2.7924,2.7938,2.7938,2.7938,2.8018,0.0,0.0,0.0,0.0,0.0,0.0,0.0,0.0,0.0,0.0,0.0,0.0,0.0,0.0,0.0,0.0,0.0,0.0,0.0,2.8192,2.8192,2.8192,0.0,0.0,0.0,0.0,0.0,0.0,0.0,0.0,0.0,2.8751,2.8446,2.8192,0.0,0.0,2.847,2.847,2.8644,2.8778,2.8778,2.8791,0.0,2.8898,2.8868,2.8908,2.8988,2.9001,2.9001,2.9001,2.9001,2.9001,2.9001,2.9001,2.8935,2.8831,2.9122,2.9582,3.0054,3.0496,3.0966,3.1434,3.1902,3.2227,2.854,2.847,2.8286,2.8245,2.8366,2.8366,2.8433,2.8497,2.854,2.8497,2.8497,2.8497,2.8473,2.8366,2.8232,0.0,0.0,0.0,2.8192,2.8192,2.8192,2.8192,2.8192,2.8192,2.8192,2.8192,2.8192,2.8192,2.8192,2.8192,2.8005,2.767,0.0,2.7657,2.7657,2.7657,2.7657,2.7657,2.7831,2.7869,2.7924,2.8098,2.8192,2.8192,2.8192,2.8192,2.8192,2.8192,2.8192,2.8192,2.8192,2.8192,0.0,0.0,0.0,0.0,0.0,0.0,0.0,0.0,0.0,0.0,0.0,2.8192,2.8192,0.0,0.0,0.0,2.8299,2.8366,2.8379,2.8473,0.0,0.0,0.0,0.0,0.0,0.0,0.0,2.8764,2.8735,2.8801,2.8961,2.8724,2.8497,2.8497,2.8657,2.8735,2.8778,0.0,2.9001,2.9001,2.9001,2.9041,2.9148,2.9175,2.9245,2.9335,2.9348,2.9348,2.9348,2.9348,2.9348,2.9392,2.9348,2.9335,2.9348,2.9599,2.9855,3.0115,3.0506,3.098,3.1411,3.1883,3.2269,2.9001,2.8948,2.8444,2.8419,2.8644,2.8644,2.8791,2.8988,2.8988,2.9001,2.9001,2.9001,2.8855,2.8631,2.8393,0.0,2.8245,2.8259,2.8272,2.8259,2.8259,2.8259,2.8259,2.8259,2.8259,2.8259,2.8259,2.8259,2.8259,2.8259,2.8259,2.8259,2.8259,2.8232,2.8192,2.8179,2.8192,2.8179,2.8179,2.8179,2.8192,2.8205,2.8219,2.8219,2.8245,2.8259,2.8259,2.8259,2.8259,2.8259,2.8259,2.8245,2.8259,0.0,0.0,0.0,0.0,0.0,0.0,0.0,0.0,0.0,0.0,0.0,0.0,0.0,0.0,2.8259,2.847,0.0,2.8644,2.8841,0.0,0.0,0.0,2.9001,2.9001,2.9001,2.9001,2.9028,0.0,0.0,2.9068,2.9068,2.9068,2.9068,2.9041,2.9028,2.9028,2.9068,2.9068,2.9108,2.9081,2.9175,2.9472,2.9513,2.9593,2.982,2.9913,2.9887,2.9873,2.9887,2.99,2.9873,2.9913,2.99,2.99,2.9873,2.9873,2.9787,3.0113,3.0576,3.1065,3.1541,3.1987,2.9001,2.8988,2.8841,2.8828,2.8881,2.8895,2.8935,2.8988,2.9001,2.9001,2.9001,2.9001,2.8948,2.8895,2.8815,2.8818,2.8831,2.8818,2.8818,2.8831,2.8788,2.8831,2.8818,2.8831,2.8831,2.8831,2.8788,2.8818,2.8831,2.8831,2.8831,2.8831,2.8788,2.8604,2.8205,2.8192,2.8192,2.8192,2.8192,2.8192,2.8192,2.8419,2.8497,2.8497,2.8711,2.8831,2.8818,2.8788,2.8831,2.8831,2.8818,2.8831,2.8831,2.8831,0.0,0.0,0.0,0.0,0.0,0.0,0.0,0.0,0.0,2.8788,2.8788,0.0,2.8831,0.0,2.8855,2.8895,2.8895,2.8948,0.0,0.0,2.9001,2.9001,2.9001,2.9001,2.9081,2.9352,2.9379,2.9459,2.9686,2.97,2.9655,2.97,2.9513,2.9379,2.9392,2.9579,2.9655,2.97,2.9686,2.9726,2.978,2.982,2.9833,2.99,2.9913,2.9913,2.9913,2.9913,2.9913,2.9913,2.9913,2.9913,2.9913,2.9913,2.9873,2.9873,3.0233,3.0663,3.1149,3.1591,3.2002,2.9388,2.9388,2.9432,2.9388,2.9419,2.9299,2.9312,2.9388,2.9388,2.9432,2.9388,2.9255,2.9232,2.9188,2.9055,2.9001,2.9001,2.9001,2.9001,2.9001,2.9001,2.9001,2.9001,2.9001,2.9001,2.9001,2.9001,2.9001,2.9001,2.9001,2.9001,2.9001,2.9001,2.8871,2.8551,2.8537,2.8537,2.8537,2.8537,2.8551,2.8551,2.8711,2.8804,2.8761,2.8908,2.9001,2.9001,2.9001,2.9001,2.9001,2.9001,2.9001,2.9001,2.9001,2.9001,0.0,0.0,0.0,0.0,0.0,0.0,0.0,0.0,0.0,0.0,0.0,2.9001,2.9001,2.9152,2.9188,2.9232,2.9308,2.9388,2.9432,2.9388,2.9388,2.9388,2.9375,2.9442,2.9659,2.9673,2.974,2.99,2.9913,2.9913,2.9913,2.978,2.9673,2.9686,2.982,2.9913,2.9913,2.9913,2.9913,2.9913,2.9913,2.9913,2.9913,2.9913,2.9913,2.9913,2.9913,2.9913,2.9913,2.9913,2.9913,2.9913,2.9913,2.9913,2.9958,3.0137,3.0437,3.0884,3.1374,3.1685,2.9913,2.9913,2.9913,2.9913,2.99,2.9646,2.9686,2.9913,2.9913,2.9913,2.99,2.9646,2.9539,2.9513,2.9228,2.9108,2.9108,2.9108,2.9108,2.9108,2.9108,2.9108,2.9108,2.9108,2.9108,2.9108,2.9108,2.9108,2.9108,2.9108,2.9108,2.9108,2.9108,2.9108,2.9108,2.9108,2.9068,2.9001,2.9001,2.9001,2.9001,2.9028,2.9055,2.9055,2.9081,2.9108,2.9108,2.9108,2.9108,2.9108,2.9108,2.9108,2.9108,2.9108,2.9108,0.0,2.9108,0.0,0.0,0.0,0.0,0.0,0.0,0.0,0.0,2.9108,2.9108,2.9108,2.9379,2.9539,2.9539,2.9766,2.9913,2.9913,2.9913,2.9913,2.9913,2.9913,2.9913,2.9913,2.9953,2.998,2.998,2.9993,3.0034,3.006,3.006,3.006,3.0034,3.0007,2.9993,2.9967,3.0007,3.01,3.0087,3.006,3.006,3.0047,3.0074,3.002,3.006,3.006,3.0002,3.0047,3.0074,3.006,3.0034,3.0047,3.0047,3.0074,3.0074,3.0214,3.0464,3.0884,3.1182,2.9913,2.9913,2.9913,2.9913,2.9913,2.986,2.9873,2.9913,2.9913,2.9913,2.9913,2.986,2.9833,2.9833,2.978,2.9708,2.9708,2.9708,2.9708,2.9753,2.9753,2.9708,2.9753,2.9753,2.9708,2.9753,2.9753,2.9753,2.9753,2.9753,2.9753,2.9708,2.9753,2.9753,2.9753,0.0,0.0,0.0,2.9001,2.9001,2.9001,2.9272,2.9406,2.9406,2.9633,0.0,2.9708,2.9753,2.9753,2.9708,2.9708,0.0,0.0,0.0,0.0,0.0,0.0,0.0,0.0,0.0,0.0,0.0,2.9806,2.9708,2.9753,2.9708,2.9753,2.9753,2.9806,2.9833,2.9833,2.9887,2.9913,2.9913,2.9913,2.9913,2.9913,2.9913,2.9913,2.9913,3.0127,3.0319,3.0333,3.0474,3.0621,3.0595,3.0621,3.0621,3.0608,3.0408,3.0333,3.0287,3.0448,3.0608,3.0621,3.0608,3.0568,3.0621,3.0621,3.0608,3.0595,3.0608,3.0621,3.0608,3.0621,3.0608,3.0608,3.0621,3.0595,3.0621,3.0621,3.0474,3.011,3.0406,3.075,3.0221,3.0341,3.0341,3.0341,0.0,3.0341,3.0354,3.0341,3.0034,2.9913,2.9913,2.9913,2.9913,2.9913,2.9913,2.9913,2.9913,2.9913,2.9913,2.9913,2.9913,2.9913,2.9913,2.9913,2.9913,2.9913,2.9913,2.9913,2.9913,2.9913,2.9913,2.9913,2.9913,2.9913,2.9913,2.9913,2.9766,2.9472,2.9428,2.9472,2.9472,2.9619,2.97,2.97,2.9847,0.0,0.0,0.0,0.0,0.0,0.0,0.0,0.0,2.9913,2.9913,2.9913,2.9913,2.9913,2.9913,2.9913,2.998,3.0127,3.0261,3.0221,2.994,2.9913,2.9913,2.9913,2.9913,2.998,3.0114,3.014,3.0194,3.0327,3.0341,3.0354,3.0354,3.0341,3.0341,3.0368,3.052,3.0614,3.0627,3.0688,3.0782,3.0795,3.0795,3.0795,3.0782,3.0675,3.0627,3.0581,3.0688,3.0782,3.0795,3.0795,3.0795,3.0795,3.0795,3.0795,3.0795,3.0795,3.0795,3.0795,3.0795,3.0795,3.0795,3.0795,3.0795,3.0795,3.0795,3.0715,3.0394,3.046,3.0434,3.0581,3.0795,3.0795,3.0795,3.0795,3.0795,3.0795,3.0755,3.0274,0.0,3.0074,3.0029,3.0074,3.0074,3.0074,3.0074,3.0074,3.0074,3.0074,3.0074,3.0074,3.0074,3.0074,3.006,3.0074,3.0074,3.0074,3.0074,3.0074,3.0074,3.0074,3.0074,3.0074,3.006,3.0074,3.0074,3.0074,3.0074,2.9967,2.9913,2.9913,2.9913,2.9913,2.9913,2.9913,2.994,2.9993,2.9993,3.002,3.006,3.0074,3.0074,3.0074,3.0074,3.0074,3.0074,3.0074,3.0074,3.0074,3.0074,3.0181,3.0421,3.0707,3.0595,3.0114,3.0074,3.0074,3.0074,3.0074,3.0181,3.0467,3.048,3.0574,3.0768,3.0795,3.0782,3.0782,3.0795,3.0768,3.0795,3.0822,3.0862,3.0875,3.0942,3.0955,3.0955,3.0996,3.0942,3.0942,3.0915,3.0902,3.0969,3.1022,3.0982,3.0955,3.0982,3.0955,3.0996,3.0982,3.0955,3.0955,3.0942,3.0942,3.0996,3.0942,3.0969,3.0969,3.0996,3.0942,3.0942,3.0942,3.0929,3.0862,3.0688,3.0493,3.0755,3.0795,3.0795,3.0795,3.0795,3.0795,3.0795,3.0782,3.0702,3.0675,3.0662,3.0675,3.0675,3.0675,3.0662,3.0675,3.0675,3.0675,3.0662,3.0662,3.0662,3.0675,3.0675,3.0675,3.0675,3.0675,3.0662,3.0675,3.0662,3.0662,3.0675,3.0662,3.0675,3.0662,3.0675,3.0675,3.0675,3.0662,3.0181,2.9913,2.9913,2.9913,2.9913,2.9913,2.9927,3.0034,3.0287,3.0346,3.0453,3.0648,3.0675,3.0675,3.0675,3.0662,3.0675,3.0675,3.0675,3.0675,3.0662,3.0662,3.0688,3.0728,3.0768,3.0755,3.0675,3.0675,3.0675,3.0662,3.0635,3.0688,3.0728,3.0728,3.0755,3.0808,3.0795,3.0795,3.0822,3.0822,3.0835,3.0835,3.1009,3.1169,3.1183,3.137,3.1537,3.1577,3.1497,3.1564,3.145,3.133,3.1289,3.1476,3.1543,3.1543,3.1524,3.1591,3.1537,3.1591,3.155,3.1476,3.1524,3.1476,3.1476,3.1577,3.1476,3.155,3.1503,3.1591,3.155,3.1476,3.1524,3.147,3.1209,3.1102,3.0982,3.1129,3.1263,3.1263,3.131,3.1263,3.1263,3.131,3.1263,3.1323,3.1089,3.0808,3.0795,3.0795,3.0795,3.0795,3.0795,3.0795,3.0795,3.0795,3.0795,3.0795,3.0795,3.0795,3.0795,3.0795,3.0795,3.0795,3.0795,3.0795,3.0795,3.0795,3.0795,3.0795,3.0795,3.0795,3.0795,3.0795,3.0782,3.0528,3.0394,3.0394,3.0394,3.0394,3.0394,3.0394,3.0448,3.0641,3.0595,3.0662,3.0795,3.0795,3.0795,3.0795,3.0795,3.0795,3.0795,3.0795,3.0795,3.0795,3.0942,3.1022,3.1036,3.1183,3.1263,3.131,3.0969,3.0795,3.0795,3.0795,3.0862,3.1009,3.1022,3.1089,3.1296,3.131,3.1276,3.1263,3.1263,3.1263,3.1276,3.1383,3.1463,3.1463,3.1583,3.1724,3.1724,3.1724,3.1724,3.1724,3.157,3.1503,3.1637,3.1724,3.1724,3.1724,3.1724,3.1724,3.1724,3.1724,3.1724,3.1724,3.1724,3.1724,3.1724,3.1724,3.1724,3.1724,3.1724,3.1724,3.1724,3.1724,3.1597,3.149,3.1463,3.1303,3.1463,3.1724,3.1724,3.1724,3.1724,3.1724,3.1724,3.1724,3.1711,3.141,3.1022,3.0996,3.0996,3.0996,3.0996,3.0996,3.0982,3.0996,3.0996,3.0996,3.0996,3.0996,3.0996,3.0982,3.0996,3.0982,3.0996,3.0996,3.0996,3.0996,3.0996,3.0996,3.0982,3.0996,3.0982,3.0982,3.0996,3.0996,3.0996,3.0929,3.0795,3.0795,3.0795,3.0795,3.0782,3.0822,3.0889,3.0889,3.0929,3.0982,3.0996,3.0996,3.0996,3.0996,3.0982,3.0982,3.0996,3.0996,3.1009,3.1196,3.133,3.133,3.1543,3.1724,3.1684,3.131,3.0982,3.0996,3.1009,3.1102,3.1276,3.133,3.1423,3.1684,3.1724,3.1684,3.1711,3.1724,3.1724,3.1724,3.1724,3.1711,3.1724,3.1724,3.1724,3.1724,3.1724,3.1724,3.1724,3.1724,3.1724,3.1724,3.1724,3.1724,3.1724,3.1724,3.1724,3.1724,3.1724,3.1724,3.1724,3.1724,3.1724,3.1724,3.1724,3.1724,3.1724,3.1724,3.1724,3.1724,3.1724,3.1711,3.1698,3.1698,3.1591,3.1684,3.1711,3.1724,3.1724,3.1724,3.1724,3.1724,3.1724,3.1724,3.1698,3.1604,3.1631,3.1617,3.1631,3.1617,3.1604,3.157,3.1631,3.1617,3.1617,3.1644,3.1631,3.1604,3.1617,3.1631,3.1617,3.1604,3.1577,3.1591,3.1604,3.157,3.1631,3.1583,3.1617,3.157,3.1617,3.1631,3.1631,3.1644,3.1376,3.0822,3.0795,3.0795,3.0795,3.0795,3.0915,3.1169,3.1136,3.1303,3.1604,3.1617,3.1631,3.1631,3.1631,3.1631,3.1631,3.1631,3.1644,3.1631,3.1657,3.1671,3.1671,3.1698,3.1724,3.1724,3.1657,3.1583,3.1604,3.1617,3.157,3.1671,3.1671,3.1623,3.1698,3.1724,3.1724,3.1724,3.1724,3.1724,3.1724,3.1724,3.1724,3.1724,3.1724,3.1724,3.1724,3.1724,3.1724,3.1724,3.1724,3.1724,3.1724,3.1724,3.1724,3.1724,3.1724,3.1724,3.1724,3.1724,3.1724,3.1724,3.1724,3.1724,3.1724,3.1724,3.1724,3.1724,3.1724,3.1724,3.1724,3.1724,3.1724,3.1724,3.1724,3.1644,3.1724,3.1724,3.1724,3.1724,3.1724,3.1724,3.1724,3.1724,3.1724,3.1724,3.1724,3.1724,3.1724,3.1724,3.1724,3.1724,3.1724,3.1724,3.1724,3.1724,3.1724,3.1724,3.1724,3.1724,3.1724,3.1724,3.1724,3.1724,3.1724,3.1724,3.1724,3.1724,3.1724,3.1724,3.1724,3.1724,3.1724,3.1724,3.1724,3.1591,3.1343,3.1316,3.1316,3.1363,3.1316,3.1356,3.1476,3.149,3.1543,3.1711,3.1724,3.1724,3.1724,3.1724,3.1724,3.1724,3.1724,3.1724,3.1724,3.1724,3.1724,3.1724,3.1724,3.1724,3.1724,3.1724,3.1724,3.1724,3.1724,3.1724,3.1724,3.1724,3.1724,3.1724,3.1724,3.1724,3.1724,3.1724,3.1724,3.1724,3.1724,3.1724,3.1724,3.1724,3.1724,3.1724,3.1724,3.1724,3.1724,3.1724,3.1724,3.1724,3.1724,3.1724,3.1724,3.1724,3.1724,3.1724,3.1724,3.1724,3.1724,3.1724,3.1724,3.1724,3.1724,3.1724,3.1724,3.1724,3.1724,3.1724,3.1724,3.1724,3.1724,3.1724,3.1724,3.1724,3.1724,3.1724,3.1724,3.1724,3.1724,3.1724,3.1724,3.1724,3.1724,3.1724,3.1724,3.1724,3.1724,3.1724,3.1724,3.1724,3.1724,3.1724,3.1724,3.1724,3.1724,3.1724,3.1724,3.1724,3.1724,3.1724,3.1724,3.1724,3.1724,3.1724,3.1724,3.1724,3.1724,3.1724,3.1724,3.1724,3.1724,3.1724,3.1724,3.1711,3.1724,3.1724,3.1724,3.1724,3.1724,3.1724,3.1724,3.1724,3.1724,3.1724,3.1724,3.1724,3.1724,3.1724,3.1724,3.1724,3.1724,3.1724,3.1724,3.1724,3.1724,3.1724,3.1724,3.1724,3.1724,3.1724,3.1724,3.1724,3.1724,3.1724,3.1724,3.1724,3.1724,3.1724,3.1724,3.1724,3.1724,3.1724,3.1724,3.1724,3.1724,3.1724,3.1724,3.1724,3.1724,3.1724,3.1724,3.1724,3.1724,3.1724,3.1724,3.1724,3.1724,3.1724,3.1724,3.1724,3.1724,3.1724,3.1724,3.1724,3.1724,3.1724,3.1724,3.1724,3.1724,3.1724,3.1724,3.1724,3.1724,3.1724,3.1724,3.1724,3.1724,3.1724,3.1724,3.1724,3.1724,3.1724,3.1724,3.1724,3.1724,3.1724,3.1724,3.1724,3.1724,3.1724,3.1724,3.1724,3.1724,3.1724,3.1724,3.1724,3.1724,3.1724,3.1724,3.1724,3.1724,3.1724,3.1724,3.1724,3.1724,3.1724,3.1724,3.1724,3.1724,3.1724,3.1724,3.1724,3.1724,3.1724,3.1724,3.1724,3.1724,3.1724,3.1724,3.1724,3.1724,3.1724,3.1724,3.1724,3.1724,3.1724,3.1724,3.1724,3.1724,3.1724,3.1724,3.1724,3.1724,3.1724,3.1724,3.1724,3.1724,3.1724,3.1724,3.1724,3.1724,3.1724,3.1764,3.1717,3.1778,3.1738,3.1791,3.1778,3.1778,3.1751,3.1738,3.1751,3.169,3.1738,3.1751,3.1805,3.1738,3.1764,3.1791,3.1818,3.1764,3.1724,3.1778,3.1791,3.1751,3.1778,3.1818,3.1778,3.1791,3.1791,3.1778,3.1724,3.1738,3.1724,3.1724,3.1724,3.1724,3.1724,3.1724,3.1724,3.1724,3.1724,3.1724,3.1724,3.1724,3.1724,3.1724,3.1724,3.1724,3.1724,3.1724,3.1724,3.1724,3.1724,3.1724,3.1724,3.1724,3.1724,3.1724,3.1724,3.1724,3.1724,3.1724,3.1724,3.1724,3.1724,3.1724,3.1724,3.1724,3.1724,3.1724,3.1724,3.1724,3.1724,3.1724,3.1724,3.1724,3.1724,3.1724,3.1724,3.1724,3.1724,3.1724,3.1724,3.1724,3.1724,3.1724,3.1724,3.1724,3.1724,3.1724,3.1724,3.1724,3.1724,3.1724,3.1724,3.1724,3.1724,3.1724,3.1724,3.1724,3.1724,3.1724,3.1724,3.1724,3.1724,3.1724,3.1724,3.1724,3.1724,3.1724,3.1724,3.1724,3.1724,3.1724,3.1724,3.177,3.1904,3.1957,3.2024,3.2219,3.2273,3.2273,3.2193,3.1952,3.1744,3.1904,3.1944,3.2072,3.2233,3.2273,3.2286,3.2286,3.2273,3.2286,3.2246,3.2273,3.2273,3.2273,3.2273,3.226,3.2273,3.2273,3.2246,3.2273,3.2286,3.2273,3.2286,3.1925,3.1724,3.1724,3.1724,3.1738,3.1751,3.1791,3.1805,3.1831,3.1805,3.1751,3.1751,3.1724,3.1724,3.1724,3.1724,3.1724,3.1724,3.1724,3.1724,3.1724,3.1724,3.1724,3.1724,3.1724,3.1724,3.1724,3.1724,3.1724,3.1724,3.1724,3.1724,3.1724,3.1724,3.1724,3.1724,3.1724,3.1724,3.1724,3.1724,3.1724,3.1724,3.1724,3.1724,3.1724,3.1724,3.1724,3.1724,3.1724,3.1724,3.1724,3.1724,3.1724,3.1724,3.1724,3.1724,3.1724,3.1724,3.1805,3.181,3.181,3.1952,3.2005,3.1992,3.2005,3.1898,3.1738,3.1724,3.1724,3.1724,3.1724,3.1724,3.1724,3.1724,3.1764,3.1845,3.1858,3.1864,3.1992,3.2005,3.2005,3.2005,3.2005,3.2099,3.2225,3.2251,3.2407,3.2541,3.2594,3.2594,3.2527,3.2233,3.2086,3.2211,3.2251,3.2367,3.2554,3.2581,3.2581,3.2554,3.2554,3.2567,3.2594,3.2581,3.2567,3.2594,3.2594,3.2594,3.2594,3.2594,3.2594,3.2594,3.2554,3.2541,3.2514,3.2246,3.2126,3.2112,3.2045,3.1979,3.1925,3.1952,3.1952,3.1965,3.1912,3.1831,3.1778,3.1738,3.1738,3.1751,3.1724,3.1724,3.1724,3.1724,3.1724,3.1751,3.1764,3.1738,3.1791,3.1805,3.1805,3.1751,3.1791,3.1778,3.1818,3.1845,3.1778,3.1818,3.1778,3.1831,3.1764,3.1805,3.1818,3.1764,3.1724,3.1724,3.1724,3.1724,3.1724,3.1738,3.1764,3.1751,3.1764,3.1805,3.1818,3.1805,3.1764,3.1757,3.1831,3.1751,3.1805,3.1778,3.1845,3.1998,3.2104,3.2131,3.2393,3.25,3.2527,3.2527,3.2286,3.1791,3.1778,3.1805,3.1778,3.1778,3.1738,3.1791,3.1805,3.1872,3.2064,3.2104,3.2251,3.2514,3.2527,3.25,3.25,3.2554,3.2527,3.2581,3.2594,3.2621,3.2688,3.2688,3.2661,3.2674,3.2634,3.2594,3.2607,3.2607,3.2607,3.2648,3.2621,3.2607,3.2661,3.2688,3.2634,3.2621,3.2701,3.2728,3.2714,3.2701,3.2714,3.2741,3.2741,3.2648,3.2661,3.2741,3.2808,3.2714,3.2607,3.2607,3.2594,3.25,3.242,3.2353,3.2353,3.2326,3.2313,3.2219,3.2139,3.2032,3.1992,3.1952,3.1938,3.1845,3.1805,3.1805,3.1818,3.1738,3.2326,3.2326,3.2326,3.2326,3.2313,3.2326,3.2326,3.2313,3.2313,3.2326,3.2326,3.2326,3.2326,3.2313,3.2326,3.2313,3.2326,3.2313,3.2112,3.1791,3.1738,3.1738,3.1738,3.1724,3.1784,3.1971,3.2233,3.2313,3.2313,3.2313,3.2326,3.2326,3.2313,3.2326,3.23,3.2326,3.2326,3.2326,3.2407,3.246,3.246,3.2554,3.2594,3.2594,3.2594,3.25,3.234,3.2326,3.2326,3.2313,3.2313,3.2313,3.2313,3.2326,3.2367,3.2447,3.246,3.2474,3.2567,3.2607,3.2621,3.2594,3.2607,3.2701,3.2862,3.2888,3.2933,3.308,3.3146,3.3146,3.3133,3.3133,3.304,3.2915,3.2888,3.2919,3.3053,3.312,3.3133,3.3146,3.3146,3.3146,3.3133,3.312,3.3093,3.3093,3.3106,3.3106,3.312,3.308,3.3133,3.3146,3.3133,3.3053,3.3,3.2959,3.2973,3.2942,3.2848,3.2781,3.2741,3.2714,3.2688,3.2607,3.2514,3.242,3.2313,3.2246,3.2206,3.2193,3.2166,3.2099,3.1971,3.1856,3.1768,3.2594,3.2594,3.2594,3.2594,3.2594,3.2594,3.2594,3.2594,3.2594,3.2594,3.2581,3.2594,3.2594,3.2594,3.2594,3.2594,3.2594,3.2594,3.2407,3.2086,3.2045,3.2045,3.2045,3.2045,3.2126,3.2265,3.25,3.2594,3.2594,3.2594,3.2594,3.2581,3.2594,3.2581,3.2594,3.2594,3.2594,3.2607,3.2701,3.2755,3.2781,3.2862,3.2915,3.2915,3.2915,3.2915,3.2866,3.2915,3.2808,3.2634,3.2594,3.2594,3.2594,3.2581,3.2634,3.2741,3.2768,3.2795,3.2902,3.2955,3.2915,3.2866,3.2866,3.2982,3.3106,3.3133,3.324,3.3374,3.3387,3.3414,3.34,3.34,3.332,3.3173,3.3133,3.3213,3.3387,3.3414,3.34,3.3374,3.3387,3.3414,3.3414,3.3414,3.3414,3.3414,3.3414,3.3414,3.3414,3.3387,3.34,3.34,3.3347,3.332,3.3374,3.3374,3.3374,3.3253,3.3106,3.3053,3.3,3.3049,3.3036,3.2875,3.2768,3.2634,3.2541,3.25,3.246,3.2474,3.2328,3.2235,3.2045,3.1847,3.1636,3.2648,3.2648,3.2648,3.2688,3.2688,3.2688,3.2701,3.2674,3.2674,3.2701,3.2688,3.2728,3.2701,3.2674,3.2741,3.2741,3.2661,3.2714,3.2728,3.2661,3.2634,3.2607,3.25,3.2527,3.2581,3.2621,3.2674,3.2688,3.2741,3.2728,3.2648,3.2714,3.2728,3.2661,3.2728,3.2661,3.2714,3.2768,3.2942,3.3,3.3013,3.3227,3.336,3.336,3.3347,3.3334,3.332,3.3307,3.312,3.2728,3.2714,3.2728,3.2674,3.2648,3.2822,3.2986,3.3,3.312,3.332,3.332,3.332,3.332,3.332,3.3414,3.336,3.3347,3.336,3.34,3.3414,3.3414,3.3414,3.3414,3.34,3.34,3.336,3.3387,3.34,3.3414,3.3414,3.3414,3.3414,3.3414,3.3414,3.3414,3.3414,3.3414,3.3414,3.3414,3.3414,3.3414,3.3414,3.3414,3.3414,3.3414,3.3414,3.3414,3.3414,3.3374,3.3267,3.319,3.3177,3.3227,3.324,3.3093,3.2811,3.2727,3.2687,3.254,3.2464,3.2317,3.2215,3.2159,3.1982,3.1672,3.1422,3.3187,3.3187,3.3187,3.3187,3.3187,3.3187,3.3173,3.3187,3.3173,3.3146,3.3173,3.3187,3.3146,3.3173,3.3173,3.3187,3.3146,3.316,3.3187,3.3187,3.3187,3.2919,3.2728,3.2822,3.2915,3.2929,3.304,3.3187,3.3187,3.3133,3.3146,3.3187,3.3133,3.316,3.3187,3.3146,3.3187,3.3187,3.324,3.328,3.3293,3.3347,3.3414,3.3414,3.3414,3.3414,3.3414,3.3414,3.336,3.3213,3.3187,3.3187,3.3146,3.3146,3.3173,3.324,3.328,3.3307,3.3387,3.3414,3.3414,3.3414,3.3414,3.3414,3.3414,3.3414,3.3414,3.3414,3.3414,3.3414,3.3414,3.3414,3.3414,3.3414,3.344,3.3427,3.3414,3.3414,3.3414,3.3414,3.3414,3.3414,3.3414,3.3414,3.3414,3.3414,3.3414,3.3414,3.3414,3.3414,3.3414,3.3414,3.3414,3.3414,3.3414,3.3414,3.3414,3.3414,3.3324,3.326,3.3247,3.3247,3.331,3.3307,3.2728,3.251,3.244,3.2329,3.224,3.2123,3.1946,3.1793,3.1555,3.133,3.1103,3.3414,3.3414,3.3414,3.3414,3.3414,3.3414,3.3414,3.3414,3.3414,3.3414,3.3414,3.3414,3.3414,3.3414,3.34,3.34,3.3414,3.3414,3.34,3.34,3.3387,3.3213,3.3013,3.3106,3.316,3.3173,3.3334,3.3387,3.34,3.3414,3.3414,3.3387,3.3414,3.3414,3.3387,3.3414,3.3414,3.34,3.3414,3.3414,3.3414,3.3414,3.3414,3.3414,3.3414,3.3414,3.3414,3.3414,3.3414,3.34,3.34,3.3414,3.3414,3.3414,3.3414,3.3414,3.3414,3.34,3.3414,3.3414,3.3414,3.3414,3.3414,3.3414,3.3414,3.3414,3.3414,3.3414,3.3414,3.3414,3.3414,3.3414,3.348,3.3601,3.3614,3.3561,3.344,3.3414,3.3414,3.3414,3.3414,3.3414,3.3414,3.3414,3.3414,3.3414,3.3414,3.3414,3.3414,3.3364,3.3353,3.3343,3.328,3.3216,3.3052,3.3002,3.2825,3.2875,3.2762,3.2862,3.2862,3.2862,3.2812,3.2699,3.241,3.2209,3.2008,3.197,3.202,3.1867,3.1616,3.1365,3.1139,3.0802,3.0615,3.3414,3.3414,3.3414,3.3414,3.3414,3.3414,3.3414,3.3414,3.3414,3.3414,3.3414,3.3414,3.3414,3.3414,3.3414,3.3414,3.3414,3.3414,3.3414,3.3414,3.3414,3.3347,3.3334,3.3334,3.336,3.3374,3.34,3.3414,3.3414,3.3414,3.3414,3.3414,3.3414,3.3414,3.3414,3.3414,3.3414,3.3414,3.3414,3.3414,3.3414,3.3414,3.3414,3.3414,3.3414,3.3414,3.3414,3.3414,3.3414,3.3414,3.3414,3.3414,3.3414,3.3414,3.3414,3.3414,3.3414,3.3414,3.3414,3.3414,3.3414,3.3414,3.3414,3.3414,3.3414,3.3414,3.344,3.3521,3.3467,3.3534,3.3587,3.3547,3.3681,3.3881,3.3921,3.3686,3.3487,3.3444,3.3507,3.3507,3.3521,3.3507,3.3507,3.3507,3.3484,3.3444,3.3404,3.3316,3.3215,3.3076,3.3114,3.3176,3.3123,3.3044,3.2816,3.2589,3.2311,3.2134,3.197,3.1907,3.2008,3.2008,3.197,3.187,3.187,3.1655,3.1454,3.1454,3.1416,3.11,3.0509,3.0647,3.0722,3.0283,2.996,3.3414,3.3414,3.3414,3.3414,3.3414,3.3414,3.3414,3.3414,3.3414,3.3414,3.3414,3.3414,3.3414,3.3414,3.3414,3.3414,3.3414,3.3414,3.3414,3.3414,3.3414,3.3414,3.3414,3.3414,3.3414,3.3414,3.3414,3.3414,3.3414,3.3414,3.3414,3.3414,3.3414,3.3414,3.3414,3.3414,3.3414,3.3414,3.3414,3.3414,3.3414,3.3414,3.3414,3.3414,3.3414,3.3414,3.3414,3.3414,3.3414,3.3414,3.3414,3.3414,3.3414,3.3414,3.3414,3.3414,3.3414,3.3414,3.3414,3.3414,3.3414,3.344,3.3454,3.3414,3.3414,3.3454,3.3561,3.3708,3.3788,3.3868,3.3913,3.4057,3.4033,3.3984,3.3767,3.3599,3.3585,3.3802,3.3915,3.398,3.398,3.4071,3.4057,3.3902,3.3813,3.3546,3.3379,3.3238,3.3058,3.2866,3.2865,3.2954,3.2916,3.28,3.2417,3.2086,3.1679,3.1387,3.1147,3.0957,3.1059,3.115,3.1073,3.12,3.1416,3.1113,3.0595,3.024,3.0049,2.9694,2.9491,2.9491,2.9542,2.935,2.9084,3.3414,3.3414,3.3414,3.3414,3.3414,3.3414,3.3414,3.3414,3.3414,3.3414,3.3414,3.3414,3.3414,3.3414,3.3414,3.3414,3.3414,3.3414,3.3414,3.3414,3.3414,3.3414,3.3414,3.3414,3.3414,3.3414,3.3414,3.3414,3.3414,3.3414,3.3414,3.3414,3.3414,3.3414,3.3414,3.3414,3.3414,3.3414,3.3414,3.3414,3.3414,3.3414,3.3414,3.3414,3.3414,3.3414,3.3414,3.3414,3.3414,3.3414,3.3414,3.3414,3.3414,3.3414,3.3414,3.3414,3.3414,3.3414,3.3414,3.3414,3.348,3.3627,3.3641,3.3721,3.3788,3.3841,3.3895,3.4042,3.4095,3.4111,3.3935,3.3588,3.3589,3.3681,3.3486,3.3382,3.3459,3.3512,3.3498,3.3498,3.3407,3.3407,3.3485,3.3718,3.3524,3.3033,3.3021,3.2866,3.284,3.2711,3.2685,3.2673,3.2659,3.2466,3.2004,3.1543,3.1003,3.0669,3.0336,3.0117,3.0002,3.0157,3.0256,3.0298,3.0288,2.9897,2.9389,2.9084,2.888,2.8931,2.8829,2.8524,2.832,2.832,2.79,3.3414,3.3414,3.3414,3.3414,3.3414,3.3414,3.3414,3.3414,3.3414,3.3414,3.3414,3.3414,3.3414,3.3414,3.3414,3.3414,3.3414,3.3414,3.3414,3.3414,3.3414,3.3414,3.3414,3.3414,3.3414,3.3414,3.3414,3.3414,3.3414,3.3414,3.3414,3.3414,3.3414,3.3414,3.3414,3.3414,3.3414,3.3414,3.3414,3.3414,3.3414,3.3414,3.3414,3.3414,3.3414,3.3414,3.3414,3.3414,3.3414,3.3414,3.3414,3.3414,3.3414,3.3414,3.3414,3.3414,3.3414,3.3454,3.3534,3.3534,3.3641,3.3921,3.3948,3.4055,3.4215,3.4101,3.409,3.4118,3.4081,3.3927,3.3525,3.3291,3.3068,3.3143,3.3154,3.3111,3.3081,3.2751,3.2483,3.2914,3.3199,3.3277,3.3134,3.3199,3.2849,3.2578,3.2578,3.2461,3.2397,3.2318,3.2132,3.1828,3.1668,3.1477,3.1107,3.081,3.0279,2.9949,2.9596,2.9231,2.8999,2.8748,2.8814,2.8979,2.891,2.8632,2.8331,2.8002,2.7951,2.8218,2.786,2.7246,2.7195,2.7298,2.6775,3.3414,3.3414,3.3414,3.3414,3.3414,3.3414,3.3414,3.3414,3.3414,3.3414,3.3414,3.3414,3.3414,3.3414,3.3414,3.3414,3.3414,3.3414,3.3414,3.3414,3.3414,3.3414,3.3414,3.3414,3.3414,3.3414,3.3414,3.3414,3.3414,3.3414,3.3414,3.3414,3.3414,3.3414,3.3414,3.3414,3.3414,3.3414,3.3414,3.3414,3.3414,3.3414,3.3414,3.3414,3.3414,3.3414,3.3414,3.3414,3.3414,3.3414,3.3414,3.3427,3.348,3.348,3.3467,3.3454,3.3494,3.3601,3.3761,3.3814,3.3961,3.4162,3.4191,3.4204,3.4181,3.3912,3.3836,3.385,3.377,3.3596,3.3529,3.3123,3.324,3.3263,3.2773,3.2414,3.2066,3.1727,3.1737,3.2505,3.2912,3.3031,3.2586,3.2338,3.222,3.2037,3.1944,3.168,3.1428,3.1265,3.1059,3.0745,3.0419,3.0226,3.0012,2.9792,2.9467,2.9198,2.8842,2.8327,2.7978,2.7365,2.7268,2.7816,2.7888,2.7675,2.7323,2.6993,2.6766,2.6758,2.6366,2.5913,2.5851,2.58,2.5594,3.3414,3.3414,3.3414,3.3414,3.3414,3.3414,3.3414,3.3414,3.3414,3.3414,3.3414,3.3414,3.3414,3.3414,3.3414,3.3414,3.3414,3.3414,3.3414,3.3414,3.3414,3.3414,3.3414,3.3414,3.3414,3.3414,3.3414,3.3414,3.3414,3.3414,3.3414,3.3414,3.3414,3.3414,3.3414,3.3414,3.3414,3.3414,3.3414,3.3414,3.3414,3.3414,3.3414,3.3414,3.3414,3.3414,3.3414,3.3414,3.3507,3.3627,3.3654,3.3734,3.3814,3.3804,3.3764,3.3721,3.3788,3.3921,3.4082,3.4122,3.4242,3.4444,3.429,3.4162,3.415,3.3876,3.3509,3.348,3.3212,3.2914,3.2623,3.2381,3.2062,3.1742,3.1474,3.1261,3.0928,3.0672,3.1047,3.1635,3.1427,3.1284,3.148,3.1361,3.1451,3.1421,3.1368,3.0993,3.05,3.0232,3.0082,2.9921,2.9588,2.9413,2.9183,2.889,2.8628,2.8386,2.8025,2.7504,2.7068,2.6538,2.6646,2.7028,2.6976,2.6525,2.6525,2.6192,2.5798,2.5385,2.519,2.4943,2.4532,2.4254,2.4171,3.3414,3.3414,3.3414,3.3414,3.3414,3.3414,3.3414,3.3414,3.3414,3.3414,3.3414,3.3414,3.3414,3.3414,3.3414,3.3414,3.3414,3.3414,3.3414,3.3414,3.3414,3.3414,3.3414,3.3414,3.3414,3.3414,3.3414,3.3414,3.3414,3.3414,3.3414,3.3414,3.3414,3.3414,3.3414,3.3414,3.3414,3.3414,3.3414,3.3414,3.3414,3.3414,3.3454,3.3494,3.3507,3.3547,3.3654,3.3681,3.3774,3.3908,3.3988,3.4068,3.4269,3.4273,3.409,3.3995,3.4139,3.4271,3.4196,3.4209,3.4225,3.4294,3.4059,3.3979,3.3859,3.3462,3.2982,3.2914,3.2381,3.1848,3.1463,3.1035,3.066,3.035,3.019,2.9868,2.976,2.9491,2.9211,2.948,2.9438,2.9868,3.0297,3.0618,3.0779,3.0618,3.0565,3.0082,2.9599,2.9319,2.9104,2.9061,2.8899,2.8727,2.8414,2.8027,2.777,2.7534,2.7104,2.6566,2.6243,2.5845,2.5938,2.5794,2.5424,2.5054,2.5242,2.521,2.4533,2.4165,2.4207,2.3994,2.3578,2.3228,2.3115,3.3414,3.3414,3.3414,3.3414,3.3414,3.3414,3.3414,3.3414,3.3414,3.3414,3.3414,3.3414,3.3414,3.3414,3.3414,3.3414,3.3414,3.3414,3.3414,3.3414,3.3414,3.3414,3.3414,3.3414,3.3414,3.3414,3.3414,3.3414,3.3414,3.3414,3.3414,3.3414,3.3414,3.3414,3.3414,3.3414,3.3414,3.3414,3.3414,3.3427,3.344,3.3454,3.3614,3.3761,3.3841,3.3908,3.4017,3.4044,3.4073,3.4139,3.4166,3.4231,3.4259,3.4057,3.3941,3.3967,3.4095,3.4223,3.398,3.3928,3.3915,3.382,3.3568,3.3566,3.3167,3.2529,3.1783,3.1195,3.0833,3.0511,3.035,3.0243,3.0136,2.976,2.9276,2.8953,2.8684,2.8414,2.8134,2.7864,2.7983,2.8792,2.948,2.9814,3.0136,2.9921,2.9653,2.9115,2.8684,2.836,2.808,2.8037,2.7929,2.7767,2.7594,2.7226,2.6793,2.6576,2.6088,2.5589,2.518,2.4762,2.4237,2.4064,2.3819,2.3827,2.4136,2.3899,2.3187,2.3052,2.3235,2.2961,2.2538,2.2284,2.2135,3.3574,3.3414,3.3414,3.3414,3.3414,3.3414,3.3414,3.3414,3.3414,3.3414,3.3414,3.3414,3.3414,3.3414,3.3414,3.3414,3.3414,3.3414,3.3414,3.3414,3.3414,3.3414,3.3414,3.3414,3.3414,3.3414,3.3414,3.3414,3.3414,3.3414,3.3414,3.3414,3.3414,3.3414,3.3414,3.3414,3.3414,3.3467,3.3574,3.3681,3.3721,3.3828,3.3988,3.4071,3.4071,3.4164,3.4206,3.3962,3.3951,3.394,3.3837,3.3668,3.3797,3.373,3.3689,3.3676,3.3744,3.3796,3.3676,3.3623,3.3542,3.3394,3.3126,3.2688,3.2115,3.1368,3.0779,3.0511,3.0243,2.9814,2.9276,2.9169,2.8684,2.836,2.8145,2.7864,2.755,2.728,2.7009,2.6793,2.663,2.7442,2.8026,2.8026,2.8242,2.836,2.8091,2.7767,2.7496,2.7334,2.7118,2.6955,2.6847,2.6738,2.6576,2.625,2.5643,2.5317,2.4991,2.4501,2.401,2.3565,2.3246,2.3018,2.3029,2.3087,2.3134,2.3063,2.2786,2.2572,2.2368,2.2068,2.1831,2.1532,2.1358,3.3814,3.3534,3.3454,3.3414,3.3414,3.3414,3.3414,3.3414,3.3414,3.3414,3.3414,3.3414,3.3414,3.3414,3.3414,3.3414,3.3414,3.3414,3.3414,3.3414,3.3414,3.3414,3.3414,3.3414,3.3414,3.3414,3.3414,3.3414,3.344,3.348,3.3521,3.3414,3.3414,3.3414,3.3427,3.3521,3.3601,3.3734,3.3895,3.3975,3.4015,3.4175,3.4155,3.4196,3.4171,3.4146,3.4057,3.3785,3.3667,3.3653,3.3508,3.3427,3.3515,3.3394,3.3142,3.297,3.2826,3.2573,3.2598,3.2664,3.2914,3.2701,3.2328,3.1528,3.0886,3.0136,2.9653,2.9599,2.9115,2.863,2.8199,2.7983,2.7658,2.7118,2.6684,2.6522,2.6359,2.6196,2.6088,2.5915,2.5816,2.5979,2.6295,2.6078,2.624,2.6576,2.6522,2.6359,2.625,2.6142,2.5925,2.5752,2.5589,2.5426,2.5154,2.4882,2.4392,2.4228,2.3892,2.3574,2.3191,2.2973,2.2745,2.2581,2.2307,2.2055,2.1962,2.2192,2.2429,2.2079,2.1766,2.145,2.116,2.0798,2.0511,3.4122,3.3828,3.3534,3.3414,3.3414,3.3414,3.3414,3.3414,3.3414,3.3414,3.3414,3.3414,3.3414,3.3414,3.3414,3.3414,3.3414,3.3414,3.3414,3.3414,3.3414,3.3414,3.3414,3.3414,3.3414,3.3414,3.3467,3.3467,3.3507,3.3761,3.3641,3.3454,3.3574,3.3467,3.3547,3.3761,3.3948,3.4082,3.4242,3.4282,3.4244,3.4286,3.4186,3.4006,3.3915,3.3797,3.358,3.3476,3.3345,3.3356,3.3144,3.2932,3.2795,3.2594,3.2222,3.1943,3.1569,3.1261,3.11,3.1463,3.1569,3.1142,3.066,3.0297,2.9975,2.9061,2.8576,2.8414,2.7929,2.728,2.6901,2.6684,2.6684,2.6305,2.5861,2.5643,2.5426,2.51,2.4991,2.4991,2.4991,2.4991,2.4936,2.4828,2.5208,2.5589,2.5372,2.5208,2.5045,2.4936,2.4719,2.4501,2.4337,2.4056,2.3565,2.3401,2.3565,2.351,2.3237,2.2854,2.248,2.2307,2.2198,2.1823,2.1494,2.1164,2.089,2.1155,2.1349,2.1289,2.1092,2.0754,2.0434,2.0147,1.9815,3.4416,3.4122,3.3828,3.3587,3.3414,3.3414,3.3414,3.3414,3.3414,3.3414,3.3414,3.3414,3.3414,3.3414,3.3414,3.3414,3.3414,3.3414,3.3414,3.3414,3.3414,3.3414,3.3414,3.3414,3.3414,3.3467,3.3587,3.3708,3.3748,3.4015,3.4068,3.4002,3.3935,3.3924,3.4055,3.4055,3.4215,3.4349,3.4496,3.4589,3.4578,3.4372,3.4229,3.4163,3.3767,3.3648,3.3472,3.3114,3.2807,3.2488,3.2156,3.1889,3.1635,3.1314,3.1047,3.0767,3.0446,3.019,3.0029,3.0458,3.0618,3.035,2.9653,2.9061,2.8953,2.7983,2.7442,2.7118,2.6847,2.6413,2.6142,2.6088,2.5979,2.5535,2.5208,2.4882,2.461,2.4283,2.4119,2.4174,2.3947,2.3783,2.3737,2.3628,2.4174,2.4664,2.4337,2.4119,2.4065,2.3956,2.3792,2.3628,2.3519,2.3346,2.2909,2.2909,2.2964,2.2745,2.2581,2.2307,2.1987,2.1768,2.1603,2.1164,2.078,2.0505,2.0348,2.023,2.0285,2.045,2.0285,2.0027,1.971,1.9386,1.9233,3.4723,3.4429,3.4135,3.3841,3.3561,3.3454,3.3414,3.3414,3.3414,3.3414,3.3414,3.3414,3.3414,3.3414,3.3414,3.3414,3.3414,3.3414,3.3414,3.3414,3.3414,3.3414,3.344,3.3521,3.3601,3.3627,3.3841,3.4015,3.4028,3.4309,3.4336,3.4322,3.4402,3.4337,3.4309,3.4416,3.4482,3.4616,3.475,3.4792,3.4662,3.4426,3.3949,3.3737,3.3154,3.2729,3.2422,3.2008,3.1569,3.1302,3.0928,3.0565,3.0243,2.9921,2.976,2.9599,2.9438,2.9276,2.9169,2.9438,2.9384,2.8792,2.8306,2.7929,2.7604,2.6955,2.6522,2.6413,2.6196,2.587,2.5372,2.5164,2.4882,2.4446,2.4174,2.3901,2.3792,2.3574,2.3455,2.3346,2.3182,2.3237,2.3128,2.3137,2.3292,2.3783,2.3783,2.3574,2.3519,2.3401,2.3246,2.3082,2.2918,2.2745,2.2581,2.2417,2.2198,2.2152,2.1987,2.1878,2.1603,2.1384,2.111,2.0835,2.045,2.0018,1.9687,1.9522,1.9522,1.9687,1.9515,1.935,1.8935,1.8684,1.8772,3.5004,3.4736,3.4416,3.4135,3.3841,3.3534,3.3414,3.3414,3.3414,3.3414,3.3414,3.3414,3.3414,3.3414,3.3414,3.3414,3.3414,3.3414,3.3414,3.3414,3.3414,3.3414,3.3494,3.3601,3.3681,3.3908,3.4042,3.4148,3.4242,3.4456,3.4482,3.4391,3.4417,3.4471,3.4362,3.4603,3.487,3.5097,3.507,3.4676,3.4347,3.411,3.3474,3.2786,3.225,3.1783,3.1314,3.094,3.0565,3.0136,3.0082,2.9814,2.9545,2.9158,2.8835,2.8468,2.7972,2.7432,2.6901,2.7821,2.7821,2.7334,2.7063,2.6847,2.663,2.6142,2.5707,2.5544,2.5208,2.4719,2.4283,2.4065,2.3792,2.3574,2.3355,2.3137,2.3073,2.2863,2.269,2.2581,2.2854,2.3018,2.2854,2.2745,2.269,2.2854,2.3073,2.3018,2.2909,2.2745,2.2535,2.2425,2.2261,2.2206,2.1979,2.1713,2.1549,2.1439,2.1439,2.1439,2.1274,2.1,2.0725,2.045,1.9963,1.9412,1.9026,1.875,1.8861,1.8971,1.8861,1.864,1.8247,1.8067,1.8253,3.5151,3.5004,3.4523,3.4269,3.4095,3.3614,3.3414,3.3414,3.3414,3.3414,3.3414,3.3414,3.3414,3.3414,3.3414,3.3414,3.3414,3.3414,3.3414,3.3414,3.3414,3.3414,3.3467,3.3547,3.3614,3.3668,3.3868,3.4082,3.4015,3.4362,3.4429,3.4376,3.4349,3.4351,3.4362,3.4442,3.4536,3.4486,3.4278,3.3915,3.3746,3.3208,3.2586,3.1794,3.1343,3.0828,3.0316,2.9941,2.9576,2.905,2.8953,2.8684,2.8199,2.7648,2.7496,2.7226,2.6901,2.6684,2.625,2.6576,2.6684,2.6413,2.6196,2.5979,2.5979,2.51,2.4773,2.4555,2.4174,2.3728,2.3455,2.3401,2.3237,2.3191,2.2973,2.2644,2.248,2.2097,2.1823,2.1823,2.1932,2.2097,2.2042,2.2143,2.2143,2.2088,2.2253,2.2198,2.2034,2.1924,2.1768,2.1768,2.1658,2.1603,2.1494,2.1439,2.1329,2.1274,2.1274,2.1219,2.0945,2.0505,2.0073,1.9632,1.9247,1.8868,1.853,1.8309,1.8253,1.8253,1.8309,1.8309,1.8081,1.797,1.8019,3.5204,3.5137,3.4563,3.4322,3.4229,3.3668,3.3414,3.3414,3.3414,3.3414,3.3414,3.3414,3.3414,3.3414,3.3414,3.3414,3.3414,3.3414,3.3414,3.3414,3.3414,3.3414,3.3427,3.3507,3.3654,3.3654,3.3841,3.4068,3.4095,3.4242,3.4242,3.4148,3.4068,3.3975,3.4015,3.4135,3.4194,3.4066,3.3757,3.333,3.2838,3.2199,3.1566,3.0932,3.0394,2.9831,2.943,2.91,2.8704,2.8048,2.7648,2.7388,2.6728,2.6413,2.6359,2.6305,2.5806,2.548,2.4991,2.4828,2.4991,2.51,2.5154,2.5045,2.4882,2.4119,2.3846,2.3619,2.3237,2.3018,2.2863,2.2854,2.269,2.259,2.2362,2.2097,2.1987,2.1603,2.1549,2.1439,2.1439,2.1384,2.1384,2.1439,2.1603,2.1494,2.1439,2.1384,2.1384,2.1384,2.1384,2.1384,2.1384,2.1384,2.1439,2.1439,2.1274,2.111,2.1,2.0835,2.0348,1.9798,1.9357,1.8916,1.864,1.8364,1.8136,1.797,1.8033,1.8033,1.8026,1.797,1.7915,1.7915,1.7915,3.5191,3.5097,3.4563,3.4257,3.4189,3.3654,3.3414,3.3414,3.3414,3.3414,3.3414,3.3414,3.3414,3.3414,3.3414,3.3414,3.3414,3.3414,3.3414,3.3414,3.3414,3.3414,3.3494,3.3641,3.3668,3.3868,3.4002,3.3988,3.4229,3.4135,3.4015,3.3868,3.3668,3.3601,3.3708,3.3742,3.375,3.3481,3.3174,3.2596,3.185,3.1237,3.061,2.9979,2.921,2.8595,2.8089,2.7621,2.7139,2.6694,2.6535,2.6491,2.6285,2.5979,2.5816,2.5381,2.4555,2.401,2.3574,2.3574,2.3355,2.3674,2.3792,2.3519,2.3464,2.33,2.3128,2.3027,2.2808,2.259,2.2371,2.2206,2.2042,2.1878,2.1658,2.1494,2.1494,2.1439,2.1439,2.1384,2.1384,2.1384,2.1384,2.1384,2.1384,2.1384,2.1384,2.1384,2.1384,2.1384,2.1384,2.1384,2.1384,2.1329,2.1329,2.1164,2.089,2.056,2.045,2.0285,1.9687,1.9247,1.8916,1.853,1.8198,1.7977,1.7915,1.7915,1.7915,1.7915,1.7915,1.7915,1.7915,1.7915,1.7915,3.507,3.4895,3.4469,3.4202,3.3961,3.3587,3.3414,3.3414,3.3414,3.3414,3.3414,3.3414,3.3414,3.3414,3.3414,3.3414,3.3414,3.3414,3.3414,3.3414,3.3414,3.3414,3.3454,3.3521,3.3561,3.3587,3.3654,3.3748,3.3694,3.3708,3.3708,3.3521,3.3467,3.3414,3.3317,3.3235,3.3075,3.2823,3.2544,3.173,3.0949,3.0327,2.9641,2.8818,2.82,2.7586,2.7092,2.6531,2.6028,2.5632,2.5307,2.5096,2.4512,2.4145,2.3846,2.3837,2.351,2.3292,2.3128,2.3073,2.2909,2.2581,2.2754,2.2973,2.2918,2.2754,2.2535,2.248,2.2261,2.1987,2.1878,2.1768,2.1658,2.1549,2.1384,2.1384,2.1384,2.1384,2.1384,2.1384,2.1384,2.1384,2.1384,2.1384,2.1384,2.1384,2.1384,2.1384,2.1384,2.1384,2.1274,2.1274,2.1219,2.111,2.0835,2.067,2.034,2.0018,1.9908,1.9687,1.9136,1.875,1.8474,1.8253,1.8033,1.797,1.7915,1.7915,1.7915,1.7915,1.7915,1.7915,1.7915,1.7915,1.7915,3.475,3.4549,3.4269,3.3975,3.3694,3.3494,3.3414,3.3414,3.3414,3.3414,3.3414,3.3414,3.3414,3.3414,3.3414,3.3414,3.3414,3.3414,3.3414,3.3414,3.3414,3.3414,3.3414,3.3414,3.3427,3.3414,3.3414,3.348,3.3414,3.3414,3.3427,3.3427,3.3414,3.3414,3.3277,3.2952,3.2537,3.2197,3.1693,3.0898,3.0172,2.9491,2.8666,2.7807,2.7338,2.6734,2.6094,2.5516,2.4966,2.4451,2.4045,2.3753,2.3395,2.3185,2.2964,2.2964,2.28,2.259,2.2371,2.2362,2.2206,2.2042,2.1932,2.2097,2.2152,2.2042,2.1987,2.1878,2.1658,2.1439,2.1439,2.1384,2.1384,2.1384,2.1384,2.1384,2.1384,2.1384,2.1384,2.1384,2.1384,2.1384,2.1384,2.1384,2.1384,2.1384,2.1329,2.1164,2.1219,2.1274,2.1055,2.0945,2.089,2.078,2.045,2.0073,1.9798,1.9467,1.9302,1.9026,1.853,1.8364,1.8198,1.8088,1.797,1.7915,1.7915,1.7915,1.7915,1.7915,1.7915,1.7915,1.7915,1.7915,1.7915,3.4309,3.4269,3.3975,3.3694,3.344,3.3414,3.3414,3.3414,3.3414,3.3414,3.3414,3.3414,3.3414,3.3414,3.3414,3.3414,3.3414,3.3414,3.3414,3.3414,3.3414,3.3414,3.3414,3.3414,3.3414,3.3414,3.3414,3.3414,3.3414,3.3414,3.3414,3.3414,3.3414,3.3414,3.3314,3.2712,3.2259,3.192,3.1163,3.0303,2.944,2.8739,2.7962,2.7001,2.6284,2.5613,2.4829,2.4227,2.3707,2.329,2.2867,2.2627,2.2641,2.2707,2.2458,2.2354,2.2181,2.2042,2.1823,2.1713,2.1603,2.1494,2.1384,2.1549,2.1658,2.1658,2.1603,2.1603,2.1439,2.1384,2.1384,2.1384,2.1384,2.1384,2.1384,2.1384,2.1384,2.1384,2.1384,2.1384,2.1384,2.1384,2.1384,2.1384,2.1219,2.1274,2.1164,2.1,2.078,2.0835,2.067,2.045,2.0395,2.023,1.9798,1.9412,1.9192,1.8916,1.875,1.853,1.8253,1.8088,1.7915,1.7915,1.7915,1.7915,1.7915,1.7915,1.7915,1.7915,1.7915,1.7915,1.7915,1.7915,1.7915,3.4189,3.3961,3.3654,3.3467,3.3414,3.3414,3.3414,3.3414,3.3414,3.3414,3.3414,3.3414,3.3414,3.3414,3.3414,3.3414,3.3414,3.3414,3.3414,3.3414,3.3414,3.3414,3.3414,3.3414,3.3414,3.3414,3.3414,3.3414,3.3414,3.3414,3.3414,3.3414,3.3414,3.3414,3.3263,3.2511,3.192,3.1668,3.0455,2.9593,2.8829,2.7809,2.6928,2.6159,2.547,2.4645,2.3946,2.3375,2.2864,2.2387,2.1907,2.1638,2.1387,2.1578,2.1553,2.1431,2.1584,2.1516,2.1494,2.1384,2.1384,2.1384,2.1384,2.1384,2.1384,2.1384,2.1384,2.1384,2.1384,2.1384,2.1384,2.1384,2.1384,2.1384,2.1384,2.1384,2.1384,2.1384,2.1384,2.1384,2.1384,2.1384,2.1384,2.1274,2.111,2.0945,2.078,2.0505,2.0065,1.9955,1.99,1.9735,1.9798,1.9577,1.9136,1.8861,1.8695,1.8474,1.8309,1.8088,1.7915,1.7915,1.7915,1.7915,1.7915,1.7915,1.7915,1.7915,1.7915,1.7915,1.7915,1.7915,1.7915,1.7915,1.7915,3.3814,3.3654,3.348,3.3414,3.3414,3.3414,3.3414,3.3414,3.3414,3.3414,3.3414,3.3414,3.3414,3.3414,3.3414,3.3414,3.3414,3.3414,3.3414,3.3414,3.3414,3.3414,3.3414,3.3414,3.3414,3.3414,3.3414,3.3414,3.3414,3.3414,3.3414,3.3414,3.3414,3.3263,3.3013,3.2209,3.1668,3.1365,2.9846,2.888,2.8218,2.7338,2.6467,2.5759,2.4719,2.3893,2.3169,2.2599,2.2037,2.1621,2.1295,2.1035,2.0927,2.1012,2.1097,2.1124,2.1276,2.1303,2.1352,2.1321,2.1321,2.1274,2.1384,2.1329,2.1384,2.1384,2.1384,2.1384,2.1384,2.1384,2.1384,2.1384,2.1384,2.1384,2.1384,2.1384,2.1384,2.1384,2.1384,2.1384,2.1329,2.1219,2.111,2.089,2.067,2.0238,2.0128,1.9853,1.9467,1.9192,1.9136,1.9081,1.9136,1.8971,1.853,1.8364,1.8253,1.8033,1.7915,1.7915,1.7915,1.7915,1.7915,1.7915,1.7915,1.7915,1.7915,1.7915,1.7915,1.7915,1.7915,1.7915,1.7915,1.7915,1.7915,3.3427,3.3414,3.3414,3.3414,3.3414,3.3414,3.3414,3.3414,3.3414,3.3414,3.3414,3.3414,3.3414,3.3414,3.3414,3.3414,3.3414,3.3414,3.3414,3.3414,3.3414,3.3414,3.3414,3.3414,3.3414,3.3414,3.3414,3.3414,3.3414,3.3414,3.3414,3.3414,3.3263,3.3163,3.2611,3.2071,3.1567,3.0708,2.9542,2.8371,2.7656,2.698,2.6108,2.5131,2.4151,2.3272,2.2547,2.1925,2.131,2.0987,2.0757,2.0559,2.0446,2.0513,2.0481,2.0593,2.062,2.077,2.0912,2.0921,2.0992,2.1055,2.1164,2.1219,2.1164,2.1219,2.1219,2.1329,2.1329,2.1384,2.1384,2.1384,2.1384,2.1384,2.1384,2.1329,2.1329,2.1329,2.1329,2.1329,2.111,2.0945,2.067,2.045,2.0128,1.9687,1.9357,1.9081,1.8805,1.8695,1.853,1.853,1.853,1.8253,1.7977,1.7977,1.8033,1.7977,1.7915,1.7915,1.7915,1.7915,1.7915,1.7915,1.7915,1.7915,1.7915,1.7915,1.7915,1.7915,1.7915,1.7915,1.7915,1.7915,1.7915,3.3414,3.3414,3.3414,3.3414,3.3414,3.3414,3.3414,3.3414,3.3414,3.3414,3.3414,3.3414,3.3414,3.3414,3.3414,3.3414,3.3414,3.3414,3.3414,3.3414,3.3414,3.3414,3.3414,3.3414,3.3414,3.3414,3.3414,3.3414,3.3414,3.3414,3.3414,3.3414,3.3414,3.3113,3.2561,3.2021,3.1315,3.0291,2.9186,2.8065,2.698,2.6211,2.5347,2.4409,2.3583,2.2806,2.2132,2.157,2.0997,2.0597,2.0361,2.0131,1.9925,1.9862,1.9812,1.9776,1.9808,1.9931,2.007,2.0138,2.0224,2.02,2.0262,2.0395,2.045,2.067,2.078,2.111,2.1164,2.1274,2.1329,2.1384,2.1384,2.1329,2.1274,2.1219,2.1219,2.111,2.1055,2.0835,2.0615,2.0293,1.9908,1.9687,1.9522,1.9136,1.8916,1.8585,1.8309,1.8143,1.8033,1.8088,1.8088,1.8033,1.7915,1.7915,1.797,1.7915,1.7915,1.7915,1.7915,1.7915,1.7915,1.7915,1.7915,1.7915,1.7915,1.7915,1.7915,1.7915,1.7915,1.7915,1.7915,1.7915,1.7915]},{"header":{"parameterUnit":"m.s-1","parameterCategory":1,"la1":31.0,"la2":29.5877,"lo1":-88.7671,"lo2":-86.6584,"dy":0.0162,"dx":0.0185,"nx":115,"ny":88,"refTime":"2023-04-07T00:00:00:Z","depth":0,"parameterNumber":3,"parameterNumberName":"V-component_of_WINDS"},"data":[0.0,0.0,0.0,0.0,0.0,0.0,0.0,0.0,0.0,0.0,0.0,0.0,0.0,0.0,0.0,0.0,0.0,0.0,0.0,0.0,0.0,0.0,0.0,0.0,0.0,0.0,0.0,0.0,0.0,0.0,0.0,0.0,0.0,0.0,0.0,0.0,0.0,0.0,0.0,0.0,0.0,0.0,0.0,0.0,0.0,0.0,0.0,0.0,0.0,0.0,0.0,0.0,0.0,0.0,0.0,0.0,0.0,0.0,0.0,0.0,0.0,0.0,0.0,0.0,0.0,0.0,0.0,0.0,0.0,0.0,0.0,0.0,0.0,0.0,0.0,0.0,0.0,0.0,0.0,0.0,0.0,0.0,0.0,0.0,0.0,0.0,0.0,0.0,0.0,0.0,0.0,0.0,0.0,0.0,0.0,0.0,0.0,0.0,0.0,0.0,0.0,0.0,0.0,0.0,0.0,0.0,0.0,0.0,0.0,0.0,0.0,0.0,0.0,0.0,0.0,0.0,0.0,0.0,0.0,0.0,0.0,0.0,0.0,0.0,0.0,0.0,0.0,0.0,0.0,0.0,0.0,0.0,0.0,0.0,0.0,0.0,0.0,0.0,0.0,0.0,0.0,0.0,0.0,0.0,0.0,0.0,0.0,0.0,0.0,0.0,0.0,0.0,0.0,0.0,0.0,0.0,0.0,0.0,0.0,0.0,0.0,0.0,0.0,0.0,0.0,0.0,0.0,0.0,0.0,0.0,0.0,0.0,0.0,0.0,0.0,0.0,0.0,0.0,0.0,0.0,0.0,0.0,0.0,0.0,0.0,0.0,0.0,0.0,0.0,0.0,0.0,0.0,0.0,0.0,0.0,0.0,0.0,0.0,0.0,0.0,0.0,0.0,0.0,0.0,0.0,0.0,0.0,0.0,0.0,0.0,0.0,0.0,0.0,0.0,0.0,0.0,0.0,0.0,0.0,0.0,0.0,0.0,0.0,0.0,0.0,0.0,0.0,0.0,0.0,0.0,0.0,0.0,0.0,0.0,0.0,0.0,0.0,0.0,0.0,0.0,0.0,0.0,0.0,0.0,0.0,0.0,0.0,0.0,0.0,0.0,0.0,0.0,0.0,0.0,0.0,0.0,0.0,0.0,0.0,0.0,0.0,0.0,0.0,0.0,0.0,0.0,0.0,0.0,0.0,0.0,0.0,0.0,0.0,0.0,0.0,0.0,0.0,0.0,0.0,0.0,0.0,0.0,0.0,0.0,0.0,0.0,0.0,0.0,0.0,0.0,0.0,0.0,0.0,0.0,0.0,0.0,0.0,0.0,0.0,0.0,0.0,0.0,0.0,0.0,0.0,0.0,0.0,0.0,0.0,0.0,0.0,0.0,0.0,0.0,0.0,0.0,0.0,0.0,0.0,0.0,0.0,0.0,0.0,0.0,0.0,0.0,0.0,0.0,0.0,0.0,0.0,0.0,0.0,0.0,0.0,0.0,0.0,0.0,0.0,0.0,0.0,0.0,0.0,0.0,0.0,0.0,0.0,0.0,0.0,0.0,0.0,0.0,0.0,0.0,0.0,0.0,0.0,0.0,0.0,0.0,0.0,0.0,0.0,0.0,0.0,0.0,0.0,0.0,0.0,0.0,0.0,0.0,0.0,0.0,0.0,0.0,0.0,0.0,0.0,0.0,0.0,0.0,0.0,0.0,0.0,0.0,0.0,0.0,0.0,0.0,0.0,0.0,0.0,0.0,0.0,0.0,0.0,0.0,0.0,0.0,0.0,0.0,0.0,0.0,0.0,0.0,0.0,0.0,0.0,0.0,0.0,0.0,0.0,0.0,0.0,0.0,0.0,0.0,0.0,0.0,0.0,0.0,0.0,0.0,0.0,0.0,0.0,0.0,0.0,0.0,0.0,0.0,0.0,0.0,0.0,0.0,0.0,0.0,0.0,0.0,0.0,0.0,0.0,0.0,0.0,0.0,0.0,0.0,0.0,0.0,0.0,0.0,0.0,0.0,0.0,0.0,0.0,0.0,0.0,0.0,0.0,0.0,0.0,0.0,0.0,0.0,0.0,0.0,0.0,0.0,0.0,0.0,0.0,0.0,0.0,0.0,0.0,0.0,0.0,0.0,0.0,0.0,0.0,0.0,0.0,0.0,0.0,0.0,0.0,0.0,0.0,0.0,0.0,0.0,0.0,0.0,0.0,0.0,0.0,0.0,0.0,0.0,0.0,0.0,0.0,0.0,0.0,0.0,0.0,0.0,0.0,0.0,0.0,0.0,0.0,0.0,0.0,0.0,0.0,0.0,0.0,0.0,0.0,0.0,0.0,0.0,0.0,0.0,0.0,0.0,0.0,0.0,0.0,0.0,0.0,0.0,0.0,0.0,0.0,0.0,0.0,0.0,0.0,0.0,0.0,0.0,0.0,0.0,0.0,0.0,0.0,0.0,0.0,0.0,0.0,0.0,0.0,0.0,0.0,0.0,0.0,0.0,0.0,0.0,0.0,0.0,0.0,0.0,0.0,0.0,0.0,0.0,0.0,0.0,0.0,0.0,0.0,0.0,0.0,0.0,0.0,0.0,0.0,0.0,0.0,0.0,0.0,0.0,0.0,0.0,0.0,0.0,0.0,0.0,0.0,0.0,0.0,0.0,0.0,0.0,0.0,0.0,0.0,0.0,0.0,0.0,0.0,0.0,0.0,0.0,0.0,0.0,0.0,0.0,0.0,0.0,0.0,0.0,0.0,0.0,0.0,0.0,0.0,0.0,0.0,0.0,0.0,0.0,0.0,0.0,0.0,0.0,0.0,0.0,0.0,0.0,0.0,0.0,0.0,0.0,0.0,0.0,0.0,0.0,0.0,0.0,0.0,0.0,0.0,0.0,0.0,0.0,0.0,0.0,0.0,0.0,0.0,0.0,0.0,0.0,0.0,0.0,0.0,0.0,0.0,0.0,0.0,0.0,0.0,0.0,0.0,0.0,0.0,0.0,0.0,0.0,0.0,0.0,0.0,0.0,0.0,0.0,0.0,0.0,0.0,0.0,0.0,0.0,0.0,0.0,0.0,0.0,0.0,0.0,0.0,0.0,0.0,0.0,0.0,0.0,0.0,0.0,0.0,0.0,0.0,0.0,0.0,0.0,0.0,0.0,0.0,0.0,0.0,0.0,0.0,0.0,0.0,0.0,0.0,0.0,0.0,0.0,0.0,0.0,0.0,0.0,0.0,0.0,0.0,0.0,0.0,0.0,0.0,0.0,0.0,0.0,0.0,0.0,0.0,0.0,0.0,0.0,0.0,0.0,0.0,0.0,0.0,0.0,0.0,0.0,0.0,0.0,0.0,0.0,0.0,0.0,0.0,0.0,0.0,0.0,0.0,0.0,0.0,0.0,0.0,0.0,0.0,0.0,0.0,0.0,0.0,0.0,0.0,0.0,0.0,0.0,0.0,0.0,0.0,0.0,0.0,0.0,0.0,0.0,0.0,0.0,0.0,0.0,0.0,0.0,0.0,0.0,0.0,0.0,0.0,0.0,0.0,0.0,0.0,0.0,0.0,0.0,0.0,0.0,0.0,0.0,0.0,0.0,0.0,0.0,0.0,0.0,0.0,0.0,0.0,0.0,0.0,0.0,0.0,0.0,0.0,0.0,0.0,0.0,0.0,0.0,0.0,0.0,0.0,0.0,0.0,0.0,0.0,0.0,0.0,0.0,0.0,0.0,0.0,0.0,0.0,0.0,0.0,0.0,0.0,0.0,0.0,0.0,0.0,0.0,0.0,0.0,0.0,0.0,0.0,0.0,0.0,0.0,0.0,0.0,0.0,0.0,0.0,0.0,0.0,0.0,0.0,0.0,0.0,0.0,0.0,0.0,0.0,0.0,0.0,0.0,0.0,0.0,0.0,0.0,0.0,0.0,0.0,0.0,0.0,0.0,0.0,0.0,0.0,0.0,0.0,0.0,0.0,0.0,0.0,0.0,0.0,0.0,0.0,0.0,0.0,0.0,0.0,0.0,0.0,0.0,0.0,0.0,0.0,0.0,0.0,0.0,0.0,0.0,0.0,0.0,0.0,0.0,0.0,0.0,0.0,0.0,0.0,0.0,0.0,0.0,0.0,0.0,0.0,0.0,0.0,0.0,0.0,0.0,0.0,0.0,0.0,0.0,0.0,0.0,0.0,0.0,0.0,0.0,0.0,0.0,0.0,0.0,0.0,0.0,0.0,0.0,0.0,0.0,0.0,0.0,0.0,0.0,0.0,0.0,0.0,0.0,0.0,0.0,0.0,0.0,6.0013,0.0,0.0,0.0,0.0,0.0,0.0,0.0,0.0,0.0,0.0,0.0,0.0,0.0,0.0,0.0,0.0,0.0,0.0,0.0,0.0,0.0,0.0,0.0,0.0,0.0,0.0,0.0,0.0,0.0,0.0,0.0,0.0,0.0,0.0,0.0,0.0,0.0,0.0,0.0,0.0,0.0,0.0,0.0,0.0,0.0,0.0,0.0,0.0,0.0,0.0,0.0,0.0,0.0,0.0,0.0,0.0,0.0,0.0,0.0,0.0,0.0,0.0,0.0,0.0,0.0,0.0,0.0,0.0,0.0,0.0,0.0,0.0,0.0,0.0,0.0,0.0,0.0,0.0,0.0,0.0,0.0,0.0,0.0,0.0,0.0,0.0,0.0,0.0,0.0,0.0,0.0,0.0,0.0,0.0,0.0,0.0,0.0,0.0,0.0,0.0,0.0,0.0,0.0,0.0,0.0,0.0,0.0,0.0,0.0,0.0,5.9202,5.9633,5.9668,6.0013,6.0771,0.0,0.0,0.0,0.0,0.0,0.0,0.0,0.0,0.0,0.0,0.0,0.0,0.0,0.0,0.0,0.0,0.0,0.0,0.0,0.0,0.0,0.0,0.0,0.0,0.0,0.0,0.0,0.0,0.0,0.0,0.0,0.0,0.0,0.0,0.0,0.0,0.0,0.0,0.0,0.0,0.0,0.0,0.0,0.0,0.0,0.0,0.0,0.0,0.0,0.0,0.0,0.0,0.0,0.0,0.0,0.0,0.0,0.0,0.0,0.0,0.0,0.0,0.0,0.0,0.0,0.0,0.0,0.0,0.0,0.0,0.0,0.0,0.0,0.0,0.0,0.0,0.0,0.0,0.0,0.0,0.0,0.0,0.0,0.0,0.0,0.0,0.0,0.0,0.0,0.0,0.0,0.0,0.0,0.0,0.0,0.0,0.0,0.0,0.0,0.0,0.0,0.0,0.0,0.0,0.0,0.0,0.0,0.0,0.0,0.0,0.0,0.0,6.0358,6.0806,6.153,0.0,0.0,0.0,0.0,0.0,0.0,0.0,0.0,0.0,0.0,0.0,0.0,0.0,0.0,0.0,0.0,0.0,0.0,0.0,0.0,0.0,0.0,0.0,0.0,0.0,0.0,0.0,0.0,0.0,0.0,0.0,0.0,0.0,0.0,0.0,0.0,0.0,0.0,0.0,0.0,0.0,0.0,0.0,0.0,0.0,0.0,0.0,0.0,0.0,0.0,0.0,0.0,0.0,0.0,0.0,0.0,0.0,0.0,0.0,0.0,0.0,0.0,0.0,0.0,0.0,0.0,0.0,0.0,0.0,0.0,0.0,0.0,0.0,0.0,0.0,0.0,0.0,0.0,0.0,0.0,0.0,0.0,0.0,0.0,0.0,0.0,0.0,0.0,0.0,0.0,0.0,0.0,0.0,0.0,0.0,0.0,0.0,0.0,0.0,0.0,0.0,0.0,0.0,0.0,0.0,0.0,0.0,0.0,0.0,0.0,6.0116,6.022,6.0875,0.0,6.2376,0.0,0.0,0.0,0.0,0.0,0.0,0.0,0.0,0.0,0.0,0.0,0.0,0.0,0.0,0.0,0.0,0.0,0.0,0.0,0.0,0.0,0.0,0.0,0.0,0.0,0.0,0.0,0.0,0.0,0.0,0.0,0.0,0.0,0.0,0.0,0.0,0.0,0.0,0.0,0.0,0.0,0.0,0.0,0.0,0.0,0.0,0.0,0.0,0.0,0.0,0.0,0.0,0.0,0.0,0.0,0.0,0.0,0.0,0.0,0.0,0.0,0.0,0.0,0.0,0.0,0.0,0.0,0.0,0.0,0.0,0.0,0.0,0.0,0.0,0.0,0.0,0.0,0.0,0.0,0.0,0.0,0.0,0.0,0.0,0.0,0.0,0.0,0.0,0.0,0.0,0.0,0.0,0.0,0.0,0.0,0.0,0.0,0.0,0.0,0.0,0.0,0.0,0.0,0.0,0.0,0.0,0.0,0.0,0.0,0.0,6.1224,6.1673,6.2416,6.297,0.0,0.0,0.0,0.0,0.0,0.0,0.0,0.0,0.0,0.0,0.0,0.0,0.0,0.0,0.0,0.0,0.0,0.0,0.0,0.0,0.0,0.0,0.0,0.0,0.0,0.0,0.0,0.0,0.0,0.0,0.0,0.0,0.0,0.0,0.0,0.0,0.0,0.0,0.0,0.0,0.0,0.0,0.0,0.0,0.0,0.0,0.0,0.0,0.0,0.0,0.0,0.0,0.0,0.0,0.0,0.0,0.0,0.0,0.0,0.0,0.0,0.0,0.0,0.0,0.0,0.0,0.0,0.0,0.0,0.0,0.0,0.0,0.0,0.0,0.0,0.0,0.0,0.0,0.0,0.0,0.0,0.0,0.0,0.0,0.0,0.0,0.0,0.0,0.0,0.0,0.0,0.0,0.0,0.0,0.0,0.0,0.0,0.0,0.0,0.0,0.0,0.0,0.0,0.0,0.0,0.0,0.0,0.0,0.0,0.0,6.1502,6.2352,6.3081,6.3653,6.3999,6.3965,0.0,0.0,0.0,0.0,0.0,0.0,0.0,0.0,0.0,0.0,0.0,0.0,0.0,0.0,0.0,0.0,0.0,0.0,0.0,0.0,0.0,0.0,0.0,0.0,0.0,0.0,0.0,0.0,0.0,0.0,0.0,0.0,0.0,0.0,0.0,0.0,0.0,0.0,0.0,0.0,0.0,0.0,0.0,0.0,0.0,0.0,0.0,0.0,0.0,0.0,0.0,0.0,0.0,0.0,0.0,0.0,0.0,0.0,0.0,0.0,0.0,0.0,0.0,0.0,0.0,0.0,0.0,0.0,0.0,0.0,0.0,0.0,0.0,0.0,0.0,0.0,0.0,0.0,0.0,0.0,0.0,0.0,0.0,0.0,0.0,0.0,0.0,0.0,0.0,0.0,0.0,0.0,0.0,0.0,0.0,0.0,0.0,0.0,0.0,0.0,0.0,0.0,0.0,0.0,0.0,0.0,0.0,0.0,6.1554,6.2474,6.3345,6.4076,6.418,6.418,0.0,0.0,0.0,0.0,0.0,0.0,0.0,0.0,0.0,0.0,0.0,0.0,0.0,0.0,0.0,0.0,0.0,0.0,0.0,0.0,0.0,0.0,0.0,0.0,0.0,0.0,0.0,0.0,0.0,0.0,0.0,0.0,0.0,0.0,0.0,0.0,0.0,0.0,0.0,0.0,0.0,0.0,0.0,0.0,0.0,0.0,0.0,0.0,0.0,0.0,0.0,0.0,0.0,0.0,0.0,0.0,0.0,0.0,0.0,0.0,0.0,0.0,0.0,0.0,0.0,0.0,0.0,0.0,0.0,0.0,0.0,0.0,0.0,0.0,0.0,0.0,0.0,0.0,0.0,0.0,0.0,0.0,0.0,0.0,0.0,0.0,0.0,0.0,0.0,0.0,0.0,0.0,0.0,0.0,0.0,0.0,0.0,0.0,0.0,0.0,0.0,0.0,0.0,0.0,0.0,0.0,0.0,0.0,0.0,6.2527,6.345,6.4096,6.4498,6.4393,6.4323,0.0,0.0,0.0,0.0,0.0,0.0,0.0,0.0,0.0,0.0,0.0,0.0,0.0,0.0,0.0,0.0,0.0,0.0,0.0,0.0,0.0,0.0,0.0,0.0,0.0,0.0,0.0,0.0,0.0,0.0,0.0,0.0,0.0,0.0,0.0,0.0,0.0,0.0,0.0,0.0,0.0,0.0,0.0,0.0,0.0,0.0,0.0,0.0,0.0,0.0,0.0,0.0,0.0,0.0,0.0,0.0,0.0,0.0,0.0,0.0,0.0,0.0,0.0,0.0,0.0,0.0,0.0,0.0,0.0,0.0,0.0,0.0,0.0,0.0,0.0,0.0,0.0,0.0,0.0,0.0,0.0,0.0,0.0,0.0,0.0,0.0,0.0,0.0,0.0,0.0,0.0,0.0,0.0,0.0,0.0,0.0,0.0,0.0,0.0,0.0,0.0,0.0,0.0,0.0,0.0,0.0,0.0,0.0,0.0,6.3555,0.0,6.4568,6.4672,6.4585,6.4515,0.0,0.0,0.0,0.0,0.0,0.0,0.0,0.0,0.0,0.0,0.0,0.0,0.0,0.0,0.0,0.0,0.0,0.0,0.0,0.0,0.0,0.0,0.0,0.0,0.0,0.0,0.0,0.0,0.0,0.0,0.0,0.0,0.0,0.0,0.0,0.0,0.0,0.0,0.0,0.0,0.0,0.0,0.0,0.0,0.0,0.0,0.0,0.0,0.0,0.0,0.0,0.0,0.0,0.0,0.0,0.0,0.0,0.0,0.0,0.0,0.0,0.0,0.0,0.0,0.0,0.0,0.0,0.0,0.0,0.0,0.0,0.0,0.0,0.0,0.0,0.0,0.0,0.0,0.0,0.0,0.0,0.0,0.0,0.0,0.0,0.0,0.0,0.0,0.0,0.0,0.0,0.0,0.0,0.0,0.0,0.0,0.0,0.0,0.0,0.0,0.0,0.0,0.0,0.0,0.0,0.0,0.0,0.0,6.3763,6.4636,6.4706,6.4706,6.4706,6.4706,6.4689,0.0,0.0,0.0,0.0,0.0,0.0,0.0,0.0,0.0,0.0,0.0,0.0,0.0,0.0,0.0,0.0,0.0,0.0,0.0,0.0,0.0,0.0,0.0,0.0,0.0,0.0,0.0,0.0,0.0,0.0,0.0,0.0,0.0,0.0,0.0,0.0,0.0,0.0,0.0,0.0,0.0,0.0,0.0,0.0,0.0,0.0,0.0,0.0,0.0,0.0,0.0,0.0,0.0,0.0,0.0,0.0,0.0,0.0,0.0,0.0,0.0,0.0,0.0,0.0,0.0,0.0,0.0,0.0,0.0,0.0,0.0,0.0,0.0,0.0,0.0,0.0,0.0,0.0,0.0,0.0,0.0,0.0,0.0,0.0,0.0,0.0,0.0,0.0,0.0,0.0,0.0,0.0,0.0,0.0,0.0,0.0,0.0,0.0,0.0,0.0,0.0,0.0,0.0,0.0,0.0,0.0,0.0,0.0,0.0,6.4894,6.5065,6.5132,6.5132,6.5132,6.5065,0.0,0.0,0.0,0.0,0.0,0.0,0.0,0.0,0.0,0.0,0.0,0.0,0.0,0.0,0.0,0.0,0.0,0.0,0.0,0.0,0.0,0.0,0.0,0.0,0.0,0.0,0.0,0.0,0.0,0.0,0.0,0.0,0.0,0.0,0.0,0.0,0.0,0.0,0.0,0.0,0.0,0.0,0.0,0.0,0.0,0.0,0.0,0.0,0.0,0.0,0.0,0.0,0.0,0.0,0.0,0.0,0.0,0.0,0.0,0.0,0.0,0.0,0.0,0.0,0.0,0.0,0.0,0.0,0.0,0.0,0.0,0.0,0.0,0.0,0.0,0.0,0.0,0.0,0.0,0.0,0.0,0.0,0.0,0.0,0.0,0.0,0.0,0.0,0.0,0.0,0.0,0.0,0.0,0.0,0.0,0.0,0.0,0.0,0.0,0.0,0.0,0.0,0.0,0.0,0.0,0.0,0.0,0.0,0.0,6.5316,6.5299,6.5299,6.5299,6.5299,6.5249,6.5132,0.0,0.0,0.0,0.0,0.0,0.0,0.0,0.0,0.0,0.0,0.0,0.0,0.0,0.0,0.0,0.0,0.0,0.0,0.0,0.0,0.0,0.0,0.0,0.0,0.0,0.0,0.0,0.0,0.0,0.0,0.0,0.0,0.0,0.0,0.0,0.0,0.0,0.0,0.0,0.0,0.0,0.0,0.0,0.0,0.0,0.0,0.0,0.0,0.0,0.0,0.0,0.0,0.0,0.0,0.0,0.0,0.0,0.0,0.0,0.0,0.0,0.0,0.0,0.0,0.0,0.0,0.0,0.0,0.0,0.0,0.0,0.0,0.0,0.0,0.0,0.0,0.0,0.0,0.0,0.0,0.0,0.0,0.0,0.0,0.0,0.0,0.0,0.0,0.0,0.0,0.0,0.0,0.0,0.0,0.0,0.0,0.0,0.0,0.0,0.0,0.0,0.0,0.0,0.0,0.0,0.0,0.0,0.0,6.5836,6.5529,6.5382,6.5365,6.5365,6.5332,0.0,0.0,0.0,0.0,0.0,0.0,0.0,0.0,0.0,0.0,0.0,0.0,0.0,0.0,0.0,0.0,0.0,0.0,0.0,0.0,0.0,0.0,0.0,0.0,0.0,0.0,0.0,0.0,0.0,0.0,0.0,0.0,0.0,0.0,0.0,0.0,0.0,0.0,0.0,0.0,0.0,0.0,0.0,0.0,0.0,0.0,0.0,0.0,0.0,0.0,0.0,0.0,0.0,0.0,0.0,0.0,0.0,0.0,0.0,0.0,0.0,0.0,0.0,0.0,0.0,0.0,0.0,0.0,0.0,0.0,0.0,0.0,0.0,0.0,0.0,0.0,0.0,0.0,0.0,0.0,0.0,0.0,0.0,0.0,0.0,0.0,0.0,0.0,0.0,0.0,0.0,0.0,0.0,0.0,0.0,0.0,0.0,0.0,0.0,0.0,0.0,0.0,0.0,0.0,0.0,0.0,0.0,0.0,0.0,6.6146,6.6068,6.6021,6.6021,6.5895,6.5768,0.0,0.0,0.0,0.0,0.0,0.0,0.0,0.0,0.0,0.0,0.0,0.0,0.0,0.0,0.0,0.0,0.0,0.0,0.0,0.0,0.0,0.0,0.0,0.0,0.0,0.0,0.0,0.0,0.0,0.0,0.0,0.0,0.0,0.0,0.0,0.0,0.0,0.0,0.0,0.0,0.0,0.0,0.0,0.0,0.0,0.0,0.0,0.0,0.0,0.0,0.0,0.0,0.0,0.0,0.0,0.0,0.0,0.0,0.0,0.0,0.0,0.0,0.0,0.0,0.0,0.0,0.0,0.0,0.0,0.0,0.0,0.0,0.0,0.0,0.0,0.0,0.0,0.0,0.0,0.0,0.0,0.0,0.0,0.0,0.0,0.0,0.0,0.0,0.0,0.0,0.0,0.0,0.0,0.0,0.0,0.0,0.0,0.0,0.0,0.0,0.0,0.0,0.0,0.0,0.0,0.0,0.0,0.0,6.6269,6.6376,6.6488,6.6518,6.6518,6.6254,6.6083,0.0,0.0,0.0,0.0,0.0,0.0,0.0,0.0,0.0,0.0,0.0,0.0,0.0,0.0,0.0,0.0,0.0,0.0,0.0,0.0,0.0,0.0,0.0,0.0,0.0,0.0,0.0,0.0,0.0,0.0,0.0,0.0,0.0,0.0,0.0,0.0,0.0,0.0,0.0,0.0,0.0,0.0,0.0,0.0,0.0,0.0,0.0,0.0,0.0,0.0,0.0,0.0,0.0,0.0,0.0,0.0,0.0,0.0,0.0,0.0,0.0,0.0,0.0,0.0,0.0,0.0,0.0,0.0,0.0,0.0,0.0,0.0,0.0,0.0,0.0,0.0,0.0,0.0,0.0,0.0,0.0,0.0,0.0,0.0,0.0,0.0,0.0,0.0,0.0,0.0,0.0,0.0,0.0,0.0,0.0,0.0,0.0,0.0,0.0,0.0,0.0,0.0,0.0,0.0,0.0,0.0,0.0,0.0,6.6527,6.6542,6.6742,6.683,6.683,6.6518,6.63,0.0,0.0,0.0,0.0,0.0,0.0,0.0,0.0,0.0,0.0,0.0,0.0,0.0,0.0,0.0,0.0,0.0,0.0,0.0,0.0,0.0,0.0,0.0,0.0,0.0,0.0,0.0,0.0,0.0,0.0,0.0,0.0,0.0,0.0,0.0,0.0,0.0,0.0,0.0,0.0,0.0,0.0,0.0,0.0,0.0,0.0,0.0,0.0,0.0,0.0,0.0,0.0,0.0,0.0,0.0,0.0,0.0,0.0,0.0,0.0,0.0,0.0,0.0,0.0,0.0,0.0,0.0,0.0,0.0,0.0,0.0,0.0,0.0,0.0,0.0,0.0,0.0,0.0,0.0,0.0,0.0,0.0,0.0,0.0,0.0,0.0,0.0,0.0,0.0,0.0,0.0,0.0,0.0,0.0,0.0,0.0,0.0,0.0,0.0,0.0,0.0,0.0,0.0,0.0,0.0,0.0,0.0,0.0,6.6786,6.6918,6.7026,6.7111,6.7111,6.6691,6.6452,0.0,0.0,0.0,0.0,0.0,0.0,0.0,0.0,0.0,0.0,0.0,0.0,0.0,0.0,0.0,0.0,0.0,0.0,0.0,0.0,0.0,0.0,0.0,0.0,0.0,0.0,0.0,0.0,0.0,0.0,0.0,0.0,0.0,0.0,0.0,0.0,0.0,0.0,0.0,0.0,0.0,0.0,0.0,0.0,0.0,0.0,0.0,0.0,7.2532,0.0,0.0,0.0,0.0,0.0,0.0,0.0,0.0,0.0,0.0,0.0,0.0,0.0,0.0,0.0,0.0,0.0,0.0,0.0,0.0,0.0,0.0,0.0,0.0,0.0,0.0,0.0,0.0,0.0,0.0,0.0,0.0,0.0,0.0,0.0,0.0,0.0,0.0,0.0,0.0,0.0,0.0,0.0,0.0,0.0,0.0,0.0,0.0,0.0,0.0,0.0,0.0,0.0,0.0,0.0,0.0,0.0,0.0,0.0,6.6976,6.7083,6.7168,6.721,6.7196,6.7346,6.7207,0.0,0.0,0.0,0.0,0.0,0.0,0.0,0.0,0.0,0.0,0.0,0.0,0.0,0.0,0.0,0.0,0.0,0.0,0.0,0.0,0.0,0.0,0.0,0.0,0.0,0.0,0.0,0.0,0.0,0.0,0.0,0.0,0.0,0.0,0.0,0.0,0.0,0.0,0.0,0.0,0.0,0.0,0.0,0.0,0.0,0.0,0.0,0.0,0.0,0.0,0.0,0.0,0.0,0.0,0.0,0.0,0.0,0.0,0.0,0.0,0.0,0.0,0.0,0.0,0.0,0.0,0.0,0.0,0.0,0.0,0.0,0.0,0.0,0.0,0.0,0.0,0.0,0.0,0.0,0.0,0.0,0.0,0.0,0.0,0.0,0.0,0.0,0.0,0.0,0.0,0.0,0.0,0.0,0.0,0.0,0.0,0.0,0.0,0.0,0.0,0.0,0.0,0.0,0.0,0.0,0.0,0.0,6.7005,6.7184,6.7421,6.7449,6.7536,6.7646,6.8317,6.8282,6.7491,0.0,0.0,0.0,0.0,0.0,0.0,0.0,0.0,0.0,0.0,0.0,0.0,0.0,0.0,0.0,0.0,0.0,0.0,0.0,0.0,0.0,0.0,0.0,0.0,0.0,0.0,0.0,0.0,0.0,0.0,0.0,0.0,0.0,0.0,0.0,0.0,0.0,0.0,7.2532,7.2532,0.0,0.0,0.0,0.0,0.0,0.0,0.0,0.0,7.2532,0.0,0.0,0.0,0.0,0.0,0.0,0.0,0.0,0.0,0.0,0.0,0.0,0.0,0.0,0.0,0.0,0.0,0.0,0.0,0.0,0.0,0.0,0.0,0.0,0.0,0.0,0.0,0.0,0.0,0.0,0.0,0.0,0.0,0.0,0.0,0.0,0.0,0.0,0.0,0.0,0.0,0.0,0.0,0.0,0.0,0.0,0.0,0.0,0.0,0.0,0.0,0.0,0.0,0.0,0.0,0.0,6.714,6.7331,6.7743,6.8415,6.8577,6.894,6.96,6.9747,6.9676,6.9462,0.0,0.0,0.0,0.0,0.0,0.0,0.0,0.0,0.0,0.0,0.0,0.0,0.0,0.0,0.0,0.0,0.0,0.0,0.0,0.0,0.0,0.0,0.0,0.0,0.0,0.0,0.0,0.0,0.0,0.0,0.0,0.0,0.0,0.0,0.0,0.0,0.0,0.0,0.0,7.2532,7.2532,0.0,0.0,0.0,0.0,0.0,0.0,0.0,0.0,7.2532,0.0,0.0,0.0,0.0,0.0,0.0,0.0,0.0,0.0,0.0,0.0,0.0,0.0,0.0,0.0,0.0,0.0,0.0,0.0,0.0,0.0,0.0,0.0,0.0,0.0,0.0,0.0,0.0,0.0,0.0,0.0,0.0,0.0,0.0,0.0,0.0,0.0,0.0,0.0,0.0,0.0,0.0,0.0,0.0,0.0,0.0,0.0,0.0,0.0,0.0,0.0,0.0,0.0,0.0,0.0,6.798,6.8466,6.8975,6.9411,6.9481,6.9706,7.0073,7.0513,7.0692,0.0,0.0,0.0,0.0,0.0,0.0,0.0,0.0,0.0,0.0,0.0,0.0,0.0,0.0,0.0,0.0,0.0,0.0,0.0,0.0,0.0,0.0,0.0,0.0,0.0,0.0,0.0,0.0,0.0,0.0,0.0,0.0,0.0,0.0,0.0,0.0,0.0,0.0,0.0,0.0,7.2532,7.2532,7.2532,0.0,0.0,0.0,0.0,0.0,0.0,7.2532,7.2532,0.0,0.0,0.0,0.0,0.0,0.0,0.0,0.0,0.0,0.0,0.0,0.0,0.0,0.0,0.0,0.0,0.0,0.0,0.0,0.0,0.0,0.0,0.0,0.0,0.0,0.0,0.0,0.0,0.0,0.0,0.0,0.0,0.0,0.0,0.0,0.0,0.0,0.0,0.0,0.0,0.0,0.0,0.0,0.0,0.0,0.0,0.0,0.0,0.0,0.0,0.0,0.0,0.0,0.0,0.0,6.9012,6.9612,7.0071,7.033,7.033,7.044,7.0587,7.1211,7.1527,0.0,0.0,0.0,0.0,0.0,0.0,0.0,0.0,0.0,0.0,0.0,0.0,0.0,0.0,0.0,0.0,0.0,0.0,0.0,0.0,0.0,0.0,0.0,0.0,0.0,0.0,0.0,0.0,0.0,0.0,0.0,0.0,0.0,0.0,0.0,0.0,0.0,0.0,0.0,0.0,0.0,7.2532,7.2532,7.2532,0.0,0.0,0.0,0.0,7.2532,7.2642,0.0,0.0,0.0,0.0,0.0,0.0,0.0,0.0,0.0,0.0,0.0,0.0,0.0,0.0,0.0,0.0,0.0,0.0,0.0,0.0,0.0,0.0,0.0,0.0,0.0,0.0,0.0,0.0,0.0,0.0,0.0,0.0,0.0,0.0,0.0,0.0,0.0,0.0,0.0,0.0,0.0,0.0,0.0,0.0,0.0,0.0,0.0,0.0,0.0,0.0,0.0,0.0,0.0,0.0,0.0,0.0,6.9935,7.0008,7.0426,7.1123,7.116,7.149,7.2202,7.2312,7.2349,0.0,0.0,0.0,0.0,0.0,0.0,0.0,0.0,0.0,0.0,0.0,0.0,0.0,0.0,0.0,0.0,0.0,0.0,0.0,0.0,0.0,0.0,0.0,0.0,0.0,0.0,0.0,0.0,0.0,0.0,0.0,0.0,0.0,0.0,0.0,0.0,0.0,0.0,0.0,0.0,0.0,7.2532,7.2532,7.2532,7.2532,0.0,0.0,7.2532,7.2532,7.312,0.0,0.0,0.0,0.0,0.0,0.0,0.0,0.0,0.0,0.0,0.0,0.0,0.0,0.0,0.0,0.0,0.0,0.0,0.0,0.0,0.0,0.0,0.0,0.0,0.0,0.0,0.0,0.0,0.0,0.0,0.0,0.0,0.0,0.0,0.0,0.0,0.0,0.0,0.0,0.0,0.0,0.0,0.0,0.0,0.0,0.0,0.0,0.0,0.0,0.0,0.0,0.0,0.0,0.0,0.0,7.0737,7.0793,7.1248,7.1637,7.1982,7.1967,7.2151,7.2496,7.2532,7.2532,0.0,0.0,0.0,0.0,0.0,0.0,0.0,0.0,0.0,0.0,0.0,0.0,0.0,0.0,0.0,0.0,0.0,0.0,0.0,0.0,0.0,0.0,0.0,0.0,0.0,0.0,0.0,0.0,0.0,0.0,0.0,0.0,0.0,0.0,0.0,0.0,0.0,0.0,0.0,0.0,0.0,0.0,7.2532,7.2532,0.0,0.0,0.0,7.334,7.3802,0.0,0.0,0.0,0.0,0.0,0.0,0.0,0.0,0.0,0.0,0.0,0.0,0.0,0.0,0.0,0.0,0.0,0.0,0.0,0.0,0.0,0.0,0.0,0.0,0.0,0.0,0.0,0.0,0.0,0.0,0.0,0.0,0.0,0.0,0.0,0.0,0.0,0.0,0.0,0.0,0.0,0.0,0.0,0.0,0.0,0.0,0.0,0.0,0.0,0.0,0.0,0.0,0.0,0.0,0.0,0.0,0.0,7.16,7.2202,7.2532,7.2532,7.2532,7.2532,7.2532,7.2532,0.0,0.0,0.0,0.0,0.0,0.0,0.0,0.0,0.0,0.0,0.0,0.0,0.0,0.0,0.0,0.0,0.0,0.0,0.0,0.0,0.0,0.0,0.0,0.0,0.0,0.0,0.0,7.2532,0.0,0.0,0.0,0.0,0.0,0.0,0.0,0.0,0.0,0.0,0.0,0.0,0.0,0.0,7.2789,7.2789,7.2973,7.334,0.0,0.0,7.4221,7.4793,7.5087,7.5212,0.0,0.0,0.0,0.0,0.0,0.0,0.0,0.0,0.0,0.0,0.0,0.0,0.0,0.0,0.0,0.0,0.0,0.0,0.0,0.0,0.0,0.0,0.0,0.0,0.0,0.0,0.0,0.0,0.0,0.0,0.0,0.0,0.0,0.0,0.0,0.0,0.0,0.0,0.0,0.0,0.0,0.0,0.0,0.0,0.0,0.0,0.0,0.0,0.0,0.0,0.0,0.0,0.0,0.0,7.2408,7.2422,7.2496,7.2532,7.2532,7.2532,7.2532,7.2532,7.2532,7.2532,0.0,0.0,0.0,0.0,0.0,0.0,0.0,0.0,0.0,0.0,0.0,0.0,0.0,0.0,0.0,0.0,0.0,0.0,0.0,0.0,0.0,0.0,0.0,0.0,0.0,0.0,0.0,0.0,0.0,0.0,0.0,0.0,0.0,0.0,0.0,0.0,0.0,0.0,0.0,0.0,0.0,7.3611,7.3611,7.4258,7.4757,0.0,7.483,7.483,7.4903,7.5542,7.6019,7.6019,0.0,0.0,0.0,0.0,0.0,0.0,0.0,0.0,0.0,0.0,0.0,0.0,0.0,0.0,0.0,0.0,0.0,0.0,0.0,0.0,0.0,0.0,0.0,0.0,0.0,7.2532,0.0,0.0,0.0,0.0,0.0,0.0,0.0,0.0,0.0,0.0,0.0,0.0,0.0,0.0,0.0,0.0,0.0,0.0,0.0,0.0,0.0,0.0,0.0,0.0,0.0,0.0,0.0,7.2532,7.2532,7.2532,7.2532,7.2532,7.2532,7.2532,7.2532,7.2532,7.2532,0.0,0.0,0.0,0.0,0.0,0.0,0.0,0.0,0.0,0.0,0.0,0.0,0.0,0.0,0.0,0.0,0.0,0.0,0.0,0.0,0.0,0.0,0.0,0.0,0.0,0.0,0.0,0.0,7.2936,7.3413,7.3927,0.0,0.0,0.0,0.0,0.0,0.0,0.0,0.0,0.0,0.0,7.4441,7.4441,7.4683,0.0,0.0,7.5652,7.5821,7.6298,7.6628,7.6848,7.6848,7.7105,0.0,0.0,0.0,0.0,0.0,0.0,0.0,0.0,0.0,0.0,0.0,0.0,0.0,0.0,0.0,0.0,0.0,0.0,0.0,0.0,0.0,0.0,0.0,0.0,0.0,0.0,7.2532,7.2532,0.0,0.0,0.0,0.0,0.0,0.0,0.0,0.0,0.0,0.0,0.0,0.0,0.0,0.0,0.0,0.0,0.0,0.0,0.0,0.0,0.0,0.0,0.0,0.0,7.2532,7.2532,7.2532,7.2532,7.2532,7.2532,7.2532,7.2532,7.2532,7.2532,0.0,0.0,0.0,0.0,0.0,0.0,0.0,0.0,0.0,0.0,0.0,0.0,0.0,0.0,0.0,0.0,0.0,0.0,0.0,0.0,0.0,0.0,0.0,0.0,0.0,0.0,0.0,0.0,7.3744,7.4258,7.483,0.0,0.0,0.0,0.0,0.0,0.0,0.0,0.0,0.0,0.0,7.5234,7.5234,7.5454,7.5821,7.6387,7.646,7.668,7.7215,7.7326,7.7326,7.7326,0.0,0.0,0.0,0.0,0.0,0.0,0.0,0.0,0.0,0.0,0.0,0.0,0.0,0.0,0.0,0.0,0.0,0.0,0.0,0.0,0.0,0.0,0.0,0.0,0.0,0.0,7.2606,7.2532,0.0,7.2569,7.2569,0.0,0.0,0.0,0.0,0.0,0.0,0.0,0.0,0.0,0.0,0.0,0.0,0.0,0.0,0.0,0.0,0.0,0.0,0.0,0.0,0.0,0.0,7.2532,7.2532,7.2532,7.2532,7.2532,7.2532,7.2569,7.2569,7.2532,7.2532,7.2569,0.0,0.0,0.0,0.0,0.0,0.0,0.0,0.0,0.0,0.0,0.0,0.0,0.0,0.0,0.0,0.0,0.0,0.0,0.0,0.0,0.0,0.0,0.0,0.0,0.0,0.0,7.483,7.4867,7.4903,0.0,0.0,0.0,0.0,0.0,0.0,0.0,0.0,0.0,7.494,7.5579,7.6056,7.6093,7.6738,7.7215,7.7252,7.7252,7.7289,7.7289,7.7326,7.7326,0.0,0.0,0.0,0.0,0.0,0.0,0.0,0.0,0.0,0.0,0.0,0.0,0.0,0.0,0.0,0.0,0.0,0.0,0.0,0.0,0.0,0.0,0.0,0.0,0.0,0.0,0.0,7.4111,7.4096,0.0,0.0,0.0,0.0,0.0,0.0,0.0,0.0,0.0,7.4096,0.0,7.4111,7.4096,0.0,0.0,0.0,0.0,0.0,0.0,0.0,0.0,0.0,0.0,0.0,0.0,7.2532,7.2532,7.301,7.3303,7.3303,7.3802,7.4096,7.4111,7.4096,7.4096,7.4096,0.0,0.0,0.0,0.0,0.0,0.0,0.0,0.0,0.0,0.0,0.0,0.0,0.0,0.0,0.0,0.0,0.0,0.0,0.0,0.0,0.0,0.0,0.0,0.0,0.0,7.5124,0.0,0.0,0.0,0.0,0.0,0.0,0.0,0.0,0.0,0.0,7.6151,7.6518,7.6481,7.6738,7.6922,7.6885,7.7105,7.7326,0.0,0.0,0.0,0.0,0.0,0.0,0.0,0.0,0.0,0.0,0.0,0.0,0.0,0.0,7.7326,7.7326,7.7202,7.7045,7.6834,0.0,0.0,0.0,0.0,0.0,0.0,0.0,0.0,0.0,0.0,0.0,0.0,0.0,0.0,7.4903,7.4903,7.4903,7.4903,0.0,0.0,0.0,0.0,0.0,0.0,0.0,7.4903,7.4903,7.4903,7.4903,7.4903,7.4903,7.4903,7.4353,0.0,0.0,0.0,0.0,0.0,0.0,0.0,0.0,7.3325,7.3377,7.3854,7.4111,7.4147,7.4625,7.4903,7.4903,7.4903,7.4903,7.4903,7.4903,7.4903,0.0,0.0,0.0,0.0,0.0,0.0,0.0,0.0,0.0,0.0,0.0,0.0,0.0,0.0,0.0,0.0,0.0,0.0,0.0,0.0,0.0,0.0,0.0,7.5968,0.0,0.0,0.0,0.0,0.0,0.0,0.0,0.0,0.0,7.6607,7.6959,7.7326,7.7326,7.7326,7.7326,7.7326,0.0,0.0,0.0,0.0,0.0,0.0,0.0,7.7839,7.8133,7.817,7.817,7.817,7.817,7.817,7.817,0.0,0.0,7.7436,7.7202,7.7045,7.6834,7.6692,7.6564,7.6309,7.6074,7.5868,0.0,0.0,0.0,0.0,7.4977,0.0,0.0,0.0,7.5014,7.5014,0.0,7.5014,0.0,0.0,0.0,0.0,7.4977,7.5014,0.0,0.0,7.5014,7.4977,7.5014,7.5014,7.4977,7.4977,7.5014,7.4977,7.4977,7.4977,7.494,0.0,0.0,0.0,0.0,0.0,7.4903,7.4867,7.4903,7.494,7.494,7.4977,7.4977,7.5014,7.5014,7.5014,7.4977,7.5014,7.4977,7.4977,7.5763,0.0,0.0,0.0,0.0,0.0,0.0,0.0,0.0,0.0,0.0,0.0,0.0,0.0,0.0,0.0,0.0,0.0,0.0,0.0,0.0,7.7326,0.0,0.0,0.0,0.0,0.0,0.0,0.0,0.0,0.0,7.7362,7.7436,7.7362,7.7326,7.7326,0.0,0.0,0.0,0.0,7.7399,7.7399,7.7399,7.7693,7.8516,7.8626,7.8883,7.9633,0.0,0.0,7.9779,7.9779,7.9743,7.9779,7.9706,7.9286,7.7693,7.7348,7.7191,7.6979,7.6874,7.6637,7.6417,7.6376,7.6151,7.6628,0.0,0.0,0.0,0.0,7.6628,7.6628,7.6628,7.6628,7.6592,7.6628,7.6628,0.0,0.0,0.0,0.0,0.0,0.0,7.6628,7.6628,7.6628,7.6628,7.6628,7.6592,7.6628,7.6628,7.6628,7.6592,7.6628,7.6628,7.6041,7.4903,0.0,0.0,0.0,0.0,7.4903,7.494,7.5454,7.5763,7.5763,7.6335,7.6592,7.6628,7.6628,7.6628,7.6592,7.6628,7.6628,7.6628,7.6848,0.0,0.0,0.0,0.0,0.0,0.0,0.0,0.0,0.0,0.0,0.0,0.0,0.0,0.0,0.0,0.0,0.0,0.0,0.0,7.7326,7.7326,7.7326,0.0,0.0,0.0,0.0,0.0,0.0,0.0,0.0,0.0,7.8993,7.8023,7.7326,0.0,0.0,7.8222,7.8222,7.8699,7.9066,7.9066,7.9103,0.0,7.9396,7.9449,7.9559,7.9779,7.9816,7.9816,7.9816,7.9816,7.9816,7.9816,7.9816,7.9633,7.9213,7.894,7.8727,7.8548,7.842,7.8235,7.8048,7.7858,7.7682,7.828,7.8222,7.7582,7.7472,7.7803,7.7803,7.7986,7.8295,7.828,7.8295,7.8295,7.8295,7.8096,7.7803,7.7436,0.0,0.0,0.0,7.7326,7.7326,7.7326,7.7326,7.7326,7.7326,7.7326,7.7326,7.7326,7.7326,7.7326,7.7326,7.6812,7.5894,0.0,7.5858,7.5858,7.5858,7.5858,7.5858,7.6335,7.657,7.6592,7.7069,7.7326,7.7326,7.7326,7.7326,7.7326,7.7326,7.7326,7.7326,7.7326,7.7326,0.0,0.0,0.0,0.0,0.0,0.0,0.0,0.0,0.0,0.0,0.0,7.7326,7.7326,0.0,0.0,0.0,7.7619,7.7803,7.7839,7.8096,0.0,0.0,0.0,0.0,0.0,0.0,0.0,7.9029,7.9082,7.9265,7.9706,7.8919,7.8295,7.8295,7.8736,7.9082,7.9066,0.0,7.9816,7.9816,7.9816,7.9926,8.022,8.0293,8.0351,8.0734,8.0771,8.0771,8.0771,8.0771,8.0771,8.0755,8.0771,8.0734,8.0771,8.0638,8.0251,7.9486,7.9212,7.9027,7.8857,7.8667,7.851,7.9816,7.9669,7.8148,7.7949,7.8699,7.8699,7.9103,7.9779,7.9779,7.9816,7.9816,7.9816,7.9412,7.8662,7.7876,0.0,7.7472,7.7509,7.7546,7.7509,7.7509,7.7509,7.7509,7.7509,7.7509,7.7509,7.7509,7.7509,7.7509,7.7509,7.7509,7.7509,7.7509,7.7436,7.7326,7.7289,7.7326,7.7289,7.7289,7.7289,7.7326,7.7362,7.7399,7.7399,7.7472,7.7509,7.7509,7.7509,7.7509,7.7509,7.7509,7.7472,7.7509,0.0,0.0,0.0,0.0,0.0,0.0,0.0,0.0,0.0,0.0,0.0,0.0,0.0,0.0,7.7509,7.8222,0.0,7.8699,7.9376,0.0,0.0,0.0,7.9816,7.9816,7.9816,7.9816,7.989,0.0,0.0,8.0,8.0,8.0,8.0,7.9926,7.989,7.989,8.0,8.0,8.011,8.0036,8.0293,8.0975,8.1085,8.1305,8.1929,8.2186,8.2113,8.2076,8.2113,8.215,8.2076,8.2186,8.215,8.215,8.2076,8.166,8.0068,7.9612,7.9394,7.9371,7.9184,7.9047,7.9816,7.9779,7.9376,7.9339,7.9486,7.9522,7.9633,7.9779,7.9816,7.9816,7.9816,7.9816,7.9669,7.9522,7.9302,7.9176,7.9213,7.9176,7.9176,7.9213,7.9229,7.9213,7.9176,7.9213,7.9213,7.9213,7.9229,7.9176,7.9213,7.9213,7.9213,7.9213,7.9229,7.8589,7.7362,7.7326,7.7326,7.7326,7.7326,7.7326,7.7326,7.7949,7.8295,7.8295,7.8883,7.9213,7.9176,7.9229,7.9213,7.9213,7.9176,7.9213,7.9213,7.9213,0.0,0.0,0.0,0.0,0.0,0.0,0.0,0.0,0.0,7.9229,7.9229,0.0,7.9213,0.0,7.9412,7.9522,7.9522,7.9669,0.0,0.0,7.9816,7.9816,7.9816,7.9816,8.0036,8.0645,8.0718,8.0938,8.1562,8.1599,8.1615,8.1599,8.1085,8.0718,8.0755,8.1269,8.1615,8.1599,8.1562,8.1672,8.1819,8.1929,8.1966,8.215,8.2186,8.2186,8.2186,8.2186,8.2186,8.2186,8.2186,8.2186,8.2186,8.2186,8.2076,8.166,8.1403,8.12,8.1015,8.0844,8.0724,8.0881,8.0881,8.0865,8.0881,8.0828,8.0498,8.0534,8.0881,8.0881,8.0865,8.0881,8.0514,8.0314,8.033,7.9963,7.9816,7.9816,7.9816,7.9816,7.9816,7.9816,7.9816,7.9816,7.9816,7.9816,7.9816,7.9816,7.9816,7.9816,7.9816,7.9816,7.9816,7.9816,7.9323,7.8442,7.8405,7.8405,7.8405,7.8405,7.8442,7.8442,7.8883,7.914,7.9155,7.9559,7.9816,7.9816,7.9816,7.9816,7.9816,7.9816,7.9816,7.9816,7.9816,7.9816,0.0,0.0,0.0,0.0,0.0,0.0,0.0,0.0,0.0,0.0,0.0,7.9816,7.9816,8.0094,8.033,8.0314,8.0661,8.0881,8.0865,8.0881,8.0881,8.0881,8.0844,8.1028,8.1489,8.1525,8.1709,8.215,8.2186,8.2186,8.2186,8.1819,8.1525,8.1562,8.1929,8.2186,8.2186,8.2186,8.2186,8.2186,8.2186,8.2186,8.2186,8.2186,8.2186,8.2186,8.2186,8.2186,8.2186,8.2186,8.2186,8.2186,8.2186,8.2186,8.217,8.2104,8.1952,8.1785,8.1598,8.1478,8.2186,8.2186,8.2186,8.2186,8.215,8.1452,8.1562,8.2186,8.2186,8.2186,8.215,8.1452,8.1158,8.1085,8.044,8.011,8.011,8.011,8.011,8.011,8.011,8.011,8.011,8.011,8.011,8.011,8.011,8.011,8.011,8.011,8.011,8.011,8.011,8.011,8.011,8.011,8.0,7.9816,7.9816,7.9816,7.9816,7.989,7.9963,7.9963,8.0036,8.011,8.011,8.011,8.011,8.011,8.011,8.011,8.011,8.011,8.011,0.0,8.011,0.0,0.0,0.0,0.0,0.0,0.0,0.0,0.0,8.011,8.011,8.011,8.0718,8.1158,8.1158,8.1782,8.2186,8.2186,8.2186,8.2186,8.2186,8.2186,8.2186,8.2186,8.2296,8.237,8.237,8.2406,8.2517,8.259,8.259,8.259,8.2517,8.2443,8.2406,8.2333,8.2443,8.27,8.2663,8.259,8.259,8.2553,8.2627,8.248,8.259,8.259,8.257,8.2553,8.2627,8.259,8.2517,8.2553,8.2553,8.2627,8.2627,8.2451,8.2025,8.1785,8.163,8.2186,8.2186,8.2186,8.2186,8.2186,8.2039,8.2076,8.2186,8.2186,8.2186,8.2186,8.2039,8.1966,8.1966,8.1819,8.1762,8.1762,8.1762,8.1762,8.1746,8.1746,8.1762,8.1746,8.1746,8.1762,8.1746,8.1746,8.1746,8.1746,8.1746,8.1746,8.1762,8.1746,8.1746,8.1746,0.0,0.0,0.0,7.9816,7.9816,7.9816,8.0424,8.0791,8.0791,8.1415,0.0,8.1762,8.1746,8.1746,8.1762,8.1762,0.0,0.0,0.0,0.0,0.0,0.0,0.0,0.0,0.0,0.0,0.0,8.1893,8.1762,8.1746,8.1762,8.1746,8.1746,8.1893,8.1966,8.1966,8.2113,8.2186,8.2186,8.2186,8.2186,8.2186,8.2186,8.2186,8.2186,8.2774,8.3161,8.3197,8.3728,8.4132,8.4058,8.4132,8.4132,8.4095,8.3544,8.3197,8.3214,8.3654,8.4095,8.4132,8.4095,8.3985,8.4132,8.4132,8.4095,8.4058,8.4095,8.4132,8.4095,8.4132,8.4095,8.4095,8.4132,8.4058,8.4132,8.4132,8.3728,8.2447,8.2005,8.1835,8.303,8.3361,8.3361,8.3361,0.0,8.3361,8.3398,8.3361,8.2517,8.2186,8.2186,8.2186,8.2186,8.2186,8.2186,8.2186,8.2186,8.2186,8.2186,8.2186,8.2186,8.2186,8.2186,8.2186,8.2186,8.2186,8.2186,8.2186,8.2186,8.2186,8.2186,8.2186,8.2186,8.2186,8.2186,8.2186,8.1782,8.0975,8.0991,8.0975,8.0975,8.1379,8.1599,8.1599,8.2003,0.0,0.0,0.0,0.0,0.0,0.0,0.0,0.0,8.2186,8.2186,8.2186,8.2186,8.2186,8.2186,8.2186,8.237,8.2774,8.3141,8.303,8.226,8.2186,8.2186,8.2186,8.2186,8.237,8.2737,8.281,8.2957,8.3324,8.3361,8.3398,8.3398,8.3361,8.3361,8.3434,8.3711,8.3968,8.4005,8.4315,8.4572,8.4609,8.4609,8.4609,8.4572,8.4278,8.4005,8.4022,8.4315,8.4572,8.4609,8.4609,8.4609,8.4609,8.4609,8.4609,8.4609,8.4609,8.4609,8.4609,8.4609,8.4609,8.4609,8.4609,8.4609,8.4609,8.4609,8.4389,8.3508,8.2984,8.2495,8.4022,8.4609,8.4609,8.4609,8.4609,8.4609,8.4609,8.4499,8.3177,0.0,8.2627,8.2643,8.2627,8.2627,8.2627,8.2627,8.2627,8.2627,8.2627,8.2627,8.2627,8.2627,8.2627,8.259,8.2627,8.2627,8.2627,8.2627,8.2627,8.2627,8.2627,8.2627,8.2627,8.259,8.2627,8.2627,8.2627,8.2627,8.2333,8.2186,8.2186,8.2186,8.2186,8.2186,8.2186,8.226,8.2406,8.2406,8.248,8.259,8.2627,8.2627,8.2627,8.2627,8.2627,8.2627,8.2627,8.2627,8.2627,8.2627,8.292,8.3581,8.4225,8.4058,8.2737,8.2627,8.2627,8.2627,8.2627,8.292,8.3564,8.3601,8.3858,8.4535,8.4609,8.4572,8.4572,8.4609,8.4535,8.4609,8.4682,8.4792,8.4829,8.5013,8.5049,8.5049,8.5159,8.5013,8.5013,8.4939,8.4903,8.5086,8.5233,8.5123,8.5049,8.5123,8.5049,8.5159,8.5123,8.5049,8.5049,8.5013,8.5013,8.5159,8.5013,8.5086,8.5086,8.5159,8.5013,8.5013,8.5013,8.4976,8.4792,8.4315,8.3638,8.4499,8.4609,8.4609,8.4609,8.4609,8.4609,8.4609,8.4572,8.4352,8.4278,8.4242,8.4278,8.4278,8.4278,8.4242,8.4278,8.4278,8.4278,8.4242,8.4242,8.4242,8.4278,8.4278,8.4278,8.4278,8.4278,8.4242,8.4278,8.4242,8.4242,8.4278,8.4242,8.4278,8.4242,8.4278,8.4278,8.4278,8.4242,8.292,8.2186,8.2186,8.2186,8.2186,8.2186,8.2223,8.2517,8.3214,8.3234,8.3528,8.4205,8.4278,8.4278,8.4278,8.4242,8.4278,8.4278,8.4278,8.4278,8.4242,8.4242,8.4315,8.4425,8.4535,8.4499,8.4278,8.4278,8.4278,8.4242,8.4168,8.4315,8.4425,8.4425,8.4499,8.4646,8.4609,8.4609,8.4682,8.4682,8.4719,8.4719,8.5196,8.5637,8.5673,8.6187,8.65,8.6611,8.639,8.6574,8.6407,8.6077,8.5967,8.6481,8.6664,8.6664,8.6464,8.6647,8.65,8.6647,8.6537,8.6481,8.6464,8.6481,8.6481,8.6611,8.6481,8.6537,8.6554,8.6647,8.6537,8.6481,8.6464,8.6317,8.5747,8.5453,8.5123,8.5527,8.5894,8.5894,8.5877,8.5894,8.5894,8.5877,8.5894,8.5913,8.5416,8.4646,8.4609,8.4609,8.4609,8.4609,8.4609,8.4609,8.4609,8.4609,8.4609,8.4609,8.4609,8.4609,8.4609,8.4609,8.4609,8.4609,8.4609,8.4609,8.4609,8.4609,8.4609,8.4609,8.4609,8.4609,8.4609,8.4609,8.4572,8.3875,8.3508,8.3508,8.3508,8.3508,8.3508,8.3508,8.3654,8.4042,8.4058,8.4242,8.4609,8.4609,8.4609,8.4609,8.4609,8.4609,8.4609,8.4609,8.4609,8.4609,8.5013,8.5233,8.527,8.5673,8.5894,8.5877,8.5086,8.4609,8.4609,8.4609,8.4792,8.5196,8.5233,8.5416,8.584,8.5877,8.593,8.5894,8.5894,8.5894,8.593,8.6224,8.6444,8.6444,8.6775,8.7014,8.7014,8.7014,8.7014,8.7014,8.6738,8.6554,8.6921,8.7014,8.7014,8.7014,8.7014,8.7014,8.7014,8.7014,8.7014,8.7014,8.7014,8.7014,8.7014,8.7014,8.7014,8.7014,8.7014,8.7014,8.7014,8.7014,8.6811,8.6518,8.6444,8.6004,8.6444,8.7014,8.7014,8.7014,8.7014,8.7014,8.7014,8.7014,8.6978,8.6297,8.5233,8.5159,8.5159,8.5159,8.5159,8.5159,8.5123,8.5159,8.5159,8.5159,8.5159,8.5159,8.5159,8.5123,8.5159,8.5123,8.5159,8.5159,8.5159,8.5159,8.5159,8.5159,8.5123,8.5159,8.5123,8.5123,8.5159,8.5159,8.5159,8.4976,8.4609,8.4609,8.4609,8.4609,8.4572,8.4682,8.4866,8.4866,8.4976,8.5123,8.5159,8.5159,8.5159,8.5159,8.5123,8.5123,8.5159,8.5159,8.5196,8.571,8.6077,8.6077,8.6664,8.7014,8.6904,8.5877,8.5123,8.5159,8.5196,8.5453,8.593,8.6077,8.6334,8.6904,8.7014,8.6904,8.6978,8.7014,8.7014,8.7014,8.7014,8.6978,8.7014,8.7014,8.7014,8.7014,8.7014,8.7014,8.7014,8.7014,8.7014,8.7014,8.7014,8.7014,8.7014,8.7014,8.7014,8.7014,8.7014,8.7014,8.7014,8.7014,8.7014,8.7014,8.7014,8.7014,8.7014,8.7014,8.7014,8.7014,8.7014,8.6978,8.6941,8.6941,8.6647,8.6904,8.6978,8.7014,8.7014,8.7014,8.7014,8.7014,8.7014,8.7014,8.6941,8.6684,8.6757,8.6721,8.6757,8.6721,8.6684,8.6738,8.6757,8.6721,8.6721,8.6794,8.6757,8.6684,8.6721,8.6757,8.6721,8.6684,8.6611,8.6647,8.6684,8.6738,8.6757,8.6775,8.6721,8.6738,8.6721,8.6757,8.6757,8.6794,8.606,8.4682,8.4609,8.4609,8.4609,8.4609,8.4939,8.5637,8.569,8.6004,8.6684,8.6721,8.6757,8.6757,8.6757,8.6757,8.6757,8.6757,8.6794,8.6757,8.6831,8.6867,8.6867,8.6941,8.7014,8.7014,8.6831,8.6775,8.6684,8.6721,8.6738,8.6867,8.6867,8.6885,8.6941,8.7014,8.7014,8.7014,8.7014,8.7014,8.7014,8.7014,8.7014,8.7014,8.7014,8.7014,8.7014,8.7014,8.7014,8.7014,8.7014,8.7014,8.7014,8.7014,8.7014,8.7014,8.7014,8.7014,8.7014,8.7014,8.7014,8.7014,8.7014,8.7014,8.7014,8.7014,8.7014,8.7014,8.7014,8.7014,8.7014,8.7014,8.7014,8.7014,8.7014,8.6794,8.7014,8.7014,8.7014,8.7014,8.7014,8.7014,8.7014,8.7014,8.7014,8.7014,8.7014,8.7014,8.7014,8.7014,8.7014,8.7014,8.7014,8.7014,8.7014,8.7014,8.7014,8.7014,8.7014,8.7014,8.7014,8.7014,8.7014,8.7014,8.7014,8.7014,8.7014,8.7014,8.7014,8.7014,8.7014,8.7014,8.7014,8.7014,8.7014,8.6647,8.6114,8.604,8.604,8.6023,8.604,8.6151,8.6481,8.6518,8.6664,8.6978,8.7014,8.7014,8.7014,8.7014,8.7014,8.7014,8.7014,8.7014,8.7014,8.7014,8.7014,8.7014,8.7014,8.7014,8.7014,8.7014,8.7014,8.7014,8.7014,8.7014,8.7014,8.7014,8.7014,8.7014,8.7014,8.7014,8.7014,8.7014,8.7014,8.7014,8.7014,8.7014,8.7014,8.7014,8.7014,8.7014,8.7014,8.7014,8.7014,8.7014,8.7014,8.7014,8.7014,8.7014,8.7014,8.7014,8.7014,8.7014,8.7014,8.7014,8.7014,8.7014,8.7014,8.7014,8.7014,8.7014,8.7014,8.7014,8.7014,8.7014,8.7014,8.7014,8.7014,8.7014,8.7014,8.7014,8.7014,8.7014,8.7014,8.7014,8.7014,8.7014,8.7014,8.7014,8.7014,8.7014,8.7014,8.7014,8.7014,8.7014,8.7014,8.7014,8.7014,8.7014,8.7014,8.7014,8.7014,8.7014,8.7014,8.7014,8.7014,8.7014,8.7014,8.7014,8.7014,8.7014,8.7014,8.7014,8.7014,8.7014,8.7014,8.7014,8.7014,8.7014,8.7014,8.6978,8.7014,8.7014,8.7014,8.7014,8.7014,8.7014,8.7014,8.7014,8.7014,8.7014,8.7014,8.7014,8.7014,8.7014,8.7014,8.7014,8.7014,8.7014,8.7014,8.7014,8.7014,8.7014,8.7014,8.7014,8.7014,8.7014,8.7014,8.7014,8.7014,8.7014,8.7014,8.7014,8.7014,8.7014,8.7014,8.7014,8.7014,8.7014,8.7014,8.7014,8.7014,8.7014,8.7014,8.7014,8.7014,8.7014,8.7014,8.7014,8.7014,8.7014,8.7014,8.7014,8.7014,8.7014,8.7014,8.7014,8.7014,8.7014,8.7014,8.7014,8.7014,8.7014,8.7014,8.7014,8.7014,8.7014,8.7014,8.7014,8.7014,8.7014,8.7014,8.7014,8.7014,8.7014,8.7014,8.7014,8.7014,8.7014,8.7014,8.7014,8.7014,8.7014,8.7014,8.7014,8.7014,8.7014,8.7014,8.7014,8.7014,8.7014,8.7014,8.7014,8.7014,8.7014,8.7014,8.7014,8.7014,8.7014,8.7014,8.7014,8.7014,8.7014,8.7014,8.7014,8.7014,8.7014,8.7014,8.7014,8.7014,8.7014,8.7014,8.7014,8.7014,8.7014,8.7014,8.7014,8.7014,8.7014,8.7014,8.7014,8.7014,8.7014,8.7014,8.7014,8.7014,8.7014,8.7014,8.7014,8.7014,8.7014,8.7014,8.7014,8.7014,8.7014,8.7014,8.7014,8.7014,8.7014,8.7124,8.7142,8.7161,8.7051,8.7198,8.7161,8.7161,8.7088,8.7051,8.7088,8.7068,8.7051,8.7088,8.7234,8.7051,8.7124,8.7198,8.7271,8.7124,8.7014,8.7161,8.7198,8.7088,8.7161,8.7271,8.7161,8.7198,8.7198,8.7161,8.7014,8.7051,8.7014,8.7014,8.7014,8.7014,8.7014,8.7014,8.7014,8.7014,8.7014,8.7014,8.7014,8.7014,8.7014,8.7014,8.7014,8.7014,8.7014,8.7014,8.7014,8.7014,8.7014,8.7014,8.7014,8.7014,8.7014,8.7014,8.7014,8.7014,8.7014,8.7014,8.7014,8.7014,8.7014,8.7014,8.7014,8.7014,8.7014,8.7014,8.7014,8.7014,8.7014,8.7014,8.7014,8.7014,8.7014,8.7014,8.7014,8.7014,8.7014,8.7014,8.7014,8.7014,8.7014,8.7014,8.7014,8.7014,8.7014,8.7014,8.7014,8.7014,8.7014,8.7014,8.7014,8.7014,8.7014,8.7014,8.7014,8.7014,8.7014,8.7014,8.7014,8.7014,8.7014,8.7014,8.7014,8.7014,8.7014,8.7014,8.7014,8.7014,8.7014,8.7014,8.7014,8.7288,8.7655,8.7802,8.7986,8.8372,8.8519,8.8519,8.8299,8.7638,8.7215,8.7655,8.7766,8.7968,8.8409,8.8519,8.8556,8.8556,8.8519,8.8556,8.8445,8.8519,8.8519,8.8519,8.8519,8.8482,8.8519,8.8519,8.8445,8.8519,8.8556,8.8519,8.8556,8.7565,8.7014,8.7014,8.7014,8.7051,8.7088,8.7198,8.7234,8.7308,8.7234,8.7088,8.7088,8.7014,8.7014,8.7014,8.7014,8.7014,8.7014,8.7014,8.7014,8.7014,8.7014,8.7014,8.7014,8.7014,8.7014,8.7014,8.7014,8.7014,8.7014,8.7014,8.7014,8.7014,8.7014,8.7014,8.7014,8.7014,8.7014,8.7014,8.7014,8.7014,8.7014,8.7014,8.7014,8.7014,8.7014,8.7014,8.7014,8.7014,8.7014,8.7014,8.7014,8.7014,8.7014,8.7014,8.7014,8.7014,8.7014,8.7234,8.7399,8.7399,8.7638,8.7785,8.7748,8.7785,8.7491,8.7051,8.7014,8.7014,8.7014,8.7014,8.7014,8.7014,8.7014,8.7124,8.7344,8.7381,8.7545,8.7748,8.7785,8.7785,8.7785,8.7785,8.8042,8.8536,8.861,8.8886,8.9253,8.94,8.94,8.9216,8.8409,8.8005,8.85,8.861,8.8776,8.929,8.9363,8.9363,8.929,8.929,8.9326,8.94,8.9363,8.9326,8.94,8.94,8.94,8.94,8.94,8.94,8.94,8.929,8.9253,8.9179,8.8445,8.8115,8.8078,8.7895,8.7711,8.7565,8.7638,8.7638,8.7675,8.7528,8.7308,8.7161,8.7051,8.7051,8.7088,8.7014,8.7014,8.7014,8.7014,8.7014,8.7088,8.7124,8.7051,8.7198,8.7234,8.7234,8.7088,8.7198,8.7161,8.7271,8.7344,8.7161,8.7271,8.7161,8.7308,8.7124,8.7234,8.7271,8.7124,8.7014,8.7014,8.7014,8.7014,8.7014,8.7051,8.7124,8.7088,8.7124,8.7234,8.7271,8.7234,8.7124,8.7252,8.7308,8.7088,8.7234,8.7161,8.7344,8.7912,8.8206,8.828,8.8849,8.9143,8.9216,8.9216,8.8556,8.7198,8.7161,8.7234,8.7161,8.7161,8.7051,8.7198,8.7234,8.7418,8.8096,8.8206,8.861,8.9179,8.9216,8.9143,8.9143,8.929,8.9216,8.9363,8.94,8.9473,8.9657,8.9657,8.9583,8.962,8.951,8.94,8.9436,8.9436,8.9436,8.9546,8.9473,8.9436,8.9583,8.9657,8.951,8.9473,8.9693,8.9767,8.973,8.9693,8.973,8.9803,8.9803,8.9546,8.9583,8.9803,8.9987,8.973,8.9436,8.9436,8.94,8.9143,8.8923,8.8739,8.8739,8.8666,8.8629,8.8372,8.8152,8.7858,8.7748,8.7638,8.7601,8.7344,8.7234,8.7234,8.7271,8.7051,8.8666,8.8666,8.8666,8.8666,8.8629,8.8666,8.8666,8.8629,8.8629,8.8666,8.8666,8.8666,8.8666,8.8629,8.8666,8.8629,8.8666,8.8629,8.8078,8.7198,8.7051,8.7051,8.7051,8.7014,8.7325,8.7839,8.8409,8.8629,8.8629,8.8629,8.8666,8.8666,8.8629,8.8666,8.8592,8.8666,8.8666,8.8666,8.8886,8.9033,8.9033,8.929,8.94,8.94,8.94,8.9143,8.8702,8.8666,8.8666,8.8629,8.8629,8.8629,8.8629,8.8666,8.8776,8.8996,8.9033,8.9069,8.9326,8.9436,8.9473,8.94,8.9436,8.9693,9.0134,9.0207,9.0482,9.0886,9.1069,9.1069,9.1033,9.1033,9.0776,9.028,9.0207,9.0445,9.0812,9.0996,9.1033,9.1069,9.1069,9.1069,9.1033,9.0996,9.0922,9.0922,9.0959,9.0959,9.0996,9.0886,9.1033,9.1069,9.1033,9.0812,9.0665,9.0555,9.0592,9.0354,9.0097,8.9913,8.9803,8.973,8.9657,8.9436,8.9179,8.8923,8.8629,8.8445,8.8335,8.8299,8.8225,8.8042,8.7839,8.7673,8.758,8.94,8.94,8.94,8.94,8.94,8.94,8.94,8.94,8.94,8.94,8.9363,8.94,8.94,8.94,8.94,8.94,8.94,8.94,8.8886,8.8005,8.7895,8.7895,8.7895,8.7895,8.8115,8.8647,8.9143,8.94,8.94,8.94,8.94,8.9363,8.94,8.9363,8.94,8.94,8.94,8.9436,8.9693,8.984,8.9913,9.0134,9.028,9.028,9.028,9.028,9.0298,9.028,8.9987,8.951,8.94,8.94,8.94,8.9363,8.951,8.9803,8.9877,8.995,9.0244,9.0391,9.028,9.0298,9.0298,9.0464,9.0959,9.1033,9.1326,9.1693,9.173,9.1803,9.1767,9.1767,9.1546,9.1143,9.1033,9.1253,9.173,9.1803,9.1767,9.1693,9.173,9.1803,9.1803,9.1803,9.1803,9.1803,9.1803,9.1803,9.1803,9.173,9.1767,9.1767,9.162,9.1546,9.1693,9.1693,9.1693,9.1363,9.0959,9.0812,9.0665,9.0647,9.0611,9.017,8.9877,8.951,8.9253,8.9143,8.9033,8.9069,8.9122,8.8865,8.8643,8.8549,8.8417,8.9546,8.9546,8.9546,8.9657,8.9657,8.9657,8.9693,8.962,8.962,8.9693,8.9657,8.9767,8.9693,8.962,8.9803,8.9803,8.9583,8.973,8.9767,8.9583,8.951,8.9436,8.9143,8.9216,8.9363,8.9473,8.962,8.9657,8.9803,8.9767,8.9546,8.973,8.9767,8.9583,8.9767,8.9583,8.973,8.9877,9.0354,9.0665,9.0702,9.1289,9.1657,9.1657,9.162,9.1583,9.1546,9.151,9.0996,8.9767,8.973,8.9767,8.962,8.9546,9.0024,9.0629,9.0665,9.0996,9.1546,9.1546,9.1546,9.1546,9.1546,9.1803,9.1657,9.162,9.1657,9.1767,9.1803,9.1803,9.1803,9.1803,9.1767,9.1767,9.1657,9.173,9.1767,9.1803,9.1803,9.1803,9.1803,9.1803,9.1803,9.1803,9.1803,9.1803,9.1803,9.1803,9.1803,9.1803,9.1803,9.1803,9.1803,9.1803,9.1803,9.1803,9.1803,9.1693,9.14,9.1344,9.1308,9.1289,9.1326,9.0922,9.0609,9.0224,9.0114,9.0167,9.0111,9.0164,9.0035,8.9723,8.9537,8.944,8.9197,9.1179,9.1179,9.1179,9.1179,9.1179,9.1179,9.1143,9.1179,9.1143,9.1069,9.1143,9.1179,9.1069,9.1143,9.1143,9.1179,9.1069,9.1106,9.1179,9.1179,9.1179,9.0445,8.9767,9.0024,9.028,9.0317,9.0776,9.1179,9.1179,9.1033,9.1069,9.1179,9.1033,9.1106,9.1179,9.1069,9.1179,9.1179,9.1326,9.1436,9.1473,9.162,9.1803,9.1803,9.1803,9.1803,9.1803,9.1803,9.1657,9.1253,9.1179,9.1179,9.1069,9.1069,9.1143,9.1326,9.1436,9.151,9.173,9.1803,9.1803,9.1803,9.1803,9.1803,9.1803,9.1803,9.1803,9.1803,9.1803,9.1803,9.1803,9.1803,9.1803,9.1803,9.1877,9.184,9.1803,9.1803,9.1803,9.1803,9.1803,9.1803,9.1803,9.1803,9.1803,9.1803,9.1803,9.1803,9.1803,9.1803,9.1803,9.1803,9.1803,9.1803,9.1803,9.1803,9.1803,9.1803,9.1711,9.1693,9.1656,9.1656,9.1675,9.151,9.1469,9.1174,9.1448,9.1611,9.1518,9.1187,9.1001,9.0723,9.0517,9.0347,9.0012,9.1803,9.1803,9.1803,9.1803,9.1803,9.1803,9.1803,9.1803,9.1803,9.1803,9.1803,9.1803,9.1803,9.1803,9.1767,9.1767,9.1803,9.1803,9.1767,9.1767,9.173,9.1253,9.0702,9.0959,9.1106,9.1143,9.1583,9.173,9.1767,9.1803,9.1803,9.173,9.1803,9.1803,9.173,9.1803,9.1803,9.1767,9.1803,9.1803,9.1803,9.1803,9.1803,9.1803,9.1803,9.1803,9.1803,9.1803,9.1803,9.1767,9.1767,9.1803,9.1803,9.1803,9.1803,9.1803,9.1803,9.1767,9.1803,9.1803,9.1803,9.1803,9.1803,9.1803,9.1803,9.1803,9.1803,9.1803,9.1803,9.1803,9.1803,9.1803,9.1987,9.2317,9.2354,9.2207,9.1877,9.1803,9.1803,9.1803,9.1803,9.1803,9.1803,9.1803,9.1803,9.1803,9.1803,9.1803,9.1803,9.1822,9.195,9.2078,9.206,9.2041,9.2059,9.2077,9.2057,9.2039,9.2038,9.2002,9.2002,9.2002,9.202,9.2019,9.2162,9.2233,9.2303,9.2357,9.2175,9.1897,9.1819,9.1739,9.1569,9.1394,9.1004,9.1803,9.1803,9.1803,9.1803,9.1803,9.1803,9.1803,9.1803,9.1803,9.1803,9.1803,9.1803,9.1803,9.1803,9.1803,9.1803,9.1803,9.1803,9.1803,9.1803,9.1803,9.162,9.1583,9.1583,9.1657,9.1693,9.1767,9.1803,9.1803,9.1803,9.1803,9.1803,9.1803,9.1803,9.1803,9.1803,9.1803,9.1803,9.1803,9.1803,9.1803,9.1803,9.1803,9.1803,9.1803,9.1803,9.1803,9.1803,9.1803,9.1803,9.1803,9.1803,9.1803,9.1803,9.1803,9.1803,9.1803,9.1803,9.1803,9.1803,9.1803,9.1803,9.1803,9.1803,9.1803,9.1803,9.1877,9.2097,9.195,9.2134,9.2281,9.217,9.2537,9.3088,9.3198,9.2868,9.2317,9.2042,9.206,9.206,9.2097,9.206,9.206,9.206,9.2152,9.2831,9.2721,9.2794,9.283,9.2921,9.2866,9.272,9.2573,9.2352,9.235,9.2348,9.2363,9.2342,9.2357,9.2338,9.2303,9.2303,9.2357,9.2392,9.2392,9.2424,9.2493,9.2493,9.2547,9.2613,9.2521,9.2599,9.2657,9.2513,9.2208,9.1803,9.1803,9.1803,9.1803,9.1803,9.1803,9.1803,9.1803,9.1803,9.1803,9.1803,9.1803,9.1803,9.1803,9.1803,9.1803,9.1803,9.1803,9.1803,9.1803,9.1803,9.1803,9.1803,9.1803,9.1803,9.1803,9.1803,9.1803,9.1803,9.1803,9.1803,9.1803,9.1803,9.1803,9.1803,9.1803,9.1803,9.1803,9.1803,9.1803,9.1803,9.1803,9.1803,9.1803,9.1803,9.1803,9.1803,9.1803,9.1803,9.1803,9.1803,9.1803,9.1803,9.1803,9.1803,9.1803,9.1803,9.1803,9.1803,9.1803,9.1803,9.1877,9.1913,9.1803,9.1803,9.1913,9.2207,9.2611,9.2831,9.3051,9.3492,9.3731,9.3823,9.4007,9.4209,9.4228,9.4025,9.3823,9.3658,9.3676,9.3676,9.3767,9.3731,9.3621,9.3695,9.3915,9.3933,9.4024,9.4005,9.3948,9.3783,9.3545,9.36,9.3433,9.3319,9.335,9.3324,9.3299,9.3256,9.3196,9.3162,9.2761,9.2869,9.2744,9.2547,9.265,9.2781,9.2897,9.3,9.3114,9.3179,9.3179,9.3163,9.3264,9.3306,9.1803,9.1803,9.1803,9.1803,9.1803,9.1803,9.1803,9.1803,9.1803,9.1803,9.1803,9.1803,9.1803,9.1803,9.1803,9.1803,9.1803,9.1803,9.1803,9.1803,9.1803,9.1803,9.1803,9.1803,9.1803,9.1803,9.1803,9.1803,9.1803,9.1803,9.1803,9.1803,9.1803,9.1803,9.1803,9.1803,9.1803,9.1803,9.1803,9.1803,9.1803,9.1803,9.1803,9.1803,9.1803,9.1803,9.1803,9.1803,9.1803,9.1803,9.1803,9.1803,9.1803,9.1803,9.1803,9.1803,9.1803,9.1803,9.1803,9.1803,9.1987,9.2391,9.2427,9.2648,9.2831,9.2978,9.3125,9.3529,9.3675,9.3878,9.4356,9.4522,9.4687,9.5111,9.5221,9.5423,9.5644,9.5129,9.4595,9.4595,9.4503,9.4503,9.4559,9.4724,9.4669,9.4593,9.4556,9.461,9.4536,9.4498,9.459,9.4553,9.4682,9.4624,9.4451,9.4442,9.4538,9.4565,9.459,9.4619,9.4615,9.4032,9.3467,9.3248,9.3046,9.3049,9.3211,9.3306,9.337,9.3354,9.3385,9.3479,9.3541,9.3541,9.3626,9.1803,9.1803,9.1803,9.1803,9.1803,9.1803,9.1803,9.1803,9.1803,9.1803,9.1803,9.1803,9.1803,9.1803,9.1803,9.1803,9.1803,9.1803,9.1803,9.1803,9.1803,9.1803,9.1803,9.1803,9.1803,9.1803,9.1803,9.1803,9.1803,9.1803,9.1803,9.1803,9.1803,9.1803,9.1803,9.1803,9.1803,9.1803,9.1803,9.1803,9.1803,9.1803,9.1803,9.1803,9.1803,9.1803,9.1803,9.1803,9.1803,9.1803,9.1803,9.1803,9.1803,9.1803,9.1803,9.1803,9.1803,9.1913,9.2134,9.2134,9.2427,9.3198,9.3272,9.3565,9.4006,9.4172,9.4301,9.454,9.4761,9.4982,9.5,9.5331,9.5698,9.6085,9.6288,9.6674,9.6932,9.6137,9.5692,9.542,9.5569,9.5625,9.5551,9.5569,9.5401,9.5288,9.5288,9.5286,9.5267,9.5376,9.5686,9.5994,9.6211,9.5986,9.5737,9.5176,9.5306,9.5532,9.5683,9.5796,9.5784,9.533,9.4616,9.3871,9.3647,9.365,9.3579,9.3596,9.3611,9.3572,9.3679,9.3859,9.3874,9.3845,9.3954,9.1803,9.1803,9.1803,9.1803,9.1803,9.1803,9.1803,9.1803,9.1803,9.1803,9.1803,9.1803,9.1803,9.1803,9.1803,9.1803,9.1803,9.1803,9.1803,9.1803,9.1803,9.1803,9.1803,9.1803,9.1803,9.1803,9.1803,9.1803,9.1803,9.1803,9.1803,9.1803,9.1803,9.1803,9.1803,9.1803,9.1803,9.1803,9.1803,9.1803,9.1803,9.1803,9.1803,9.1803,9.1803,9.1803,9.1803,9.1803,9.1803,9.1803,9.1803,9.184,9.1987,9.1987,9.195,9.1913,9.2024,9.2317,9.2758,9.2905,9.3308,9.3859,9.4098,9.4135,9.4392,9.4614,9.5056,9.559,9.6197,9.6713,9.6861,9.6711,9.6878,9.7118,9.7243,9.7404,9.7602,9.7466,9.7134,9.6797,9.6783,9.6784,9.6688,9.6647,9.6645,9.6624,9.6696,9.6783,9.6906,9.7123,9.7394,9.7698,9.7964,9.7533,9.7027,9.6318,9.6009,9.6255,9.6403,9.6596,9.6576,9.6426,9.5885,9.524,9.4526,9.4182,9.4122,9.4136,9.4119,9.4284,9.4273,9.4236,9.4213,9.4227,9.4283,9.1803,9.1803,9.1803,9.1803,9.1803,9.1803,9.1803,9.1803,9.1803,9.1803,9.1803,9.1803,9.1803,9.1803,9.1803,9.1803,9.1803,9.1803,9.1803,9.1803,9.1803,9.1803,9.1803,9.1803,9.1803,9.1803,9.1803,9.1803,9.1803,9.1803,9.1803,9.1803,9.1803,9.1803,9.1803,9.1803,9.1803,9.1803,9.1803,9.1803,9.1803,9.1803,9.1803,9.1803,9.1803,9.1803,9.1803,9.1803,9.206,9.2391,9.2464,9.2684,9.2905,9.3033,9.2923,9.2648,9.2831,9.3198,9.3639,9.3749,9.4079,9.4795,9.5017,9.5312,9.5607,9.5995,9.6123,9.6547,9.697,9.7484,9.7499,9.7662,9.7768,9.7872,9.7958,9.8027,9.8091,9.8212,9.8095,9.7906,9.7809,9.7732,9.7792,9.7789,9.7884,9.7975,9.7992,9.8111,9.8225,9.8308,9.8395,9.8444,9.8504,9.8311,9.7932,9.753,9.7037,9.7189,9.7335,9.7524,9.7605,9.7548,9.7316,9.6846,9.6049,9.5445,9.5242,9.5456,9.5239,9.4946,9.4836,9.474,9.4646,9.4636,9.4739,9.1803,9.1803,9.1803,9.1803,9.1803,9.1803,9.1803,9.1803,9.1803,9.1803,9.1803,9.1803,9.1803,9.1803,9.1803,9.1803,9.1803,9.1803,9.1803,9.1803,9.1803,9.1803,9.1803,9.1803,9.1803,9.1803,9.1803,9.1803,9.1803,9.1803,9.1803,9.1803,9.1803,9.1803,9.1803,9.1803,9.1803,9.1803,9.1803,9.1803,9.1803,9.1803,9.1913,9.2024,9.206,9.217,9.2464,9.2537,9.2794,9.3161,9.3382,9.3602,9.4153,9.4484,9.4301,9.3878,9.4116,9.4318,9.4594,9.4631,9.4999,9.5846,9.6013,9.6455,9.6787,9.7008,9.7337,9.7484,9.7662,9.7837,9.7921,9.8057,9.8175,9.8312,9.8362,9.846,9.8492,9.8573,9.8616,9.8536,9.8589,9.846,9.8329,9.8229,9.8179,9.8229,9.8246,9.8395,9.8541,9.8584,9.8648,9.8701,9.8748,9.8758,9.8686,9.8756,9.8463,9.8449,9.8568,9.8714,9.8801,9.8824,9.8518,9.8192,9.8087,9.7536,9.7165,9.6608,9.6379,9.6029,9.5535,9.5347,9.5451,9.5376,9.5363,9.1803,9.1803,9.1803,9.1803,9.1803,9.1803,9.1803,9.1803,9.1803,9.1803,9.1803,9.1803,9.1803,9.1803,9.1803,9.1803,9.1803,9.1803,9.1803,9.1803,9.1803,9.1803,9.1803,9.1803,9.1803,9.1803,9.1803,9.1803,9.1803,9.1803,9.1803,9.1803,9.1803,9.1803,9.1803,9.1803,9.1803,9.1803,9.1803,9.184,9.1877,9.1913,9.2354,9.2758,9.2978,9.3161,9.3621,9.3694,9.3933,9.4116,9.419,9.4208,9.4447,9.5184,9.5516,9.5258,9.4963,9.4668,9.546,9.5645,9.5939,9.6677,9.6971,9.7137,9.7357,9.7572,9.7817,9.8006,9.8162,9.8262,9.8312,9.8345,9.8378,9.8492,9.8637,9.8733,9.8811,9.8889,9.8929,9.9005,9.9012,9.878,9.8536,9.8476,9.8378,9.8444,9.8525,9.8685,9.8811,9.8905,9.8944,9.8997,9.9027,9.9073,9.9081,9.9223,9.9341,9.9399,9.9528,9.9617,9.9601,9.9544,9.9754,9.9514,9.9453,9.9009,9.817,9.7665,9.7515,9.7186,9.6781,9.6565,9.6424,9.6283,9.6117,9.2244,9.1803,9.1803,9.1803,9.1803,9.1803,9.1803,9.1803,9.1803,9.1803,9.1803,9.1803,9.1803,9.1803,9.1803,9.1803,9.1803,9.1803,9.1803,9.1803,9.1803,9.1803,9.1803,9.1803,9.1803,9.1803,9.1803,9.1803,9.1803,9.1803,9.1803,9.1803,9.1803,9.1803,9.1803,9.1803,9.1803,9.195,9.2244,9.2537,9.2648,9.2941,9.3382,9.3767,9.3767,9.4024,9.43,9.443,9.4724,9.5019,9.5221,9.5571,9.594,9.6419,9.664,9.6603,9.629,9.6271,9.6603,9.6621,9.6898,9.7155,9.7412,9.7519,9.775,9.7992,9.8179,9.8262,9.8345,9.8476,9.8637,9.8669,9.8811,9.8905,9.8966,9.9005,9.9133,9.9208,9.9282,9.9341,9.9384,9.9163,9.8959,9.8959,9.8898,9.8905,9.8982,9.9073,9.9148,9.9193,9.9253,9.9297,9.9326,9.9355,9.9399,9.9485,9.9603,9.9687,9.9769,9.989,10.001,10.0075,10.019,10.0202,9.9999,9.9505,9.8973,9.8668,9.8452,9.8261,9.8107,9.7775,9.7468,9.7374,9.7092,9.2905,9.2134,9.1913,9.1803,9.1803,9.1803,9.1803,9.1803,9.1803,9.1803,9.1803,9.1803,9.1803,9.1803,9.1803,9.1803,9.1803,9.1803,9.1803,9.1803,9.1803,9.1803,9.1803,9.1803,9.1803,9.1803,9.1803,9.1803,9.1877,9.1987,9.2097,9.1803,9.1803,9.1803,9.184,9.2097,9.2317,9.2684,9.3125,9.3345,9.3455,9.3896,9.4319,9.4594,9.4687,9.4779,9.5018,9.524,9.5737,9.6032,9.6289,9.6565,9.699,9.7155,9.7283,9.73,9.7225,9.7351,9.7425,9.7444,9.7484,9.7556,9.768,9.7941,9.8145,9.8378,9.8525,9.8541,9.8685,9.8827,9.8951,9.9012,9.9103,9.9253,9.937,9.9413,9.9457,9.95,9.9528,9.9533,9.9599,9.9557,9.9433,9.949,9.9448,9.9399,9.9413,9.9457,9.9485,9.9514,9.9571,9.9575,9.9617,9.9659,9.9728,9.9796,9.9917,9.9957,9.9998,10.0113,10.0203,10.0253,10.0265,10.0302,10.0363,10.0259,9.9839,9.9588,9.9375,9.9333,9.9203,9.8792,9.8495,9.8372,9.8073,9.3749,9.2941,9.2134,9.1803,9.1803,9.1803,9.1803,9.1803,9.1803,9.1803,9.1803,9.1803,9.1803,9.1803,9.1803,9.1803,9.1803,9.1803,9.1803,9.1803,9.1803,9.1803,9.1803,9.1803,9.1803,9.1803,9.195,9.195,9.206,9.2758,9.2427,9.1913,9.2244,9.195,9.217,9.2758,9.3272,9.3639,9.4079,9.4189,9.4245,9.452,9.4889,9.5534,9.5774,9.6105,9.7008,9.6879,9.6842,9.7044,9.7117,9.7189,9.7483,9.7591,9.7715,9.7765,9.7887,9.8027,9.8078,9.7921,9.7887,9.8023,9.8175,9.8329,9.8427,9.8701,9.8842,9.8889,9.9027,9.9208,9.9311,9.937,9.937,9.9471,9.9547,9.9603,9.9659,9.9742,9.9769,9.9769,9.9769,9.9769,9.9783,9.981,9.9714,9.9617,9.9673,9.9714,9.9755,9.9783,9.9837,9.989,9.993,9.9958,10.0075,10.0114,10.0075,10.0088,10.0152,10.024,10.0365,10.0363,10.0387,10.051,10.058,10.065,10.0708,10.0333,10.0172,10.0424,10.0306,9.9778,9.9326,9.9026,9.8774,9.4556,9.3749,9.2941,9.2281,9.1803,9.1803,9.1803,9.1803,9.1803,9.1803,9.1803,9.1803,9.1803,9.1803,9.1803,9.1803,9.1803,9.1803,9.1803,9.1803,9.1803,9.1803,9.1803,9.1803,9.1803,9.195,9.2281,9.2611,9.2721,9.3455,9.3602,9.3418,9.3235,9.3364,9.3565,9.3565,9.4006,9.4373,9.4777,9.5034,9.5163,9.5735,9.616,9.6473,9.6695,9.6861,9.7211,9.7375,9.752,9.7627,9.7695,9.7783,9.7906,9.8009,9.8095,9.8142,9.8242,9.8362,9.8411,9.8279,9.8229,9.8312,9.8525,9.8701,9.8733,9.9012,9.9163,9.9253,9.9326,9.9442,9.9514,9.9528,9.9557,9.9631,9.9714,9.9796,9.9864,9.9944,9.9983,9.997,9.9985,10.0024,10.0075,10.01,9.997,9.985,9.993,9.9983,9.9996,10.0023,10.0062,10.01,10.0126,10.0126,10.0227,10.0227,10.0215,10.0265,10.0302,10.0363,10.0474,10.0521,10.0557,10.065,10.073,10.0787,10.0858,10.0842,10.0831,10.0798,10.0831,10.0684,10.0229,9.9735,9.9526,9.5401,9.4593,9.3786,9.2978,9.2207,9.1913,9.1803,9.1803,9.1803,9.1803,9.1803,9.1803,9.1803,9.1803,9.1803,9.1803,9.1803,9.1803,9.1803,9.1803,9.1803,9.1803,9.1877,9.2097,9.2317,9.2391,9.2978,9.3455,9.3492,9.4263,9.4336,9.4299,9.452,9.4502,9.4263,9.4556,9.474,9.5107,9.5474,9.5916,9.6046,9.6546,9.7045,9.7119,9.732,9.7464,9.7607,9.7785,9.7887,9.7972,9.8091,9.8246,9.8345,9.8444,9.8492,9.8541,9.8589,9.8637,9.8669,9.8589,9.8605,9.878,9.892,9.9027,9.9118,9.9297,9.9413,9.9442,9.95,9.9585,9.9673,9.9766,9.9796,9.9904,9.997,10.0036,10.0062,10.0113,10.0101,10.0126,10.0165,10.0152,10.0177,10.0215,10.0139,10.0024,10.0024,10.0113,10.0126,10.0114,10.019,10.0228,10.0265,10.0265,10.0302,10.0339,10.0387,10.0438,10.0474,10.0498,10.0557,10.0604,10.0662,10.0719,10.0798,10.0924,10.0989,10.1021,10.1021,10.0989,10.0983,10.1015,10.0934,10.0504,10.0369,9.6171,9.5437,9.4556,9.3786,9.2978,9.2134,9.1803,9.1803,9.1803,9.1803,9.1803,9.1803,9.1803,9.1803,9.1803,9.1803,9.1803,9.1803,9.1803,9.1803,9.1803,9.1803,9.2024,9.2317,9.2537,9.3161,9.3529,9.3822,9.4079,9.4666,9.474,9.4649,9.4722,9.4869,9.441,9.507,9.5804,9.6428,9.6355,9.6415,9.6491,9.6658,9.7045,9.728,9.7623,9.7817,9.8009,9.8128,9.8246,9.8378,9.8395,9.8476,9.8557,9.8632,9.8727,9.8874,9.8975,9.9126,9.9311,9.9058,9.9058,9.9193,9.9267,9.9326,9.9384,9.9514,9.9627,9.9669,9.9714,9.9837,9.9944,9.9996,10.0062,10.0113,10.0165,10.0215,10.019,10.0278,10.0277,10.0302,10.024,10.0202,10.024,10.0265,10.0277,10.024,10.019,10.0202,10.0227,10.0265,10.0352,10.0377,10.0413,10.0425,10.0436,10.0533,10.0569,10.0592,10.0592,10.0592,10.0627,10.0685,10.0742,10.0798,10.0935,10.1043,10.1116,10.1167,10.1147,10.1126,10.1147,10.1188,10.122,10.1173,10.0941,9.6575,9.6171,9.485,9.4153,9.3675,9.2354,9.1803,9.1803,9.1803,9.1803,9.1803,9.1803,9.1803,9.1803,9.1803,9.1803,9.1803,9.1803,9.1803,9.1803,9.1803,9.1803,9.195,9.217,9.2354,9.2501,9.3051,9.3639,9.3455,9.441,9.4593,9.4446,9.4373,9.4538,9.441,9.463,9.4887,9.5071,9.5146,9.5276,9.5461,9.6104,9.6688,9.6951,9.7549,9.7959,9.82,9.8315,9.8466,9.8664,9.8733,9.8811,9.8951,9.9066,9.9148,9.9223,9.9311,9.937,9.9485,9.9399,9.937,9.9442,9.95,9.9557,9.9557,9.9742,9.9823,9.9877,9.997,10.0037,10.0101,10.0114,10.0152,10.0203,10.0253,10.0328,10.0365,10.045,10.051,10.051,10.0486,10.045,10.0462,10.0399,10.0399,10.0411,10.0375,10.0387,10.0424,10.0447,10.0521,10.0521,10.0545,10.0557,10.058,10.0592,10.0615,10.0627,10.0627,10.0639,10.0696,10.0787,10.0913,10.1,10.1074,10.1185,10.1208,10.1248,10.1258,10.1258,10.1248,10.1248,10.125,10.1269,10.1221,9.6722,9.6539,9.496,9.4299,9.4042,9.2501,9.1803,9.1803,9.1803,9.1803,9.1803,9.1803,9.1803,9.1803,9.1803,9.1803,9.1803,9.1803,9.1803,9.1803,9.1803,9.1803,9.184,9.206,9.2464,9.2464,9.2978,9.3602,9.3675,9.4079,9.4079,9.3822,9.3602,9.3345,9.3455,9.3786,9.4429,9.4558,9.4669,9.4779,9.5033,9.554,9.608,9.645,9.6949,9.7573,9.798,9.8241,9.848,9.8831,9.9066,9.9178,9.9318,9.9442,9.9457,9.9471,9.9561,9.9645,9.9769,9.981,9.9769,9.9742,9.9728,9.9755,9.9796,9.9983,10.0049,10.0062,10.0152,10.0202,10.0278,10.024,10.0277,10.034,10.0351,10.045,10.0474,10.0557,10.0569,10.0592,10.0592,10.0604,10.0604,10.0592,10.0557,10.058,10.0592,10.0604,10.0604,10.0604,10.0604,10.0604,10.0604,10.0604,10.0592,10.0592,10.0627,10.0662,10.0685,10.0719,10.0858,10.0968,10.1053,10.1137,10.1188,10.1238,10.124,10.1269,10.1298,10.1298,10.1259,10.1269,10.1279,10.1279,10.1279,9.6685,9.6428,9.496,9.4281,9.3932,9.2464,9.1803,9.1803,9.1803,9.1803,9.1803,9.1803,9.1803,9.1803,9.1803,9.1803,9.1803,9.1803,9.1803,9.1803,9.1803,9.1803,9.2024,9.2427,9.2501,9.3051,9.3418,9.3382,9.4042,9.3786,9.3455,9.3051,9.2501,9.2317,9.2611,9.318,9.3842,9.3897,9.4006,9.4166,9.4504,9.5078,9.5446,9.581,9.6292,9.6924,9.7357,9.7734,9.8275,9.8761,9.9248,9.93,9.9396,9.9557,9.9599,9.9711,9.9877,10.001,10.0113,10.0113,10.0165,10.005,10.0062,10.0126,10.0139,10.0177,10.0177,10.024,10.029,10.034,10.0389,10.0425,10.0462,10.0498,10.0545,10.058,10.058,10.0592,10.0592,10.0604,10.0604,10.0604,10.0604,10.0604,10.0604,10.0604,10.0604,10.0604,10.0604,10.0604,10.0604,10.0604,10.0604,10.0615,10.0615,10.065,10.0708,10.0775,10.0798,10.0831,10.0989,10.1074,10.1137,10.1208,10.1268,10.1308,10.1279,10.1279,10.1279,10.1279,10.1279,10.1279,10.1279,10.1279,10.1279,9.6355,9.5712,9.4703,9.3969,9.3308,9.2281,9.1803,9.1803,9.1803,9.1803,9.1803,9.1803,9.1803,9.1803,9.1803,9.1803,9.1803,9.1803,9.1803,9.1803,9.1803,9.1803,9.1913,9.2097,9.2207,9.2281,9.2464,9.2721,9.2574,9.2611,9.2611,9.2097,9.195,9.1803,9.2005,9.2408,9.2756,9.3011,9.3192,9.3472,9.3857,9.4388,9.4729,9.5186,9.5778,9.6404,9.6869,9.7105,9.7564,9.779,9.852,9.8816,9.9003,9.9615,10.0049,10.0011,10.0088,10.0139,10.0177,10.019,10.0227,10.0302,10.0303,10.0253,10.0265,10.0303,10.0352,10.0365,10.0413,10.0474,10.0498,10.0521,10.0545,10.0569,10.0604,10.0604,10.0604,10.0604,10.0604,10.0604,10.0604,10.0604,10.0604,10.0604,10.0604,10.0604,10.0604,10.0604,10.0604,10.0604,10.0627,10.0627,10.0639,10.0662,10.0719,10.0753,10.082,10.0924,10.0946,10.0989,10.1095,10.1167,10.1218,10.1258,10.1298,10.1269,10.1279,10.1279,10.1279,10.1279,10.1279,10.1279,10.1279,10.1279,10.1279,9.5474,9.4923,9.4153,9.3345,9.2574,9.2024,9.1803,9.1803,9.1803,9.1803,9.1803,9.1803,9.1803,9.1803,9.1803,9.1803,9.1803,9.1803,9.1803,9.1803,9.1803,9.1803,9.1803,9.1803,9.184,9.1803,9.1803,9.1987,9.1803,9.1803,9.184,9.184,9.1803,9.1803,9.1895,9.2095,9.2201,9.2361,9.2535,9.268,9.3207,9.3711,9.413,9.4632,9.5337,9.5792,9.6333,9.6488,9.6753,9.7166,9.8032,9.8464,9.8871,9.9683,10.0215,10.0215,10.0252,10.034,10.0389,10.0351,10.0425,10.0462,10.0486,10.045,10.0438,10.0462,10.0474,10.0498,10.0545,10.0592,10.0592,10.0604,10.0604,10.0604,10.0604,10.0604,10.0604,10.0604,10.0604,10.0604,10.0604,10.0604,10.0604,10.0604,10.0604,10.0604,10.0615,10.065,10.0639,10.0627,10.0673,10.0696,10.0708,10.073,10.0798,10.0913,10.0968,10.1032,10.1064,10.1116,10.1208,10.1238,10.1268,10.1288,10.1269,10.1279,10.1279,10.1279,10.1279,10.1279,10.1279,10.1279,10.1279,10.1279,10.1279,9.4263,9.4153,9.3345,9.2574,9.1877,9.1803,9.1803,9.1803,9.1803,9.1803,9.1803,9.1803,9.1803,9.1803,9.1803,9.1803,9.1803,9.1803,9.1803,9.1803,9.1803,9.1803,9.1803,9.1803,9.1803,9.1803,9.1803,9.1803,9.1803,9.1803,9.1803,9.1803,9.1803,9.1803,9.184,9.2056,9.2215,9.2375,9.2633,9.2918,9.3195,9.3454,9.3649,9.3971,9.4377,9.4763,9.5577,9.6054,9.6425,9.7009,9.7591,9.8008,9.8806,9.9592,10.0009,10.0313,10.0311,10.0462,10.051,10.0533,10.0557,10.058,10.0604,10.0569,10.0545,10.0545,10.0557,10.0557,10.0592,10.0604,10.0604,10.0604,10.0604,10.0604,10.0604,10.0604,10.0604,10.0604,10.0604,10.0604,10.0604,10.0604,10.0604,10.0604,10.0639,10.0627,10.065,10.0685,10.073,10.0719,10.0753,10.0798,10.0809,10.0842,10.0968,10.1043,10.1085,10.1137,10.1167,10.1208,10.1258,10.1288,10.1279,10.1279,10.1279,10.1279,10.1279,10.1279,10.1279,10.1279,10.1279,10.1279,10.1279,10.1279,10.1279,9.3932,9.3308,9.2464,9.195,9.1803,9.1803,9.1803,9.1803,9.1803,9.1803,9.1803,9.1803,9.1803,9.1803,9.1803,9.1803,9.1803,9.1803,9.1803,9.1803,9.1803,9.1803,9.1803,9.1803,9.1803,9.1803,9.1803,9.1803,9.1803,9.1803,9.1803,9.1803,9.1803,9.1803,9.1858,9.2127,9.2375,9.2461,9.2868,9.3146,9.3385,9.3694,9.3911,9.4128,9.4438,9.4657,9.5158,9.53,9.5464,9.5778,9.657,9.7351,9.8246,9.9124,9.9529,9.9755,10.0201,10.0416,10.058,10.0604,10.0604,10.0604,10.0604,10.0604,10.0604,10.0604,10.0604,10.0604,10.0604,10.0604,10.0604,10.0604,10.0604,10.0604,10.0604,10.0604,10.0604,10.0604,10.0604,10.0604,10.0604,10.0604,10.0604,10.0627,10.0662,10.0696,10.073,10.0787,10.0875,10.0897,10.0908,10.094,10.0968,10.1011,10.1095,10.1147,10.1178,10.1218,10.1248,10.1288,10.1279,10.1279,10.1279,10.1279,10.1279,10.1279,10.1279,10.1279,10.1279,10.1279,10.1279,10.1279,10.1279,10.1279,10.1279,9.2905,9.2464,9.1987,9.1803,9.1803,9.1803,9.1803,9.1803,9.1803,9.1803,9.1803,9.1803,9.1803,9.1803,9.1803,9.1803,9.1803,9.1803,9.1803,9.1803,9.1803,9.1803,9.1803,9.1803,9.1803,9.1803,9.1803,9.1803,9.1803,9.1803,9.1803,9.1803,9.1803,9.1858,9.1948,9.2233,9.2461,9.2565,9.3065,9.337,9.3572,9.3792,9.4042,9.4279,9.4516,9.4728,9.4908,9.5045,9.5217,9.5553,9.6306,9.6883,9.7666,9.8327,9.8988,9.9381,9.9828,10.0222,10.0451,10.0577,10.0577,10.0627,10.0604,10.0615,10.0604,10.0604,10.0604,10.0604,10.0604,10.0604,10.0604,10.0604,10.0604,10.0604,10.0604,10.0604,10.0604,10.0604,10.0604,10.0604,10.0615,10.0639,10.0662,10.0708,10.0753,10.088,10.0902,10.0957,10.1032,10.1085,10.1095,10.1106,10.1095,10.1126,10.1208,10.1238,10.1258,10.1298,10.1279,10.1279,10.1279,10.1279,10.1279,10.1279,10.1279,10.1279,10.1279,10.1279,10.1279,10.1279,10.1279,10.1279,10.1279,10.1279,10.1279,9.184,9.1803,9.1803,9.1803,9.1803,9.1803,9.1803,9.1803,9.1803,9.1803,9.1803,9.1803,9.1803,9.1803,9.1803,9.1803,9.1803,9.1803,9.1803,9.1803,9.1803,9.1803,9.1803,9.1803,9.1803,9.1803,9.1803,9.1803,9.1803,9.1803,9.1803,9.1803,9.1858,9.1894,9.2091,9.2322,9.2496,9.2785,9.3163,9.3526,9.374,9.3896,9.4142,9.4407,9.4663,9.4883,9.5058,9.5203,9.5383,9.5654,9.6104,9.6466,9.6969,9.7554,9.8199,9.8734,9.9407,9.9855,10.0264,10.0581,10.0646,10.0673,10.065,10.0639,10.065,10.0639,10.0639,10.0615,10.0615,10.0604,10.0604,10.0604,10.0604,10.0604,10.0604,10.0615,10.0615,10.0615,10.0615,10.0615,10.0662,10.0696,10.0753,10.0798,10.0902,10.0989,10.1053,10.1106,10.1157,10.1178,10.1208,10.1208,10.1208,10.1258,10.1308,10.1308,10.1298,10.1308,10.1279,10.1279,10.1279,10.1279,10.1279,10.1279,10.1279,10.1279,10.1279,10.1279,10.1279,10.1279,10.1279,10.1279,10.1279,10.1279,10.1279,9.1803,9.1803,9.1803,9.1803,9.1803,9.1803,9.1803,9.1803,9.1803,9.1803,9.1803,9.1803,9.1803,9.1803,9.1803,9.1803,9.1803,9.1803,9.1803,9.1803,9.1803,9.1803,9.1803,9.1803,9.1803,9.1803,9.1803,9.1803,9.1803,9.1803,9.1803,9.1803,9.1803,9.1912,9.2109,9.234,9.2582,9.2881,9.3275,9.3618,9.3896,9.4113,9.439,9.4597,9.4806,9.4996,9.5155,9.5324,9.5452,9.5619,9.5789,9.5998,9.632,9.6812,9.738,9.8025,9.8736,9.9348,9.9759,10.0383,10.0525,10.0689,10.0716,10.0809,10.0798,10.0753,10.073,10.0662,10.065,10.0627,10.0615,10.0604,10.0604,10.0615,10.0627,10.0639,10.0639,10.0662,10.0673,10.0719,10.0764,10.0869,10.0946,10.0989,10.1021,10.1095,10.1137,10.1198,10.1248,10.1278,10.1298,10.1288,10.1288,10.1298,10.1279,10.1279,10.1269,10.1279,10.1279,10.1279,10.1279,10.1279,10.1279,10.1279,10.1279,10.1279,10.1279,10.1279,10.1279,10.1279,10.1279,10.1279,10.1279,10.1279,10.1279]}]]